<?xml version="1.0" encoding="UTF-8" standalone="no" ?>
<gpx xmlns="http://www.topografix.com/GPX/1/1" xmlns:xsi="http://www.w3.org/2001/XMLSchema-instance" xsi:schemaLocation="http://www.topografix.com/GPX/1/1 http://www.topografix.com/GPX/1/1/gpx.xsd" version="1.1" creator="VisuGPX - https://www.visugpx.com">
  <metadata>
    <name>Piscine Toul</name>
  </metadata>
  <trk>
    <name><![CDATA[Piscine Toul_2]]></name>
    <trkseg>
      <trkpt lat="48.68462" lon="6.16262">
        <ele>218.1</ele>
        <time>2019-10-31T23:00:00.000Z</time>
      </trkpt>
      <trkpt lat="48.68465" lon="6.16266">
        <ele>217.8</ele>
        <time>2019-10-31T23:00:00.738Z</time>
      </trkpt>
      <trkpt lat="48.68465" lon="6.16273">
        <ele>217.8</ele>
        <time>2019-10-31T23:00:01.504Z</time>
      </trkpt>
      <trkpt lat="48.68463" lon="6.16261">
        <ele>218</ele>
        <time>2019-10-31T23:00:02.971Z</time>
      </trkpt>
      <trkpt lat="48.68458" lon="6.16242">
        <ele>218.4</ele>
        <time>2019-10-31T23:00:05.191Z</time>
      </trkpt>
      <trkpt lat="48.68456" lon="6.16221">
        <ele>218.6</ele>
        <time>2019-10-31T23:00:07.478Z</time>
      </trkpt>
      <trkpt lat="48.68453" lon="6.162">
        <ele>218.9</ele>
        <time>2019-10-31T23:00:09.860Z</time>
      </trkpt>
      <trkpt lat="48.68452" lon="6.16178">
        <ele>219.1</ele>
        <time>2019-10-31T23:00:12.310Z</time>
      </trkpt>
      <trkpt lat="48.68457" lon="6.1616">
        <ele>219.2</ele>
        <time>2019-10-31T23:00:14.566Z</time>
      </trkpt>
      <trkpt lat="48.68462" lon="6.16151">
        <ele>219.2</ele>
        <time>2019-10-31T23:00:15.832Z</time>
      </trkpt>
      <trkpt lat="48.68477" lon="6.16145">
        <ele>220</ele>
        <time>2019-10-31T23:00:18.430Z</time>
      </trkpt>
      <trkpt lat="48.68494" lon="6.1614">
        <ele>219.8</ele>
        <time>2019-10-31T23:00:21.319Z</time>
      </trkpt>
      <trkpt lat="48.68509" lon="6.16135">
        <ele>220.5</ele>
        <time>2019-10-31T23:00:23.961Z</time>
      </trkpt>
      <trkpt lat="48.68523" lon="6.1613">
        <ele>221.3</ele>
        <time>2019-10-31T23:00:26.391Z</time>
      </trkpt>
      <trkpt lat="48.68536" lon="6.16124">
        <ele>222.2</ele>
        <time>2019-10-31T23:00:28.725Z</time>
      </trkpt>
      <trkpt lat="48.68549" lon="6.16119">
        <ele>222.3</ele>
        <time>2019-10-31T23:00:30.834Z</time>
      </trkpt>
      <trkpt lat="48.6856" lon="6.16113">
        <ele>221.9</ele>
        <time>2019-10-31T23:00:32.836Z</time>
      </trkpt>
      <trkpt lat="48.68571" lon="6.16125">
        <ele>222.8</ele>
        <time>2019-10-31T23:00:35.089Z</time>
      </trkpt>
      <trkpt lat="48.6858" lon="6.16145">
        <ele>222</ele>
        <time>2019-10-31T23:00:37.790Z</time>
      </trkpt>
      <trkpt lat="48.6859" lon="6.16163">
        <ele>222</ele>
        <time>2019-10-31T23:00:40.413Z</time>
      </trkpt>
      <trkpt lat="48.686" lon="6.16185">
        <ele>221.7</ele>
        <time>2019-10-31T23:00:43.425Z</time>
      </trkpt>
      <trkpt lat="48.68613" lon="6.16209">
        <ele>221.7</ele>
        <time>2019-10-31T23:00:46.799Z</time>
      </trkpt>
      <trkpt lat="48.6863" lon="6.16221">
        <ele>221.1</ele>
        <time>2019-10-31T23:00:50.003Z</time>
      </trkpt>
      <trkpt lat="48.68647" lon="6.1621">
        <ele>221.1</ele>
        <time>2019-10-31T23:00:52.993Z</time>
      </trkpt>
      <trkpt lat="48.68659" lon="6.16203">
        <ele>222.1</ele>
        <time>2019-10-31T23:00:55.270Z</time>
      </trkpt>
      <trkpt lat="48.68672" lon="6.16195">
        <ele>223.1</ele>
        <time>2019-10-31T23:00:57.594Z</time>
      </trkpt>
      <trkpt lat="48.68684" lon="6.16186">
        <ele>223.9</ele>
        <time>2019-10-31T23:00:59.873Z</time>
      </trkpt>
      <trkpt lat="48.68696" lon="6.16177">
        <ele>224.3</ele>
        <time>2019-10-31T23:01:02.151Z</time>
      </trkpt>
      <trkpt lat="48.68708" lon="6.16166">
        <ele>225.7</ele>
        <time>2019-10-31T23:01:04.407Z</time>
      </trkpt>
      <trkpt lat="48.68721" lon="6.16157">
        <ele>225.9</ele>
        <time>2019-10-31T23:01:06.912Z</time>
      </trkpt>
      <trkpt lat="48.68734" lon="6.16148">
        <ele>226.8</ele>
        <time>2019-10-31T23:01:09.321Z</time>
      </trkpt>
      <trkpt lat="48.68746" lon="6.16139">
        <ele>227.4</ele>
        <time>2019-10-31T23:01:11.480Z</time>
      </trkpt>
      <trkpt lat="48.68756" lon="6.16131">
        <ele>227.6</ele>
        <time>2019-10-31T23:01:13.432Z</time>
      </trkpt>
      <trkpt lat="48.68767" lon="6.16124">
        <ele>228.4</ele>
        <time>2019-10-31T23:01:15.450Z</time>
      </trkpt>
      <trkpt lat="48.68779" lon="6.16114">
        <ele>229.7</ele>
        <time>2019-10-31T23:01:17.809Z</time>
      </trkpt>
      <trkpt lat="48.68791" lon="6.16104">
        <ele>230.1</ele>
        <time>2019-10-31T23:01:19.994Z</time>
      </trkpt>
      <trkpt lat="48.68804" lon="6.16094">
        <ele>230</ele>
        <time>2019-10-31T23:01:22.546Z</time>
      </trkpt>
      <trkpt lat="48.68817" lon="6.16084">
        <ele>231.1</ele>
        <time>2019-10-31T23:01:25.014Z</time>
      </trkpt>
      <trkpt lat="48.6883" lon="6.16076">
        <ele>232.4</ele>
        <time>2019-10-31T23:01:27.246Z</time>
      </trkpt>
      <trkpt lat="48.6884" lon="6.16068">
        <ele>232.9</ele>
        <time>2019-10-31T23:01:29.269Z</time>
      </trkpt>
      <trkpt lat="48.6885" lon="6.16063">
        <ele>233.1</ele>
        <time>2019-10-31T23:01:31.051Z</time>
      </trkpt>
      <trkpt lat="48.68861" lon="6.16076">
        <ele>233.1</ele>
        <time>2019-10-31T23:01:33.287Z</time>
      </trkpt>
      <trkpt lat="48.68871" lon="6.16094">
        <ele>233.6</ele>
        <time>2019-10-31T23:01:36.007Z</time>
      </trkpt>
      <trkpt lat="48.68883" lon="6.16114">
        <ele>234</ele>
        <time>2019-10-31T23:01:39.008Z</time>
      </trkpt>
      <trkpt lat="48.68896" lon="6.16134">
        <ele>233.4</ele>
        <time>2019-10-31T23:01:42.042Z</time>
      </trkpt>
      <trkpt lat="48.6891" lon="6.16151">
        <ele>233.4</ele>
        <time>2019-10-31T23:01:45.102Z</time>
      </trkpt>
      <trkpt lat="48.6892" lon="6.16151">
        <ele>233.8</ele>
        <time>2019-10-31T23:01:46.852Z</time>
      </trkpt>
      <trkpt lat="48.68922" lon="6.16138">
        <ele>234.6</ele>
        <time>2019-10-31T23:01:48.345Z</time>
      </trkpt>
      <trkpt lat="48.68923" lon="6.16123">
        <ele>234.6</ele>
        <time>2019-10-31T23:01:49.999Z</time>
      </trkpt>
      <trkpt lat="48.68931" lon="6.16114">
        <ele>235.9</ele>
        <time>2019-10-31T23:01:51.622Z</time>
      </trkpt>
      <trkpt lat="48.68939" lon="6.16096">
        <ele>236.1</ele>
        <time>2019-10-31T23:01:54.050Z</time>
      </trkpt>
      <trkpt lat="48.68944" lon="6.16076">
        <ele>237.2</ele>
        <time>2019-10-31T23:01:56.447Z</time>
      </trkpt>
      <trkpt lat="48.68948" lon="6.16055">
        <ele>238.3</ele>
        <time>2019-10-31T23:01:58.873Z</time>
      </trkpt>
      <trkpt lat="48.68952" lon="6.16033">
        <ele>239</ele>
        <time>2019-10-31T23:02:01.368Z</time>
      </trkpt>
      <trkpt lat="48.68956" lon="6.16013">
        <ele>240.3</ele>
        <time>2019-10-31T23:02:03.661Z</time>
      </trkpt>
      <trkpt lat="48.6896" lon="6.15996">
        <ele>241.3</ele>
        <time>2019-10-31T23:02:05.668Z</time>
      </trkpt>
      <trkpt lat="48.68964" lon="6.15979">
        <ele>241.4</ele>
        <time>2019-10-31T23:02:07.746Z</time>
      </trkpt>
      <trkpt lat="48.68968" lon="6.15961">
        <ele>242.8</ele>
        <time>2019-10-31T23:02:09.797Z</time>
      </trkpt>
      <trkpt lat="48.68972" lon="6.15945">
        <ele>244.1</ele>
        <time>2019-10-31T23:02:11.732Z</time>
      </trkpt>
      <trkpt lat="48.68975" lon="6.15929">
        <ele>245</ele>
        <time>2019-10-31T23:02:13.614Z</time>
      </trkpt>
      <trkpt lat="48.68979" lon="6.15913">
        <ele>245.7</ele>
        <time>2019-10-31T23:02:15.523Z</time>
      </trkpt>
      <trkpt lat="48.68983" lon="6.15896">
        <ele>246.4</ele>
        <time>2019-10-31T23:02:17.421Z</time>
      </trkpt>
      <trkpt lat="48.68985" lon="6.1588">
        <ele>247.3</ele>
        <time>2019-10-31T23:02:19.265Z</time>
      </trkpt>
      <trkpt lat="48.68987" lon="6.15861">
        <ele>248.3</ele>
        <time>2019-10-31T23:02:21.374Z</time>
      </trkpt>
      <trkpt lat="48.6899" lon="6.15846">
        <ele>249.7</ele>
        <time>2019-10-31T23:02:23.163Z</time>
      </trkpt>
      <trkpt lat="48.68992" lon="6.15832">
        <ele>250.9</ele>
        <time>2019-10-31T23:02:24.786Z</time>
      </trkpt>
      <trkpt lat="48.68994" lon="6.15815">
        <ele>250.9</ele>
        <time>2019-10-31T23:02:26.618Z</time>
      </trkpt>
      <trkpt lat="48.68998" lon="6.15798">
        <ele>252.8</ele>
        <time>2019-10-31T23:02:28.644Z</time>
      </trkpt>
      <trkpt lat="48.69" lon="6.15784">
        <ele>253.8</ele>
        <time>2019-10-31T23:02:30.302Z</time>
      </trkpt>
      <trkpt lat="48.69003" lon="6.15768">
        <ele>254.9</ele>
        <time>2019-10-31T23:02:32.129Z</time>
      </trkpt>
      <trkpt lat="48.69006" lon="6.15751">
        <ele>256</ele>
        <time>2019-10-31T23:02:34.061Z</time>
      </trkpt>
      <trkpt lat="48.69011" lon="6.15735">
        <ele>256.8</ele>
        <time>2019-10-31T23:02:36.026Z</time>
      </trkpt>
      <trkpt lat="48.69015" lon="6.15719">
        <ele>258.2</ele>
        <time>2019-10-31T23:02:37.967Z</time>
      </trkpt>
      <trkpt lat="48.69019" lon="6.15701">
        <ele>259.1</ele>
        <time>2019-10-31T23:02:40.050Z</time>
      </trkpt>
      <trkpt lat="48.69023" lon="6.15683">
        <ele>260</ele>
        <time>2019-10-31T23:02:42.117Z</time>
      </trkpt>
      <trkpt lat="48.69028" lon="6.15666">
        <ele>261.2</ele>
        <time>2019-10-31T23:02:44.207Z</time>
      </trkpt>
      <trkpt lat="48.69031" lon="6.15648">
        <ele>262.8</ele>
        <time>2019-10-31T23:02:46.246Z</time>
      </trkpt>
      <trkpt lat="48.69035" lon="6.15634">
        <ele>264.4</ele>
        <time>2019-10-31T23:02:48.011Z</time>
      </trkpt>
      <trkpt lat="48.69039" lon="6.15618">
        <ele>264.6</ele>
        <time>2019-10-31T23:02:49.909Z</time>
      </trkpt>
      <trkpt lat="48.69043" lon="6.15601">
        <ele>264.6</ele>
        <time>2019-10-31T23:02:51.846Z</time>
      </trkpt>
      <trkpt lat="48.69047" lon="6.15587">
        <ele>266.2</ele>
        <time>2019-10-31T23:02:53.605Z</time>
      </trkpt>
      <trkpt lat="48.6905" lon="6.15572">
        <ele>267.6</ele>
        <time>2019-10-31T23:02:55.293Z</time>
      </trkpt>
      <trkpt lat="48.69054" lon="6.15559">
        <ele>268.2</ele>
        <time>2019-10-31T23:02:56.897Z</time>
      </trkpt>
      <trkpt lat="48.69057" lon="6.15544">
        <ele>268.2</ele>
        <time>2019-10-31T23:02:58.675Z</time>
      </trkpt>
      <trkpt lat="48.6906" lon="6.1553">
        <ele>270.1</ele>
        <time>2019-10-31T23:03:00.241Z</time>
      </trkpt>
      <trkpt lat="48.69061" lon="6.15519">
        <ele>270.8</ele>
        <time>2019-10-31T23:03:01.496Z</time>
      </trkpt>
      <trkpt lat="48.69062" lon="6.15509">
        <ele>272</ele>
        <time>2019-10-31T23:03:02.674Z</time>
      </trkpt>
      <trkpt lat="48.69064" lon="6.15497">
        <ele>273.1</ele>
        <time>2019-10-31T23:03:03.979Z</time>
      </trkpt>
      <trkpt lat="48.6907" lon="6.15478">
        <ele>274.3</ele>
        <time>2019-10-31T23:03:06.372Z</time>
      </trkpt>
      <trkpt lat="48.69074" lon="6.15463">
        <ele>275.3</ele>
        <time>2019-10-31T23:03:08.138Z</time>
      </trkpt>
      <trkpt lat="48.69077" lon="6.15449">
        <ele>276.1</ele>
        <time>2019-10-31T23:03:09.815Z</time>
      </trkpt>
      <trkpt lat="48.69079" lon="6.15434">
        <ele>276.9</ele>
        <time>2019-10-31T23:03:11.486Z</time>
      </trkpt>
      <trkpt lat="48.69083" lon="6.1542">
        <ele>277.9</ele>
        <time>2019-10-31T23:03:13.162Z</time>
      </trkpt>
      <trkpt lat="48.69085" lon="6.15405">
        <ele>278.9</ele>
        <time>2019-10-31T23:03:14.908Z</time>
      </trkpt>
      <trkpt lat="48.69089" lon="6.15391">
        <ele>279.7</ele>
        <time>2019-10-31T23:03:16.589Z</time>
      </trkpt>
      <trkpt lat="48.69093" lon="6.1538">
        <ele>281.2</ele>
        <time>2019-10-31T23:03:17.878Z</time>
      </trkpt>
      <trkpt lat="48.69095" lon="6.15366">
        <ele>282.5</ele>
        <time>2019-10-31T23:03:19.448Z</time>
      </trkpt>
      <trkpt lat="48.69098" lon="6.15351">
        <ele>283.5</ele>
        <time>2019-10-31T23:03:21.181Z</time>
      </trkpt>
      <trkpt lat="48.69101" lon="6.15336">
        <ele>283.5</ele>
        <time>2019-10-31T23:03:22.985Z</time>
      </trkpt>
      <trkpt lat="48.69103" lon="6.1532">
        <ele>284.6</ele>
        <time>2019-10-31T23:03:24.806Z</time>
      </trkpt>
      <trkpt lat="48.69106" lon="6.15305">
        <ele>285.9</ele>
        <time>2019-10-31T23:03:26.504Z</time>
      </trkpt>
      <trkpt lat="48.6911" lon="6.1529">
        <ele>287.1</ele>
        <time>2019-10-31T23:03:28.291Z</time>
      </trkpt>
      <trkpt lat="48.69113" lon="6.15275">
        <ele>288.2</ele>
        <time>2019-10-31T23:03:30.048Z</time>
      </trkpt>
      <trkpt lat="48.69116" lon="6.15259">
        <ele>288.5</ele>
        <time>2019-10-31T23:03:31.837Z</time>
      </trkpt>
      <trkpt lat="48.69119" lon="6.15244">
        <ele>289.8</ele>
        <time>2019-10-31T23:03:33.630Z</time>
      </trkpt>
      <trkpt lat="48.69122" lon="6.15229">
        <ele>290.9</ele>
        <time>2019-10-31T23:03:35.370Z</time>
      </trkpt>
      <trkpt lat="48.69126" lon="6.15215">
        <ele>292</ele>
        <time>2019-10-31T23:03:37.075Z</time>
      </trkpt>
      <trkpt lat="48.69129" lon="6.15201">
        <ele>292.7</ele>
        <time>2019-10-31T23:03:38.730Z</time>
      </trkpt>
      <trkpt lat="48.69132" lon="6.15187">
        <ele>294.4</ele>
        <time>2019-10-31T23:03:40.308Z</time>
      </trkpt>
      <trkpt lat="48.69135" lon="6.15174">
        <ele>295.8</ele>
        <time>2019-10-31T23:03:41.832Z</time>
      </trkpt>
      <trkpt lat="48.69137" lon="6.15163">
        <ele>296.3</ele>
        <time>2019-10-31T23:03:43.187Z</time>
      </trkpt>
      <trkpt lat="48.69141" lon="6.1515">
        <ele>296.8</ele>
        <time>2019-10-31T23:03:44.723Z</time>
      </trkpt>
      <trkpt lat="48.69144" lon="6.15135">
        <ele>298.5</ele>
        <time>2019-10-31T23:03:46.506Z</time>
      </trkpt>
      <trkpt lat="48.69148" lon="6.15119">
        <ele>299.3</ele>
        <time>2019-10-31T23:03:48.304Z</time>
      </trkpt>
      <trkpt lat="48.6915" lon="6.15107">
        <ele>299.9</ele>
        <time>2019-10-31T23:03:49.786Z</time>
      </trkpt>
      <trkpt lat="48.69153" lon="6.15093">
        <ele>301</ele>
        <time>2019-10-31T23:03:51.369Z</time>
      </trkpt>
      <trkpt lat="48.69156" lon="6.15078">
        <ele>302.3</ele>
        <time>2019-10-31T23:03:53.051Z</time>
      </trkpt>
      <trkpt lat="48.69158" lon="6.15065">
        <ele>303.3</ele>
        <time>2019-10-31T23:03:54.582Z</time>
      </trkpt>
      <trkpt lat="48.69161" lon="6.1505">
        <ele>304.3</ele>
        <time>2019-10-31T23:03:56.322Z</time>
      </trkpt>
      <trkpt lat="48.69164" lon="6.15036">
        <ele>304.3</ele>
        <time>2019-10-31T23:03:57.972Z</time>
      </trkpt>
      <trkpt lat="48.69167" lon="6.15022">
        <ele>305.9</ele>
        <time>2019-10-31T23:03:59.550Z</time>
      </trkpt>
      <trkpt lat="48.69169" lon="6.15009">
        <ele>306.2</ele>
        <time>2019-10-31T23:04:01.021Z</time>
      </trkpt>
      <trkpt lat="48.6917" lon="6.15">
        <ele>307.5</ele>
        <time>2019-10-31T23:04:02.138Z</time>
      </trkpt>
      <trkpt lat="48.69173" lon="6.14987">
        <ele>308.9</ele>
        <time>2019-10-31T23:04:03.657Z</time>
      </trkpt>
      <trkpt lat="48.69176" lon="6.14972">
        <ele>308.9</ele>
        <time>2019-10-31T23:04:05.381Z</time>
      </trkpt>
      <trkpt lat="48.6918" lon="6.14957">
        <ele>310.1</ele>
        <time>2019-10-31T23:04:07.128Z</time>
      </trkpt>
      <trkpt lat="48.69183" lon="6.14942">
        <ele>311.3</ele>
        <time>2019-10-31T23:04:08.917Z</time>
      </trkpt>
      <trkpt lat="48.69186" lon="6.14925">
        <ele>312.3</ele>
        <time>2019-10-31T23:04:10.895Z</time>
      </trkpt>
      <trkpt lat="48.69189" lon="6.14909">
        <ele>313.2</ele>
        <time>2019-10-31T23:04:12.716Z</time>
      </trkpt>
      <trkpt lat="48.69192" lon="6.14892">
        <ele>314.2</ele>
        <time>2019-10-31T23:04:14.657Z</time>
      </trkpt>
      <trkpt lat="48.69196" lon="6.14876">
        <ele>315</ele>
        <time>2019-10-31T23:04:16.550Z</time>
      </trkpt>
      <trkpt lat="48.692" lon="6.14859">
        <ele>316.1</ele>
        <time>2019-10-31T23:04:18.512Z</time>
      </trkpt>
      <trkpt lat="48.69203" lon="6.14844">
        <ele>317.3</ele>
        <time>2019-10-31T23:04:20.276Z</time>
      </trkpt>
      <trkpt lat="48.69206" lon="6.14828">
        <ele>318.3</ele>
        <time>2019-10-31T23:04:22.111Z</time>
      </trkpt>
      <trkpt lat="48.69209" lon="6.14812">
        <ele>318.8</ele>
        <time>2019-10-31T23:04:23.941Z</time>
      </trkpt>
      <trkpt lat="48.69211" lon="6.14796">
        <ele>320.3</ele>
        <time>2019-10-31T23:04:25.756Z</time>
      </trkpt>
      <trkpt lat="48.69215" lon="6.14781">
        <ele>321.4</ele>
        <time>2019-10-31T23:04:27.607Z</time>
      </trkpt>
      <trkpt lat="48.69219" lon="6.14763">
        <ele>322.4</ele>
        <time>2019-10-31T23:04:29.703Z</time>
      </trkpt>
      <trkpt lat="48.69223" lon="6.14745">
        <ele>323.2</ele>
        <time>2019-10-31T23:04:31.801Z</time>
      </trkpt>
      <trkpt lat="48.69225" lon="6.14732">
        <ele>324.3</ele>
        <time>2019-10-31T23:04:33.316Z</time>
      </trkpt>
      <trkpt lat="48.69227" lon="6.14716">
        <ele>325.7</ele>
        <time>2019-10-31T23:04:35.029Z</time>
      </trkpt>
      <trkpt lat="48.69229" lon="6.14704">
        <ele>326.9</ele>
        <time>2019-10-31T23:04:36.418Z</time>
      </trkpt>
      <trkpt lat="48.69236" lon="6.14683">
        <ele>327.1</ele>
        <time>2019-10-31T23:04:39.018Z</time>
      </trkpt>
      <trkpt lat="48.69241" lon="6.14667">
        <ele>327</ele>
        <time>2019-10-31T23:04:41.004Z</time>
      </trkpt>
      <trkpt lat="48.69245" lon="6.14647">
        <ele>327.9</ele>
        <time>2019-10-31T23:04:43.314Z</time>
      </trkpt>
      <trkpt lat="48.69246" lon="6.14634">
        <ele>329</ele>
        <time>2019-10-31T23:04:44.798Z</time>
      </trkpt>
      <trkpt lat="48.69249" lon="6.14617">
        <ele>330.9</ele>
        <time>2019-10-31T23:04:46.802Z</time>
      </trkpt>
      <trkpt lat="48.69254" lon="6.14595">
        <ele>331.1</ele>
        <time>2019-10-31T23:04:49.285Z</time>
      </trkpt>
      <trkpt lat="48.69257" lon="6.14579">
        <ele>331.1</ele>
        <time>2019-10-31T23:04:51.158Z</time>
      </trkpt>
      <trkpt lat="48.6926" lon="6.14561">
        <ele>332.1</ele>
        <time>2019-10-31T23:04:53.221Z</time>
      </trkpt>
      <trkpt lat="48.69265" lon="6.14539">
        <ele>333.3</ele>
        <time>2019-10-31T23:04:55.789Z</time>
      </trkpt>
      <trkpt lat="48.69275" lon="6.14519">
        <ele>334.1</ele>
        <time>2019-10-31T23:04:58.649Z</time>
      </trkpt>
      <trkpt lat="48.69277" lon="6.14505">
        <ele>334.1</ele>
        <time>2019-10-31T23:05:00.213Z</time>
      </trkpt>
      <trkpt lat="48.69281" lon="6.14487">
        <ele>334.8</ele>
        <time>2019-10-31T23:05:02.369Z</time>
      </trkpt>
      <trkpt lat="48.69284" lon="6.14465">
        <ele>335.1</ele>
        <time>2019-10-31T23:05:04.867Z</time>
      </trkpt>
      <trkpt lat="48.69285" lon="6.1445">
        <ele>333.3</ele>
        <time>2019-10-31T23:05:06.451Z</time>
      </trkpt>
      <trkpt lat="48.69286" lon="6.14427">
        <ele>336.4</ele>
        <time>2019-10-31T23:05:09.015Z</time>
      </trkpt>
      <trkpt lat="48.6929" lon="6.1441">
        <ele>337</ele>
        <time>2019-10-31T23:05:11.045Z</time>
      </trkpt>
      <trkpt lat="48.69293" lon="6.14389">
        <ele>338</ele>
        <time>2019-10-31T23:05:13.463Z</time>
      </trkpt>
      <trkpt lat="48.69293" lon="6.14368">
        <ele>337.2</ele>
        <time>2019-10-31T23:05:15.806Z</time>
      </trkpt>
      <trkpt lat="48.69296" lon="6.1434">
        <ele>338</ele>
        <time>2019-10-31T23:05:18.906Z</time>
      </trkpt>
      <trkpt lat="48.69296" lon="6.14315">
        <ele>338.3</ele>
        <time>2019-10-31T23:05:21.716Z</time>
      </trkpt>
      <trkpt lat="48.69299" lon="6.14292">
        <ele>332.1</ele>
        <time>2019-10-31T23:05:24.222Z</time>
      </trkpt>
      <trkpt lat="48.69301" lon="6.14265">
        <ele>336.1</ele>
        <time>2019-10-31T23:05:27.297Z</time>
      </trkpt>
      <trkpt lat="48.69306" lon="6.14226">
        <ele>337.5</ele>
        <time>2019-10-31T23:05:31.705Z</time>
      </trkpt>
      <trkpt lat="48.6931" lon="6.14183">
        <ele>337.8</ele>
        <time>2019-10-31T23:05:36.497Z</time>
      </trkpt>
      <trkpt lat="48.69314" lon="6.14145">
        <ele>337.5</ele>
        <time>2019-10-31T23:05:40.857Z</time>
      </trkpt>
      <trkpt lat="48.69317" lon="6.14111">
        <ele>337</ele>
        <time>2019-10-31T23:05:44.613Z</time>
      </trkpt>
      <trkpt lat="48.69323" lon="6.14077">
        <ele>337.1</ele>
        <time>2019-10-31T23:05:48.512Z</time>
      </trkpt>
      <trkpt lat="48.69326" lon="6.14042">
        <ele>337.2</ele>
        <time>2019-10-31T23:05:52.470Z</time>
      </trkpt>
      <trkpt lat="48.69329" lon="6.14005">
        <ele>335.8</ele>
        <time>2019-10-31T23:05:56.603Z</time>
      </trkpt>
      <trkpt lat="48.69334" lon="6.13966">
        <ele>335.8</ele>
        <time>2019-10-31T23:06:00.999Z</time>
      </trkpt>
      <trkpt lat="48.69338" lon="6.13926">
        <ele>341.6</ele>
        <time>2019-10-31T23:06:05.534Z</time>
      </trkpt>
      <trkpt lat="48.69347" lon="6.13889">
        <ele>341.6</ele>
        <time>2019-10-31T23:06:09.887Z</time>
      </trkpt>
      <trkpt lat="48.69354" lon="6.13847">
        <ele>341.7</ele>
        <time>2019-10-31T23:06:14.622Z</time>
      </trkpt>
      <trkpt lat="48.69354" lon="6.13809">
        <ele>335.1</ele>
        <time>2019-10-31T23:06:18.888Z</time>
      </trkpt>
      <trkpt lat="48.69357" lon="6.13772">
        <ele>330.8</ele>
        <time>2019-10-31T23:06:22.959Z</time>
      </trkpt>
      <trkpt lat="48.69362" lon="6.1374">
        <ele>330.8</ele>
        <time>2019-10-31T23:06:26.669Z</time>
      </trkpt>
      <trkpt lat="48.69368" lon="6.13707">
        <ele>331.1</ele>
        <time>2019-10-31T23:06:30.433Z</time>
      </trkpt>
      <trkpt lat="48.6937" lon="6.13673">
        <ele>331.1</ele>
        <time>2019-10-31T23:06:34.274Z</time>
      </trkpt>
      <trkpt lat="48.69374" lon="6.13636">
        <ele>330.5</ele>
        <time>2019-10-31T23:06:38.453Z</time>
      </trkpt>
      <trkpt lat="48.69376" lon="6.13612">
        <ele>330.5</ele>
        <time>2019-10-31T23:06:41.146Z</time>
      </trkpt>
      <trkpt lat="48.69374" lon="6.13583">
        <ele>330.8</ele>
        <time>2019-10-31T23:06:44.277Z</time>
      </trkpt>
      <trkpt lat="48.69376" lon="6.13567">
        <ele>331.2</ele>
        <time>2019-10-31T23:06:46.082Z</time>
      </trkpt>
      <trkpt lat="48.69375" lon="6.13558">
        <ele>331.4</ele>
        <time>2019-10-31T23:06:47.166Z</time>
      </trkpt>
      <trkpt lat="48.69373" lon="6.13557">
        <ele>330.8</ele>
        <time>2019-10-31T23:06:47.492Z</time>
      </trkpt>
      <trkpt lat="48.69373" lon="6.13548">
        <ele>328.3</ele>
        <time>2019-10-31T23:06:48.504Z</time>
      </trkpt>
      <trkpt lat="48.6938" lon="6.13535">
        <ele>329.2</ele>
        <time>2019-10-31T23:06:50.390Z</time>
      </trkpt>
      <trkpt lat="48.69392" lon="6.13522">
        <ele>329.8</ele>
        <time>2019-10-31T23:06:52.810Z</time>
      </trkpt>
      <trkpt lat="48.69402" lon="6.13517">
        <ele>330.1</ele>
        <time>2019-10-31T23:06:54.542Z</time>
      </trkpt>
      <trkpt lat="48.69407" lon="6.13497">
        <ele>330.4</ele>
        <time>2019-10-31T23:06:56.922Z</time>
      </trkpt>
      <trkpt lat="48.69409" lon="6.13474">
        <ele>330.8</ele>
        <time>2019-10-31T23:06:59.455Z</time>
      </trkpt>
      <trkpt lat="48.6941" lon="6.13449">
        <ele>331.9</ele>
        <time>2019-10-31T23:07:02.292Z</time>
      </trkpt>
      <trkpt lat="48.69408" lon="6.13423">
        <ele>333.1</ele>
        <time>2019-10-31T23:07:05.176Z</time>
      </trkpt>
      <trkpt lat="48.69407" lon="6.13394">
        <ele>333.5</ele>
        <time>2019-10-31T23:07:08.433Z</time>
      </trkpt>
      <trkpt lat="48.69408" lon="6.13366">
        <ele>334.4</ele>
        <time>2019-10-31T23:07:11.456Z</time>
      </trkpt>
      <trkpt lat="48.69409" lon="6.13342">
        <ele>335.7</ele>
        <time>2019-10-31T23:07:14.203Z</time>
      </trkpt>
      <trkpt lat="48.69413" lon="6.13314">
        <ele>335.8</ele>
        <time>2019-10-31T23:07:17.384Z</time>
      </trkpt>
      <trkpt lat="48.69412" lon="6.13298">
        <ele>336.7</ele>
        <time>2019-10-31T23:07:19.198Z</time>
      </trkpt>
      <trkpt lat="48.69416" lon="6.13272">
        <ele>336.7</ele>
        <time>2019-10-31T23:07:22.097Z</time>
      </trkpt>
      <trkpt lat="48.69417" lon="6.13247">
        <ele>337.7</ele>
        <time>2019-10-31T23:07:24.921Z</time>
      </trkpt>
      <trkpt lat="48.69421" lon="6.13227">
        <ele>338.1</ele>
        <time>2019-10-31T23:07:27.230Z</time>
      </trkpt>
      <trkpt lat="48.69427" lon="6.13204">
        <ele>338.1</ele>
        <time>2019-10-31T23:07:29.937Z</time>
      </trkpt>
      <trkpt lat="48.69435" lon="6.13178">
        <ele>339.2</ele>
        <time>2019-10-31T23:07:33.193Z</time>
      </trkpt>
      <trkpt lat="48.69452" lon="6.13172">
        <ele>340.1</ele>
        <time>2019-10-31T23:07:36.021Z</time>
      </trkpt>
      <trkpt lat="48.6947" lon="6.13178">
        <ele>340.1</ele>
        <time>2019-10-31T23:07:39.166Z</time>
      </trkpt>
      <trkpt lat="48.69498" lon="6.13185">
        <ele>338.3</ele>
        <time>2019-10-31T23:07:43.873Z</time>
      </trkpt>
      <trkpt lat="48.69528" lon="6.13189">
        <ele>337</ele>
        <time>2019-10-31T23:07:49.070Z</time>
      </trkpt>
      <trkpt lat="48.6956" lon="6.13184">
        <ele>336.4</ele>
        <time>2019-10-31T23:07:54.384Z</time>
      </trkpt>
      <trkpt lat="48.69582" lon="6.13172">
        <ele>337.3</ele>
        <time>2019-10-31T23:07:58.387Z</time>
      </trkpt>
      <trkpt lat="48.696" lon="6.13159">
        <ele>337.4</ele>
        <time>2019-10-31T23:08:01.745Z</time>
      </trkpt>
      <trkpt lat="48.69618" lon="6.13137">
        <ele>338.5</ele>
        <time>2019-10-31T23:08:05.656Z</time>
      </trkpt>
      <trkpt lat="48.69631" lon="6.13118">
        <ele>339.6</ele>
        <time>2019-10-31T23:08:08.651Z</time>
      </trkpt>
      <trkpt lat="48.69648" lon="6.13107">
        <ele>340.2</ele>
        <time>2019-10-31T23:08:11.671Z</time>
      </trkpt>
      <trkpt lat="48.6966" lon="6.1309">
        <ele>341.1</ele>
        <time>2019-10-31T23:08:14.512Z</time>
      </trkpt>
      <trkpt lat="48.69679" lon="6.131">
        <ele>340.9</ele>
        <time>2019-10-31T23:08:17.894Z</time>
      </trkpt>
      <trkpt lat="48.69694" lon="6.13122">
        <ele>340.6</ele>
        <time>2019-10-31T23:08:21.330Z</time>
      </trkpt>
      <trkpt lat="48.69709" lon="6.1314">
        <ele>341.8</ele>
        <time>2019-10-31T23:08:24.635Z</time>
      </trkpt>
      <trkpt lat="48.69722" lon="6.13157">
        <ele>341.6</ele>
        <time>2019-10-31T23:08:27.531Z</time>
      </trkpt>
      <trkpt lat="48.69738" lon="6.13172">
        <ele>342.1</ele>
        <time>2019-10-31T23:08:30.598Z</time>
      </trkpt>
      <trkpt lat="48.6975" lon="6.13192">
        <ele>343.1</ele>
        <time>2019-10-31T23:08:33.609Z</time>
      </trkpt>
      <trkpt lat="48.69764" lon="6.13209">
        <ele>343.8</ele>
        <time>2019-10-31T23:08:36.626Z</time>
      </trkpt>
      <trkpt lat="48.69778" lon="6.13222">
        <ele>343.8</ele>
        <time>2019-10-31T23:08:39.506Z</time>
      </trkpt>
      <trkpt lat="48.69802" lon="6.13228">
        <ele>345.4</ele>
        <time>2019-10-31T23:08:43.566Z</time>
      </trkpt>
      <trkpt lat="48.69821" lon="6.13233">
        <ele>345.7</ele>
        <time>2019-10-31T23:08:46.744Z</time>
      </trkpt>
      <trkpt lat="48.69844" lon="6.13234">
        <ele>346.4</ele>
        <time>2019-10-31T23:08:50.682Z</time>
      </trkpt>
      <trkpt lat="48.69864" lon="6.13233">
        <ele>347.5</ele>
        <time>2019-10-31T23:08:54.015Z</time>
      </trkpt>
      <trkpt lat="48.69889" lon="6.13224">
        <ele>346.9</ele>
        <time>2019-10-31T23:08:58.288Z</time>
      </trkpt>
      <trkpt lat="48.69909" lon="6.13219">
        <ele>346.8</ele>
        <time>2019-10-31T23:09:01.774Z</time>
      </trkpt>
      <trkpt lat="48.69929" lon="6.13197">
        <ele>347.3</ele>
        <time>2019-10-31T23:09:05.885Z</time>
      </trkpt>
      <trkpt lat="48.69945" lon="6.13177">
        <ele>348</ele>
        <time>2019-10-31T23:09:09.284Z</time>
      </trkpt>
      <trkpt lat="48.6996" lon="6.13157">
        <ele>348.5</ele>
        <time>2019-10-31T23:09:12.745Z</time>
      </trkpt>
      <trkpt lat="48.6997" lon="6.13141">
        <ele>348.7</ele>
        <time>2019-10-31T23:09:15.167Z</time>
      </trkpt>
      <trkpt lat="48.69977" lon="6.13123">
        <ele>348.9</ele>
        <time>2019-10-31T23:09:17.530Z</time>
      </trkpt>
      <trkpt lat="48.69986" lon="6.13086">
        <ele>350.2</ele>
        <time>2019-10-31T23:09:21.906Z</time>
      </trkpt>
      <trkpt lat="48.69995" lon="6.13054">
        <ele>351.7</ele>
        <time>2019-10-31T23:09:25.698Z</time>
      </trkpt>
      <trkpt lat="48.70001" lon="6.13026">
        <ele>351.9</ele>
        <time>2019-10-31T23:09:28.977Z</time>
      </trkpt>
      <trkpt lat="48.70003" lon="6.12999">
        <ele>351.8</ele>
        <time>2019-10-31T23:09:32.041Z</time>
      </trkpt>
      <trkpt lat="48.7002" lon="6.1299">
        <ele>351.8</ele>
        <time>2019-10-31T23:09:35.010Z</time>
      </trkpt>
      <trkpt lat="48.7004" lon="6.12999">
        <ele>352.2</ele>
        <time>2019-10-31T23:09:38.561Z</time>
      </trkpt>
      <trkpt lat="48.70061" lon="6.13008">
        <ele>352.2</ele>
        <time>2019-10-31T23:09:42.302Z</time>
      </trkpt>
      <trkpt lat="48.7008" lon="6.13012">
        <ele>352.7</ele>
        <time>2019-10-31T23:09:45.418Z</time>
      </trkpt>
      <trkpt lat="48.70099" lon="6.13012">
        <ele>352.7</ele>
        <time>2019-10-31T23:09:48.681Z</time>
      </trkpt>
      <trkpt lat="48.70118" lon="6.13018">
        <ele>353.8</ele>
        <time>2019-10-31T23:09:51.950Z</time>
      </trkpt>
      <trkpt lat="48.70136" lon="6.13023">
        <ele>354</ele>
        <time>2019-10-31T23:09:55.018Z</time>
      </trkpt>
      <trkpt lat="48.70154" lon="6.13026">
        <ele>355.9</ele>
        <time>2019-10-31T23:09:58.030Z</time>
      </trkpt>
      <trkpt lat="48.70172" lon="6.13029">
        <ele>356.7</ele>
        <time>2019-10-31T23:10:01.006Z</time>
      </trkpt>
      <trkpt lat="48.7019" lon="6.13026">
        <ele>356.7</ele>
        <time>2019-10-31T23:10:04.027Z</time>
      </trkpt>
      <trkpt lat="48.70206" lon="6.13029">
        <ele>358.1</ele>
        <time>2019-10-31T23:10:06.800Z</time>
      </trkpt>
      <trkpt lat="48.70223" lon="6.1303">
        <ele>358.8</ele>
        <time>2019-10-31T23:10:09.595Z</time>
      </trkpt>
      <trkpt lat="48.70238" lon="6.13024">
        <ele>358.8</ele>
        <time>2019-10-31T23:10:12.248Z</time>
      </trkpt>
      <trkpt lat="48.70251" lon="6.13013">
        <ele>359.9</ele>
        <time>2019-10-31T23:10:14.691Z</time>
      </trkpt>
      <trkpt lat="48.70257" lon="6.13033">
        <ele>361</ele>
        <time>2019-10-31T23:10:17.124Z</time>
      </trkpt>
      <trkpt lat="48.70268" lon="6.13047">
        <ele>361</ele>
        <time>2019-10-31T23:10:19.542Z</time>
      </trkpt>
      <trkpt lat="48.70279" lon="6.13045">
        <ele>361</ele>
        <time>2019-10-31T23:10:21.493Z</time>
      </trkpt>
      <trkpt lat="48.7029" lon="6.13038">
        <ele>362.7</ele>
        <time>2019-10-31T23:10:23.456Z</time>
      </trkpt>
      <trkpt lat="48.70302" lon="6.1303">
        <ele>362.7</ele>
        <time>2019-10-31T23:10:25.709Z</time>
      </trkpt>
      <trkpt lat="48.70313" lon="6.13014">
        <ele>362.7</ele>
        <time>2019-10-31T23:10:28.273Z</time>
      </trkpt>
      <trkpt lat="48.70307" lon="6.12991">
        <ele>361.3</ele>
        <time>2019-10-31T23:10:30.990Z</time>
      </trkpt>
      <trkpt lat="48.70304" lon="6.12965">
        <ele>360.8</ele>
        <time>2019-10-31T23:10:33.881Z</time>
      </trkpt>
      <trkpt lat="48.70305" lon="6.12948">
        <ele>360.7</ele>
        <time>2019-10-31T23:10:35.849Z</time>
      </trkpt>
      <trkpt lat="48.70299" lon="6.12926">
        <ele>360.7</ele>
        <time>2019-10-31T23:10:38.504Z</time>
      </trkpt>
      <trkpt lat="48.7029" lon="6.12904">
        <ele>361.2</ele>
        <time>2019-10-31T23:10:41.335Z</time>
      </trkpt>
      <trkpt lat="48.7028" lon="6.12875">
        <ele>360.8</ele>
        <time>2019-10-31T23:10:44.947Z</time>
      </trkpt>
      <trkpt lat="48.70267" lon="6.12848">
        <ele>360.8</ele>
        <time>2019-10-31T23:10:48.600Z</time>
      </trkpt>
      <trkpt lat="48.70262" lon="6.12819">
        <ele>361.3</ele>
        <time>2019-10-31T23:10:52.007Z</time>
      </trkpt>
      <trkpt lat="48.70252" lon="6.12791">
        <ele>360.2</ele>
        <time>2019-10-31T23:10:55.504Z</time>
      </trkpt>
      <trkpt lat="48.70244" lon="6.12762">
        <ele>359.9</ele>
        <time>2019-10-31T23:10:58.976Z</time>
      </trkpt>
      <trkpt lat="48.70234" lon="6.12734">
        <ele>359.9</ele>
        <time>2019-10-31T23:11:02.612Z</time>
      </trkpt>
      <trkpt lat="48.70221" lon="6.12704">
        <ele>359.1</ele>
        <time>2019-10-31T23:11:06.457Z</time>
      </trkpt>
      <trkpt lat="48.70212" lon="6.1268">
        <ele>359.4</ele>
        <time>2019-10-31T23:11:09.514Z</time>
      </trkpt>
      <trkpt lat="48.70199" lon="6.12655">
        <ele>358.7</ele>
        <time>2019-10-31T23:11:13.038Z</time>
      </trkpt>
      <trkpt lat="48.70188" lon="6.12625">
        <ele>358.2</ele>
        <time>2019-10-31T23:11:16.955Z</time>
      </trkpt>
      <trkpt lat="48.70175" lon="6.126">
        <ele>358.2</ele>
        <time>2019-10-31T23:11:20.432Z</time>
      </trkpt>
      <trkpt lat="48.70162" lon="6.12572">
        <ele>357.7</ele>
        <time>2019-10-31T23:11:24.270Z</time>
      </trkpt>
      <trkpt lat="48.7015" lon="6.12542">
        <ele>357.7</ele>
        <time>2019-10-31T23:11:28.109Z</time>
      </trkpt>
      <trkpt lat="48.70138" lon="6.12517">
        <ele>356.8</ele>
        <time>2019-10-31T23:11:31.558Z</time>
      </trkpt>
      <trkpt lat="48.70124" lon="6.12493">
        <ele>356.8</ele>
        <time>2019-10-31T23:11:35.061Z</time>
      </trkpt>
      <trkpt lat="48.70114" lon="6.12466">
        <ele>355.4</ele>
        <time>2019-10-31T23:11:38.585Z</time>
      </trkpt>
      <trkpt lat="48.70099" lon="6.12439">
        <ele>355.4</ele>
        <time>2019-10-31T23:11:42.447Z</time>
      </trkpt>
      <trkpt lat="48.70088" lon="6.12412">
        <ele>354.9</ele>
        <time>2019-10-31T23:11:46.024Z</time>
      </trkpt>
      <trkpt lat="48.70074" lon="6.12382">
        <ele>354.6</ele>
        <time>2019-10-31T23:11:50.078Z</time>
      </trkpt>
      <trkpt lat="48.70062" lon="6.12354">
        <ele>354.2</ele>
        <time>2019-10-31T23:11:53.721Z</time>
      </trkpt>
      <trkpt lat="48.70046" lon="6.12326">
        <ele>354.2</ele>
        <time>2019-10-31T23:11:57.836Z</time>
      </trkpt>
      <trkpt lat="48.70033" lon="6.123">
        <ele>353.4</ele>
        <time>2019-10-31T23:12:01.492Z</time>
      </trkpt>
      <trkpt lat="48.7002" lon="6.1227">
        <ele>353.4</ele>
        <time>2019-10-31T23:12:05.468Z</time>
      </trkpt>
      <trkpt lat="48.70005" lon="6.12244">
        <ele>352.1</ele>
        <time>2019-10-31T23:12:09.382Z</time>
      </trkpt>
      <trkpt lat="48.69988" lon="6.12217">
        <ele>351.1</ele>
        <time>2019-10-31T23:12:13.505Z</time>
      </trkpt>
      <trkpt lat="48.69973" lon="6.12191">
        <ele>351.1</ele>
        <time>2019-10-31T23:12:17.347Z</time>
      </trkpt>
      <trkpt lat="48.6996" lon="6.12164">
        <ele>350.8</ele>
        <time>2019-10-31T23:12:20.957Z</time>
      </trkpt>
      <trkpt lat="48.69943" lon="6.12134">
        <ele>349.7</ele>
        <time>2019-10-31T23:12:25.383Z</time>
      </trkpt>
      <trkpt lat="48.69931" lon="6.12106">
        <ele>348.9</ele>
        <time>2019-10-31T23:12:29.053Z</time>
      </trkpt>
      <trkpt lat="48.69913" lon="6.12074">
        <ele>348</ele>
        <time>2019-10-31T23:12:33.698Z</time>
      </trkpt>
      <trkpt lat="48.69897" lon="6.12046">
        <ele>346.9</ele>
        <time>2019-10-31T23:12:37.921Z</time>
      </trkpt>
      <trkpt lat="48.69877" lon="6.12019">
        <ele>346.2</ele>
        <time>2019-10-31T23:12:42.417Z</time>
      </trkpt>
      <trkpt lat="48.6986" lon="6.11991">
        <ele>346.2</ele>
        <time>2019-10-31T23:12:46.673Z</time>
      </trkpt>
      <trkpt lat="48.69844" lon="6.11958">
        <ele>345</ele>
        <time>2019-10-31T23:12:51.230Z</time>
      </trkpt>
      <trkpt lat="48.69827" lon="6.11924">
        <ele>343.9</ele>
        <time>2019-10-31T23:12:55.956Z</time>
      </trkpt>
      <trkpt lat="48.69807" lon="6.11889">
        <ele>341.6</ele>
        <time>2019-10-31T23:13:00.982Z</time>
      </trkpt>
      <trkpt lat="48.69787" lon="6.11854">
        <ele>340.5</ele>
        <time>2019-10-31T23:13:06.142Z</time>
      </trkpt>
      <trkpt lat="48.69771" lon="6.1182">
        <ele>337.5</ele>
        <time>2019-10-31T23:13:10.796Z</time>
      </trkpt>
      <trkpt lat="48.69754" lon="6.11779">
        <ele>336.5</ele>
        <time>2019-10-31T23:13:16.190Z</time>
      </trkpt>
      <trkpt lat="48.69736" lon="6.1174">
        <ele>335.2</ele>
        <time>2019-10-31T23:13:21.522Z</time>
      </trkpt>
      <trkpt lat="48.69717" lon="6.117">
        <ele>332.9</ele>
        <time>2019-10-31T23:13:26.976Z</time>
      </trkpt>
      <trkpt lat="48.69701" lon="6.11655">
        <ele>331.8</ele>
        <time>2019-10-31T23:13:32.595Z</time>
      </trkpt>
      <trkpt lat="48.69686" lon="6.11611">
        <ele>329.3</ele>
        <time>2019-10-31T23:13:38.125Z</time>
      </trkpt>
      <trkpt lat="48.69668" lon="6.11568">
        <ele>328</ele>
        <time>2019-10-31T23:13:43.777Z</time>
      </trkpt>
      <trkpt lat="48.69653" lon="6.11526">
        <ele>326.7</ele>
        <time>2019-10-31T23:13:49.065Z</time>
      </trkpt>
      <trkpt lat="48.69641" lon="6.11484">
        <ele>325.5</ele>
        <time>2019-10-31T23:13:54.173Z</time>
      </trkpt>
      <trkpt lat="48.69626" lon="6.1144">
        <ele>324.4</ele>
        <time>2019-10-31T23:13:59.653Z</time>
      </trkpt>
      <trkpt lat="48.69612" lon="6.114">
        <ele>323.3</ele>
        <time>2019-10-31T23:14:04.693Z</time>
      </trkpt>
      <trkpt lat="48.69595" lon="6.11361">
        <ele>323</ele>
        <time>2019-10-31T23:14:09.790Z</time>
      </trkpt>
      <trkpt lat="48.69582" lon="6.11326">
        <ele>321.6</ele>
        <time>2019-10-31T23:14:14.341Z</time>
      </trkpt>
      <trkpt lat="48.69572" lon="6.11289">
        <ele>320.6</ele>
        <time>2019-10-31T23:14:18.750Z</time>
      </trkpt>
      <trkpt lat="48.69558" lon="6.11253">
        <ele>319.8</ele>
        <time>2019-10-31T23:14:23.451Z</time>
      </trkpt>
      <trkpt lat="48.69548" lon="6.11216">
        <ele>319.2</ele>
        <time>2019-10-31T23:14:27.848Z</time>
      </trkpt>
      <trkpt lat="48.69542" lon="6.11177">
        <ele>319.2</ele>
        <time>2019-10-31T23:14:32.241Z</time>
      </trkpt>
      <trkpt lat="48.69533" lon="6.1114">
        <ele>318.2</ele>
        <time>2019-10-31T23:14:36.650Z</time>
      </trkpt>
      <trkpt lat="48.69526" lon="6.11102">
        <ele>318.2</ele>
        <time>2019-10-31T23:14:41.027Z</time>
      </trkpt>
      <trkpt lat="48.69517" lon="6.11062">
        <ele>315.2</ele>
        <time>2019-10-31T23:14:45.703Z</time>
      </trkpt>
      <trkpt lat="48.69509" lon="6.11023">
        <ele>314.1</ele>
        <time>2019-10-31T23:14:50.300Z</time>
      </trkpt>
      <trkpt lat="48.69502" lon="6.10979">
        <ele>314.1</ele>
        <time>2019-10-31T23:14:55.296Z</time>
      </trkpt>
      <trkpt lat="48.69496" lon="6.10935">
        <ele>312.9</ele>
        <time>2019-10-31T23:15:00.299Z</time>
      </trkpt>
      <trkpt lat="48.69489" lon="6.10891">
        <ele>311.6</ele>
        <time>2019-10-31T23:15:05.343Z</time>
      </trkpt>
      <trkpt lat="48.69487" lon="6.10839">
        <ele>310.5</ele>
        <time>2019-10-31T23:15:11.104Z</time>
      </trkpt>
      <trkpt lat="48.69483" lon="6.10786">
        <ele>309.5</ele>
        <time>2019-10-31T23:15:17.006Z</time>
      </trkpt>
      <trkpt lat="48.69481" lon="6.10741">
        <ele>308.1</ele>
        <time>2019-10-31T23:15:21.980Z</time>
      </trkpt>
      <trkpt lat="48.69478" lon="6.10695">
        <ele>306.7</ele>
        <time>2019-10-31T23:15:27.120Z</time>
      </trkpt>
      <trkpt lat="48.69476" lon="6.10653">
        <ele>307.3</ele>
        <time>2019-10-31T23:15:31.853Z</time>
      </trkpt>
      <trkpt lat="48.69476" lon="6.10614">
        <ele>306.2</ele>
        <time>2019-10-31T23:15:36.161Z</time>
      </trkpt>
      <trkpt lat="48.69477" lon="6.10577">
        <ele>305</ele>
        <time>2019-10-31T23:15:40.249Z</time>
      </trkpt>
      <trkpt lat="48.69475" lon="6.10538">
        <ele>304</ele>
        <time>2019-10-31T23:15:44.642Z</time>
      </trkpt>
      <trkpt lat="48.69473" lon="6.10511">
        <ele>303.7</ele>
        <time>2019-10-31T23:15:47.634Z</time>
      </trkpt>
      <trkpt lat="48.69474" lon="6.10472">
        <ele>303.7</ele>
        <time>2019-10-31T23:15:51.933Z</time>
      </trkpt>
      <trkpt lat="48.69482" lon="6.10443">
        <ele>304.7</ele>
        <time>2019-10-31T23:15:55.487Z</time>
      </trkpt>
      <trkpt lat="48.69497" lon="6.1042">
        <ele>304.2</ele>
        <time>2019-10-31T23:15:58.963Z</time>
      </trkpt>
      <trkpt lat="48.6952" lon="6.10411">
        <ele>304.2</ele>
        <time>2019-10-31T23:16:02.956Z</time>
      </trkpt>
      <trkpt lat="48.69532" lon="6.10388">
        <ele>305.3</ele>
        <time>2019-10-31T23:16:06.262Z</time>
      </trkpt>
      <trkpt lat="48.69535" lon="6.10357">
        <ele>306.4</ele>
        <time>2019-10-31T23:16:09.765Z</time>
      </trkpt>
      <trkpt lat="48.6954" lon="6.10324">
        <ele>306.2</ele>
        <time>2019-10-31T23:16:13.557Z</time>
      </trkpt>
      <trkpt lat="48.69544" lon="6.10288">
        <ele>305.5</ele>
        <time>2019-10-31T23:16:17.539Z</time>
      </trkpt>
      <trkpt lat="48.69545" lon="6.10252">
        <ele>305.3</ele>
        <time>2019-10-31T23:16:21.511Z</time>
      </trkpt>
      <trkpt lat="48.69541" lon="6.1022">
        <ele>305.2</ele>
        <time>2019-10-31T23:16:25.141Z</time>
      </trkpt>
      <trkpt lat="48.69532" lon="6.10191">
        <ele>305.2</ele>
        <time>2019-10-31T23:16:28.684Z</time>
      </trkpt>
      <trkpt lat="48.69527" lon="6.10162">
        <ele>305</ele>
        <time>2019-10-31T23:16:32.112Z</time>
      </trkpt>
      <trkpt lat="48.69524" lon="6.10135">
        <ele>304.8</ele>
        <time>2019-10-31T23:16:35.130Z</time>
      </trkpt>
      <trkpt lat="48.69518" lon="6.10107">
        <ele>304.9</ele>
        <time>2019-10-31T23:16:38.388Z</time>
      </trkpt>
      <trkpt lat="48.69514" lon="6.10076">
        <ele>305.1</ele>
        <time>2019-10-31T23:16:41.949Z</time>
      </trkpt>
      <trkpt lat="48.6951" lon="6.10045">
        <ele>305.3</ele>
        <time>2019-10-31T23:16:45.434Z</time>
      </trkpt>
      <trkpt lat="48.69509" lon="6.10011">
        <ele>305.5</ele>
        <time>2019-10-31T23:16:49.235Z</time>
      </trkpt>
      <trkpt lat="48.69508" lon="6.09976">
        <ele>303.8</ele>
        <time>2019-10-31T23:16:53.077Z</time>
      </trkpt>
      <trkpt lat="48.69509" lon="6.09939">
        <ele>304</ele>
        <time>2019-10-31T23:16:57.130Z</time>
      </trkpt>
      <trkpt lat="48.69507" lon="6.09902">
        <ele>303.4</ele>
        <time>2019-10-31T23:17:01.290Z</time>
      </trkpt>
      <trkpt lat="48.69504" lon="6.09869">
        <ele>303.4</ele>
        <time>2019-10-31T23:17:05.053Z</time>
      </trkpt>
      <trkpt lat="48.69503" lon="6.09838">
        <ele>302.9</ele>
        <time>2019-10-31T23:17:08.477Z</time>
      </trkpt>
      <trkpt lat="48.69498" lon="6.09805">
        <ele>303.3</ele>
        <time>2019-10-31T23:17:12.171Z</time>
      </trkpt>
      <trkpt lat="48.69494" lon="6.0978">
        <ele>304.5</ele>
        <time>2019-10-31T23:17:15.085Z</time>
      </trkpt>
      <trkpt lat="48.6949" lon="6.09755">
        <ele>304.7</ele>
        <time>2019-10-31T23:17:17.925Z</time>
      </trkpt>
      <trkpt lat="48.69481" lon="6.09722">
        <ele>304.7</ele>
        <time>2019-10-31T23:17:21.872Z</time>
      </trkpt>
      <trkpt lat="48.69474" lon="6.09697">
        <ele>305.6</ele>
        <time>2019-10-31T23:17:24.843Z</time>
      </trkpt>
      <trkpt lat="48.69467" lon="6.09681">
        <ele>307</ele>
        <time>2019-10-31T23:17:26.947Z</time>
      </trkpt>
      <trkpt lat="48.69462" lon="6.09658">
        <ele>307.5</ele>
        <time>2019-10-31T23:17:29.704Z</time>
      </trkpt>
      <trkpt lat="48.69462" lon="6.09633">
        <ele>308.3</ele>
        <time>2019-10-31T23:17:32.491Z</time>
      </trkpt>
      <trkpt lat="48.69453" lon="6.09607">
        <ele>309.2</ele>
        <time>2019-10-31T23:17:35.705Z</time>
      </trkpt>
      <trkpt lat="48.69448" lon="6.09586">
        <ele>309.2</ele>
        <time>2019-10-31T23:17:38.203Z</time>
      </trkpt>
      <trkpt lat="48.69441" lon="6.09559">
        <ele>310.4</ele>
        <time>2019-10-31T23:17:41.391Z</time>
      </trkpt>
      <trkpt lat="48.69441" lon="6.09528">
        <ele>310</ele>
        <time>2019-10-31T23:17:44.877Z</time>
      </trkpt>
      <trkpt lat="48.69441" lon="6.09501">
        <ele>309.7</ele>
        <time>2019-10-31T23:17:47.875Z</time>
      </trkpt>
      <trkpt lat="48.6944" lon="6.09476">
        <ele>310.8</ele>
        <time>2019-10-31T23:17:50.692Z</time>
      </trkpt>
      <trkpt lat="48.69438" lon="6.09448">
        <ele>311</ele>
        <time>2019-10-31T23:17:53.798Z</time>
      </trkpt>
      <trkpt lat="48.69435" lon="6.09421">
        <ele>309.9</ele>
        <time>2019-10-31T23:17:56.849Z</time>
      </trkpt>
      <trkpt lat="48.69436" lon="6.0939">
        <ele>311</ele>
        <time>2019-10-31T23:18:00.261Z</time>
      </trkpt>
      <trkpt lat="48.69437" lon="6.09362">
        <ele>310.4</ele>
        <time>2019-10-31T23:18:03.381Z</time>
      </trkpt>
      <trkpt lat="48.69437" lon="6.09327">
        <ele>310.4</ele>
        <time>2019-10-31T23:18:07.234Z</time>
      </trkpt>
      <trkpt lat="48.69435" lon="6.09295">
        <ele>308.9</ele>
        <time>2019-10-31T23:18:10.780Z</time>
      </trkpt>
      <trkpt lat="48.69435" lon="6.09255">
        <ele>307.4</ele>
        <time>2019-10-31T23:18:15.276Z</time>
      </trkpt>
      <trkpt lat="48.69429" lon="6.09213">
        <ele>306.8</ele>
        <time>2019-10-31T23:18:20.008Z</time>
      </trkpt>
      <trkpt lat="48.69427" lon="6.09165">
        <ele>305.6</ele>
        <time>2019-10-31T23:18:25.300Z</time>
      </trkpt>
      <trkpt lat="48.69424" lon="6.09119">
        <ele>303.1</ele>
        <time>2019-10-31T23:18:30.455Z</time>
      </trkpt>
      <trkpt lat="48.69422" lon="6.0907">
        <ele>301.8</ele>
        <time>2019-10-31T23:18:35.932Z</time>
      </trkpt>
      <trkpt lat="48.69423" lon="6.0902">
        <ele>300.6</ele>
        <time>2019-10-31T23:18:41.433Z</time>
      </trkpt>
      <trkpt lat="48.69424" lon="6.08974">
        <ele>299.6</ele>
        <time>2019-10-31T23:18:46.630Z</time>
      </trkpt>
      <trkpt lat="48.69424" lon="6.08926">
        <ele>298.6</ele>
        <time>2019-10-31T23:18:51.893Z</time>
      </trkpt>
      <trkpt lat="48.69422" lon="6.08885">
        <ele>297.5</ele>
        <time>2019-10-31T23:18:56.468Z</time>
      </trkpt>
      <trkpt lat="48.69421" lon="6.08844">
        <ele>297.2</ele>
        <time>2019-10-31T23:19:00.998Z</time>
      </trkpt>
      <trkpt lat="48.6942" lon="6.08808">
        <ele>296.6</ele>
        <time>2019-10-31T23:19:05.067Z</time>
      </trkpt>
      <trkpt lat="48.69417" lon="6.08778">
        <ele>297.4</ele>
        <time>2019-10-31T23:19:08.465Z</time>
      </trkpt>
      <trkpt lat="48.69414" lon="6.08748">
        <ele>297.4</ele>
        <time>2019-10-31T23:19:11.738Z</time>
      </trkpt>
      <trkpt lat="48.69414" lon="6.08717">
        <ele>297.4</ele>
        <time>2019-10-31T23:19:15.204Z</time>
      </trkpt>
      <trkpt lat="48.69413" lon="6.08692">
        <ele>298.6</ele>
        <time>2019-10-31T23:19:18.062Z</time>
      </trkpt>
      <trkpt lat="48.69411" lon="6.08669">
        <ele>299.7</ele>
        <time>2019-10-31T23:19:20.583Z</time>
      </trkpt>
      <trkpt lat="48.69413" lon="6.08646">
        <ele>299.7</ele>
        <time>2019-10-31T23:19:23.173Z</time>
      </trkpt>
      <trkpt lat="48.69413" lon="6.08627">
        <ele>301.2</ele>
        <time>2019-10-31T23:19:25.260Z</time>
      </trkpt>
      <trkpt lat="48.69412" lon="6.08608">
        <ele>302.3</ele>
        <time>2019-10-31T23:19:27.425Z</time>
      </trkpt>
      <trkpt lat="48.69411" lon="6.08588">
        <ele>303.1</ele>
        <time>2019-10-31T23:19:29.616Z</time>
      </trkpt>
      <trkpt lat="48.69411" lon="6.08568">
        <ele>303.1</ele>
        <time>2019-10-31T23:19:31.870Z</time>
      </trkpt>
      <trkpt lat="48.69413" lon="6.08549">
        <ele>305.3</ele>
        <time>2019-10-31T23:19:34.012Z</time>
      </trkpt>
      <trkpt lat="48.69413" lon="6.08532">
        <ele>305.5</ele>
        <time>2019-10-31T23:19:35.878Z</time>
      </trkpt>
      <trkpt lat="48.6941" lon="6.08516">
        <ele>306</ele>
        <time>2019-10-31T23:19:37.670Z</time>
      </trkpt>
      <trkpt lat="48.6941" lon="6.085">
        <ele>306.8</ele>
        <time>2019-10-31T23:19:39.480Z</time>
      </trkpt>
      <trkpt lat="48.69409" lon="6.08481">
        <ele>307.9</ele>
        <time>2019-10-31T23:19:41.629Z</time>
      </trkpt>
      <trkpt lat="48.69411" lon="6.08465">
        <ele>308.2</ele>
        <time>2019-10-31T23:19:43.456Z</time>
      </trkpt>
      <trkpt lat="48.69411" lon="6.08446">
        <ele>309.3</ele>
        <time>2019-10-31T23:19:45.501Z</time>
      </trkpt>
      <trkpt lat="48.69411" lon="6.0843">
        <ele>310</ele>
        <time>2019-10-31T23:19:47.256Z</time>
      </trkpt>
      <trkpt lat="48.69409" lon="6.08412">
        <ele>310.3</ele>
        <time>2019-10-31T23:19:49.368Z</time>
      </trkpt>
      <trkpt lat="48.69408" lon="6.08391">
        <ele>311.6</ele>
        <time>2019-10-31T23:19:51.648Z</time>
      </trkpt>
      <trkpt lat="48.69408" lon="6.0837">
        <ele>312.4</ele>
        <time>2019-10-31T23:19:53.972Z</time>
      </trkpt>
      <trkpt lat="48.69408" lon="6.08358">
        <ele>312.4</ele>
        <time>2019-10-31T23:19:55.349Z</time>
      </trkpt>
      <trkpt lat="48.69408" lon="6.08343">
        <ele>313.4</ele>
        <time>2019-10-31T23:19:56.992Z</time>
      </trkpt>
      <trkpt lat="48.69406" lon="6.08325">
        <ele>314.4</ele>
        <time>2019-10-31T23:19:58.975Z</time>
      </trkpt>
      <trkpt lat="48.69407" lon="6.08303">
        <ele>314.8</ele>
        <time>2019-10-31T23:20:01.440Z</time>
      </trkpt>
      <trkpt lat="48.69408" lon="6.08289">
        <ele>315.4</ele>
        <time>2019-10-31T23:20:03.013Z</time>
      </trkpt>
      <trkpt lat="48.6941" lon="6.08273">
        <ele>316.6</ele>
        <time>2019-10-31T23:20:04.878Z</time>
      </trkpt>
      <trkpt lat="48.69408" lon="6.08251">
        <ele>317.7</ele>
        <time>2019-10-31T23:20:07.322Z</time>
      </trkpt>
      <trkpt lat="48.69405" lon="6.08235">
        <ele>318.6</ele>
        <time>2019-10-31T23:20:09.204Z</time>
      </trkpt>
      <trkpt lat="48.69403" lon="6.08216">
        <ele>319.9</ele>
        <time>2019-10-31T23:20:11.244Z</time>
      </trkpt>
      <trkpt lat="48.69402" lon="6.08198">
        <ele>319.9</ele>
        <time>2019-10-31T23:20:13.343Z</time>
      </trkpt>
      <trkpt lat="48.69403" lon="6.08178">
        <ele>320.6</ele>
        <time>2019-10-31T23:20:15.530Z</time>
      </trkpt>
      <trkpt lat="48.69403" lon="6.08156">
        <ele>320.6</ele>
        <time>2019-10-31T23:20:17.907Z</time>
      </trkpt>
      <trkpt lat="48.69401" lon="6.08138">
        <ele>321.2</ele>
        <time>2019-10-31T23:20:19.942Z</time>
      </trkpt>
      <trkpt lat="48.69399" lon="6.0812">
        <ele>322.6</ele>
        <time>2019-10-31T23:20:22.057Z</time>
      </trkpt>
      <trkpt lat="48.69399" lon="6.08102">
        <ele>323.4</ele>
        <time>2019-10-31T23:20:24.033Z</time>
      </trkpt>
      <trkpt lat="48.69395" lon="6.08082">
        <ele>323.4</ele>
        <time>2019-10-31T23:20:26.365Z</time>
      </trkpt>
      <trkpt lat="48.69395" lon="6.08063">
        <ele>324.5</ele>
        <time>2019-10-31T23:20:28.398Z</time>
      </trkpt>
      <trkpt lat="48.69396" lon="6.0804">
        <ele>324.2</ele>
        <time>2019-10-31T23:20:30.971Z</time>
      </trkpt>
      <trkpt lat="48.69396" lon="6.08017">
        <ele>325</ele>
        <time>2019-10-31T23:20:33.548Z</time>
      </trkpt>
      <trkpt lat="48.69396" lon="6.07997">
        <ele>325.9</ele>
        <time>2019-10-31T23:20:35.768Z</time>
      </trkpt>
      <trkpt lat="48.69394" lon="6.07979">
        <ele>325.9</ele>
        <time>2019-10-31T23:20:37.734Z</time>
      </trkpt>
      <trkpt lat="48.69392" lon="6.0796">
        <ele>326.8</ele>
        <time>2019-10-31T23:20:39.942Z</time>
      </trkpt>
      <trkpt lat="48.69389" lon="6.07936">
        <ele>326.9</ele>
        <time>2019-10-31T23:20:42.667Z</time>
      </trkpt>
      <trkpt lat="48.69388" lon="6.07911">
        <ele>327.7</ele>
        <time>2019-10-31T23:20:45.458Z</time>
      </trkpt>
      <trkpt lat="48.69387" lon="6.0789">
        <ele>327.7</ele>
        <time>2019-10-31T23:20:47.754Z</time>
      </trkpt>
      <trkpt lat="48.69389" lon="6.07867">
        <ele>328.9</ele>
        <time>2019-10-31T23:20:50.337Z</time>
      </trkpt>
      <trkpt lat="48.69391" lon="6.07847">
        <ele>328.4</ele>
        <time>2019-10-31T23:20:52.517Z</time>
      </trkpt>
      <trkpt lat="48.69389" lon="6.07827">
        <ele>329.2</ele>
        <time>2019-10-31T23:20:54.791Z</time>
      </trkpt>
      <trkpt lat="48.69387" lon="6.07807">
        <ele>329.7</ele>
        <time>2019-10-31T23:20:57.021Z</time>
      </trkpt>
      <trkpt lat="48.69385" lon="6.07786">
        <ele>330.3</ele>
        <time>2019-10-31T23:20:59.439Z</time>
      </trkpt>
      <trkpt lat="48.69384" lon="6.07767">
        <ele>330.5</ele>
        <time>2019-10-31T23:21:01.562Z</time>
      </trkpt>
      <trkpt lat="48.69381" lon="6.07749">
        <ele>332.1</ele>
        <time>2019-10-31T23:21:03.539Z</time>
      </trkpt>
      <trkpt lat="48.6938" lon="6.07727">
        <ele>331.5</ele>
        <time>2019-10-31T23:21:06.001Z</time>
      </trkpt>
      <trkpt lat="48.69377" lon="6.07702">
        <ele>332.4</ele>
        <time>2019-10-31T23:21:08.842Z</time>
      </trkpt>
      <trkpt lat="48.69375" lon="6.07683">
        <ele>333.1</ele>
        <time>2019-10-31T23:21:10.939Z</time>
      </trkpt>
      <trkpt lat="48.69371" lon="6.07662">
        <ele>333.1</ele>
        <time>2019-10-31T23:21:13.411Z</time>
      </trkpt>
      <trkpt lat="48.69371" lon="6.07642">
        <ele>334.3</ele>
        <time>2019-10-31T23:21:15.665Z</time>
      </trkpt>
      <trkpt lat="48.69372" lon="6.07621">
        <ele>334.3</ele>
        <time>2019-10-31T23:21:18.035Z</time>
      </trkpt>
      <trkpt lat="48.69372" lon="6.07601">
        <ele>333.6</ele>
        <time>2019-10-31T23:21:20.267Z</time>
      </trkpt>
      <trkpt lat="48.69371" lon="6.07583">
        <ele>334.3</ele>
        <time>2019-10-31T23:21:22.270Z</time>
      </trkpt>
      <trkpt lat="48.69369" lon="6.07563">
        <ele>335.4</ele>
        <time>2019-10-31T23:21:24.458Z</time>
      </trkpt>
      <trkpt lat="48.69365" lon="6.07543">
        <ele>335.6</ele>
        <time>2019-10-31T23:21:26.719Z</time>
      </trkpt>
      <trkpt lat="48.69366" lon="6.07518">
        <ele>336</ele>
        <time>2019-10-31T23:21:29.496Z</time>
      </trkpt>
      <trkpt lat="48.69361" lon="6.075">
        <ele>337.2</ele>
        <time>2019-10-31T23:21:31.679Z</time>
      </trkpt>
      <trkpt lat="48.69362" lon="6.07481">
        <ele>337.2</ele>
        <time>2019-10-31T23:21:33.833Z</time>
      </trkpt>
      <trkpt lat="48.69357" lon="6.07463">
        <ele>338.4</ele>
        <time>2019-10-31T23:21:35.906Z</time>
      </trkpt>
      <trkpt lat="48.69357" lon="6.07445">
        <ele>338.2</ele>
        <time>2019-10-31T23:21:37.906Z</time>
      </trkpt>
      <trkpt lat="48.69358" lon="6.07427">
        <ele>338.1</ele>
        <time>2019-10-31T23:21:39.926Z</time>
      </trkpt>
      <trkpt lat="48.69355" lon="6.07408">
        <ele>339.3</ele>
        <time>2019-10-31T23:21:42.077Z</time>
      </trkpt>
      <trkpt lat="48.69357" lon="6.07388">
        <ele>340.1</ele>
        <time>2019-10-31T23:21:44.320Z</time>
      </trkpt>
      <trkpt lat="48.69357" lon="6.07366">
        <ele>340.1</ele>
        <time>2019-10-31T23:21:46.763Z</time>
      </trkpt>
      <trkpt lat="48.69357" lon="6.07339">
        <ele>341.7</ele>
        <time>2019-10-31T23:21:49.761Z</time>
      </trkpt>
      <trkpt lat="48.6936" lon="6.0732">
        <ele>341.7</ele>
        <time>2019-10-31T23:21:51.960Z</time>
      </trkpt>
      <trkpt lat="48.69365" lon="6.07299">
        <ele>341.7</ele>
        <time>2019-10-31T23:21:54.480Z</time>
      </trkpt>
      <trkpt lat="48.6937" lon="6.0728">
        <ele>342.8</ele>
        <time>2019-10-31T23:21:56.719Z</time>
      </trkpt>
      <trkpt lat="48.69373" lon="6.0726">
        <ele>342.8</ele>
        <time>2019-10-31T23:21:59.054Z</time>
      </trkpt>
      <trkpt lat="48.69376" lon="6.07238">
        <ele>342.8</ele>
        <time>2019-10-31T23:22:01.502Z</time>
      </trkpt>
      <trkpt lat="48.69381" lon="6.07218">
        <ele>344</ele>
        <time>2019-10-31T23:22:03.874Z</time>
      </trkpt>
      <trkpt lat="48.69387" lon="6.07197">
        <ele>344</ele>
        <time>2019-10-31T23:22:06.455Z</time>
      </trkpt>
      <trkpt lat="48.69388" lon="6.0717">
        <ele>344.5</ele>
        <time>2019-10-31T23:22:09.377Z</time>
      </trkpt>
      <trkpt lat="48.69389" lon="6.0715">
        <ele>345</ele>
        <time>2019-10-31T23:22:11.647Z</time>
      </trkpt>
      <trkpt lat="48.69386" lon="6.07135">
        <ele>345.6</ele>
        <time>2019-10-31T23:22:13.393Z</time>
      </trkpt>
      <trkpt lat="48.69383" lon="6.0711">
        <ele>345.9</ele>
        <time>2019-10-31T23:22:16.236Z</time>
      </trkpt>
      <trkpt lat="48.69378" lon="6.0709">
        <ele>346.2</ele>
        <time>2019-10-31T23:22:18.550Z</time>
      </trkpt>
      <trkpt lat="48.69379" lon="6.07063">
        <ele>346.8</ele>
        <time>2019-10-31T23:22:21.543Z</time>
      </trkpt>
      <trkpt lat="48.69374" lon="6.07034">
        <ele>347.1</ele>
        <time>2019-10-31T23:22:24.918Z</time>
      </trkpt>
      <trkpt lat="48.69366" lon="6.07006">
        <ele>346.9</ele>
        <time>2019-10-31T23:22:28.292Z</time>
      </trkpt>
      <trkpt lat="48.69362" lon="6.06973">
        <ele>346.4</ele>
        <time>2019-10-31T23:22:32.053Z</time>
      </trkpt>
      <trkpt lat="48.6935" lon="6.06943">
        <ele>346.2</ele>
        <time>2019-10-31T23:22:35.929Z</time>
      </trkpt>
      <trkpt lat="48.69339" lon="6.06911">
        <ele>347.2</ele>
        <time>2019-10-31T23:22:39.899Z</time>
      </trkpt>
      <trkpt lat="48.69329" lon="6.06882">
        <ele>347.9</ele>
        <time>2019-10-31T23:22:43.578Z</time>
      </trkpt>
      <trkpt lat="48.69321" lon="6.06853">
        <ele>347.9</ele>
        <time>2019-10-31T23:22:47.061Z</time>
      </trkpt>
      <trkpt lat="48.69316" lon="6.06821">
        <ele>348.5</ele>
        <time>2019-10-31T23:22:50.704Z</time>
      </trkpt>
      <trkpt lat="48.69311" lon="6.0679">
        <ele>348.5</ele>
        <time>2019-10-31T23:22:54.206Z</time>
      </trkpt>
      <trkpt lat="48.69309" lon="6.06755">
        <ele>349.1</ele>
        <time>2019-10-31T23:22:58.159Z</time>
      </trkpt>
      <trkpt lat="48.69308" lon="6.0672">
        <ele>348</ele>
        <time>2019-10-31T23:23:01.960Z</time>
      </trkpt>
      <trkpt lat="48.69305" lon="6.06686">
        <ele>347.7</ele>
        <time>2019-10-31T23:23:05.824Z</time>
      </trkpt>
      <trkpt lat="48.69309" lon="6.06651">
        <ele>348.2</ele>
        <time>2019-10-31T23:23:09.768Z</time>
      </trkpt>
      <trkpt lat="48.69305" lon="6.06617">
        <ele>347.7</ele>
        <time>2019-10-31T23:23:13.591Z</time>
      </trkpt>
      <trkpt lat="48.69305" lon="6.06579">
        <ele>347.5</ele>
        <time>2019-10-31T23:23:17.811Z</time>
      </trkpt>
      <trkpt lat="48.69302" lon="6.06539">
        <ele>346.7</ele>
        <time>2019-10-31T23:23:22.209Z</time>
      </trkpt>
      <trkpt lat="48.69303" lon="6.06502">
        <ele>345.8</ele>
        <time>2019-10-31T23:23:26.353Z</time>
      </trkpt>
      <trkpt lat="48.69304" lon="6.06458">
        <ele>344.5</ele>
        <time>2019-10-31T23:23:31.283Z</time>
      </trkpt>
      <trkpt lat="48.69304" lon="6.06408">
        <ele>343.1</ele>
        <time>2019-10-31T23:23:36.834Z</time>
      </trkpt>
      <trkpt lat="48.69305" lon="6.06359">
        <ele>343</ele>
        <time>2019-10-31T23:23:42.187Z</time>
      </trkpt>
      <trkpt lat="48.69301" lon="6.06312">
        <ele>341.8</ele>
        <time>2019-10-31T23:23:47.547Z</time>
      </trkpt>
      <trkpt lat="48.693" lon="6.06265">
        <ele>341.2</ele>
        <time>2019-10-31T23:23:52.666Z</time>
      </trkpt>
      <trkpt lat="48.69297" lon="6.06224">
        <ele>339.9</ele>
        <time>2019-10-31T23:23:57.264Z</time>
      </trkpt>
      <trkpt lat="48.69293" lon="6.06182">
        <ele>340.3</ele>
        <time>2019-10-31T23:24:01.980Z</time>
      </trkpt>
      <trkpt lat="48.69293" lon="6.06146">
        <ele>339.7</ele>
        <time>2019-10-31T23:24:06.055Z</time>
      </trkpt>
      <trkpt lat="48.69291" lon="6.06107">
        <ele>339.1</ele>
        <time>2019-10-31T23:24:10.339Z</time>
      </trkpt>
      <trkpt lat="48.69288" lon="6.06069">
        <ele>338.6</ele>
        <time>2019-10-31T23:24:14.630Z</time>
      </trkpt>
      <trkpt lat="48.69285" lon="6.06028">
        <ele>338.6</ele>
        <time>2019-10-31T23:24:19.164Z</time>
      </trkpt>
      <trkpt lat="48.69283" lon="6.05988">
        <ele>337.2</ele>
        <time>2019-10-31T23:24:23.658Z</time>
      </trkpt>
      <trkpt lat="48.69281" lon="6.05947">
        <ele>337.2</ele>
        <time>2019-10-31T23:24:28.207Z</time>
      </trkpt>
      <trkpt lat="48.6928" lon="6.05904">
        <ele>336.4</ele>
        <time>2019-10-31T23:24:32.920Z</time>
      </trkpt>
      <trkpt lat="48.69281" lon="6.05864">
        <ele>335.5</ele>
        <time>2019-10-31T23:24:37.451Z</time>
      </trkpt>
      <trkpt lat="48.69279" lon="6.05821">
        <ele>334.8</ele>
        <time>2019-10-31T23:24:42.205Z</time>
      </trkpt>
      <trkpt lat="48.69279" lon="6.05781">
        <ele>334.8</ele>
        <time>2019-10-31T23:24:46.613Z</time>
      </trkpt>
      <trkpt lat="48.69279" lon="6.05741">
        <ele>335.7</ele>
        <time>2019-10-31T23:24:51.076Z</time>
      </trkpt>
      <trkpt lat="48.69277" lon="6.05703">
        <ele>334.3</ele>
        <time>2019-10-31T23:24:55.364Z</time>
      </trkpt>
      <trkpt lat="48.69273" lon="6.05657">
        <ele>333.3</ele>
        <time>2019-10-31T23:25:00.509Z</time>
      </trkpt>
      <trkpt lat="48.69272" lon="6.05616">
        <ele>333.1</ele>
        <time>2019-10-31T23:25:05.008Z</time>
      </trkpt>
      <trkpt lat="48.69272" lon="6.05578">
        <ele>333.6</ele>
        <time>2019-10-31T23:25:09.194Z</time>
      </trkpt>
      <trkpt lat="48.69271" lon="6.05537">
        <ele>332.5</ele>
        <time>2019-10-31T23:25:13.744Z</time>
      </trkpt>
      <trkpt lat="48.69269" lon="6.05494">
        <ele>331.2</ele>
        <time>2019-10-31T23:25:18.545Z</time>
      </trkpt>
      <trkpt lat="48.69267" lon="6.05451">
        <ele>331.2</ele>
        <time>2019-10-31T23:25:23.341Z</time>
      </trkpt>
      <trkpt lat="48.69263" lon="6.05409">
        <ele>330.3</ele>
        <time>2019-10-31T23:25:28.105Z</time>
      </trkpt>
      <trkpt lat="48.69261" lon="6.05368">
        <ele>329.2</ele>
        <time>2019-10-31T23:25:32.601Z</time>
      </trkpt>
      <trkpt lat="48.69263" lon="6.0532">
        <ele>328.1</ele>
        <time>2019-10-31T23:25:37.969Z</time>
      </trkpt>
      <trkpt lat="48.69263" lon="6.05274">
        <ele>326.7</ele>
        <time>2019-10-31T23:25:43.054Z</time>
      </trkpt>
      <trkpt lat="48.6926" lon="6.05225">
        <ele>325.4</ele>
        <time>2019-10-31T23:25:48.475Z</time>
      </trkpt>
      <trkpt lat="48.69259" lon="6.05176">
        <ele>323.7</ele>
        <time>2019-10-31T23:25:53.998Z</time>
      </trkpt>
      <trkpt lat="48.69256" lon="6.05122">
        <ele>322.6</ele>
        <time>2019-10-31T23:26:00.029Z</time>
      </trkpt>
      <trkpt lat="48.69254" lon="6.05063">
        <ele>321.6</ele>
        <time>2019-10-31T23:26:06.500Z</time>
      </trkpt>
      <trkpt lat="48.69252" lon="6.05004">
        <ele>320</ele>
        <time>2019-10-31T23:26:13.157Z</time>
      </trkpt>
      <trkpt lat="48.6925" lon="6.04952">
        <ele>318.4</ele>
        <time>2019-10-31T23:26:18.864Z</time>
      </trkpt>
      <trkpt lat="48.69247" lon="6.04903">
        <ele>318</ele>
        <time>2019-10-31T23:26:24.387Z</time>
      </trkpt>
      <trkpt lat="48.69246" lon="6.04853">
        <ele>316.5</ele>
        <time>2019-10-31T23:26:29.908Z</time>
      </trkpt>
      <trkpt lat="48.69244" lon="6.04807">
        <ele>315.1</ele>
        <time>2019-10-31T23:26:35.008Z</time>
      </trkpt>
      <trkpt lat="48.69238" lon="6.04759">
        <ele>314.6</ele>
        <time>2019-10-31T23:26:40.411Z</time>
      </trkpt>
      <trkpt lat="48.69237" lon="6.04713">
        <ele>314.7</ele>
        <time>2019-10-31T23:26:45.582Z</time>
      </trkpt>
      <trkpt lat="48.69235" lon="6.04671">
        <ele>313.7</ele>
        <time>2019-10-31T23:26:50.204Z</time>
      </trkpt>
      <trkpt lat="48.69238" lon="6.04624">
        <ele>312.5</ele>
        <time>2019-10-31T23:26:55.463Z</time>
      </trkpt>
      <trkpt lat="48.69235" lon="6.04577">
        <ele>311.5</ele>
        <time>2019-10-31T23:27:00.731Z</time>
      </trkpt>
      <trkpt lat="48.69232" lon="6.04533">
        <ele>309.2</ele>
        <time>2019-10-31T23:27:05.664Z</time>
      </trkpt>
      <trkpt lat="48.6923" lon="6.04483">
        <ele>308.5</ele>
        <time>2019-10-31T23:27:11.171Z</time>
      </trkpt>
      <trkpt lat="48.69227" lon="6.04434">
        <ele>308.1</ele>
        <time>2019-10-31T23:27:16.622Z</time>
      </trkpt>
      <trkpt lat="48.69225" lon="6.04385">
        <ele>306.1</ele>
        <time>2019-10-31T23:27:22.049Z</time>
      </trkpt>
      <trkpt lat="48.69222" lon="6.04335">
        <ele>306.1</ele>
        <time>2019-10-31T23:27:27.645Z</time>
      </trkpt>
      <trkpt lat="48.6922" lon="6.04283">
        <ele>303.9</ele>
        <time>2019-10-31T23:27:33.495Z</time>
      </trkpt>
      <trkpt lat="48.69218" lon="6.04231">
        <ele>302</ele>
        <time>2019-10-31T23:27:39.198Z</time>
      </trkpt>
      <trkpt lat="48.69217" lon="6.0419">
        <ele>302</ele>
        <time>2019-10-31T23:27:43.784Z</time>
      </trkpt>
      <trkpt lat="48.69216" lon="6.04148">
        <ele>302</ele>
        <time>2019-10-31T23:27:48.509Z</time>
      </trkpt>
      <trkpt lat="48.69216" lon="6.04107">
        <ele>302.7</ele>
        <time>2019-10-31T23:27:53.039Z</time>
      </trkpt>
      <trkpt lat="48.69216" lon="6.04065">
        <ele>302.7</ele>
        <time>2019-10-31T23:27:57.658Z</time>
      </trkpt>
      <trkpt lat="48.69213" lon="6.04027">
        <ele>301.3</ele>
        <time>2019-10-31T23:28:01.885Z</time>
      </trkpt>
      <trkpt lat="48.69208" lon="6.03999">
        <ele>300.6</ele>
        <time>2019-10-31T23:28:05.119Z</time>
      </trkpt>
      <trkpt lat="48.69204" lon="6.03956">
        <ele>300.6</ele>
        <time>2019-10-31T23:28:10.012Z</time>
      </trkpt>
      <trkpt lat="48.69204" lon="6.03916">
        <ele>300</ele>
        <time>2019-10-31T23:28:14.387Z</time>
      </trkpt>
      <trkpt lat="48.69203" lon="6.03875">
        <ele>297.5</ele>
        <time>2019-10-31T23:28:18.930Z</time>
      </trkpt>
      <trkpt lat="48.69201" lon="6.03827">
        <ele>297.5</ele>
        <time>2019-10-31T23:28:24.310Z</time>
      </trkpt>
      <trkpt lat="48.69197" lon="6.03784">
        <ele>295.8</ele>
        <time>2019-10-31T23:28:29.153Z</time>
      </trkpt>
      <trkpt lat="48.69195" lon="6.03738">
        <ele>295.4</ele>
        <time>2019-10-31T23:28:34.277Z</time>
      </trkpt>
      <trkpt lat="48.69199" lon="6.03699">
        <ele>294.4</ele>
        <time>2019-10-31T23:28:38.687Z</time>
      </trkpt>
      <trkpt lat="48.69199" lon="6.03654">
        <ele>293.2</ele>
        <time>2019-10-31T23:28:43.606Z</time>
      </trkpt>
      <trkpt lat="48.69198" lon="6.03611">
        <ele>292.3</ele>
        <time>2019-10-31T23:28:48.437Z</time>
      </trkpt>
      <trkpt lat="48.69193" lon="6.03569">
        <ele>292.7</ele>
        <time>2019-10-31T23:28:53.195Z</time>
      </trkpt>
      <trkpt lat="48.69189" lon="6.0353">
        <ele>291.7</ele>
        <time>2019-10-31T23:28:57.530Z</time>
      </trkpt>
      <trkpt lat="48.69186" lon="6.0349">
        <ele>291.6</ele>
        <time>2019-10-31T23:29:02.006Z</time>
      </trkpt>
      <trkpt lat="48.69182" lon="6.03451">
        <ele>292.3</ele>
        <time>2019-10-31T23:29:06.347Z</time>
      </trkpt>
      <trkpt lat="48.69179" lon="6.03411">
        <ele>292.3</ele>
        <time>2019-10-31T23:29:10.830Z</time>
      </trkpt>
      <trkpt lat="48.69177" lon="6.03374">
        <ele>292</ele>
        <time>2019-10-31T23:29:14.975Z</time>
      </trkpt>
      <trkpt lat="48.69177" lon="6.03339">
        <ele>291.1</ele>
        <time>2019-10-31T23:29:18.850Z</time>
      </trkpt>
      <trkpt lat="48.69176" lon="6.03309">
        <ele>289.9</ele>
        <time>2019-10-31T23:29:22.173Z</time>
      </trkpt>
      <trkpt lat="48.69179" lon="6.03298">
        <ele>289.6</ele>
        <time>2019-10-31T23:29:23.566Z</time>
      </trkpt>
      <trkpt lat="48.69176" lon="6.03294">
        <ele>289.6</ele>
        <time>2019-10-31T23:29:24.257Z</time>
      </trkpt>
      <trkpt lat="48.69177" lon="6.03294">
        <ele>289.1</ele>
        <time>2019-10-31T23:29:24.352Z</time>
      </trkpt>
      <trkpt lat="48.69175" lon="6.03281">
        <ele>289.2</ele>
        <time>2019-10-31T23:29:25.856Z</time>
      </trkpt>
      <trkpt lat="48.69171" lon="6.03262">
        <ele>289.2</ele>
        <time>2019-10-31T23:29:28.070Z</time>
      </trkpt>
      <trkpt lat="48.69168" lon="6.03223">
        <ele>289</ele>
        <time>2019-10-31T23:29:32.431Z</time>
      </trkpt>
      <trkpt lat="48.69165" lon="6.03184">
        <ele>288.9</ele>
        <time>2019-10-31T23:29:36.785Z</time>
      </trkpt>
      <trkpt lat="48.6916" lon="6.03147">
        <ele>288.1</ele>
        <time>2019-10-31T23:29:41.016Z</time>
      </trkpt>
      <trkpt lat="48.69158" lon="6.03107">
        <ele>288.1</ele>
        <time>2019-10-31T23:29:45.474Z</time>
      </trkpt>
      <trkpt lat="48.69154" lon="6.03058">
        <ele>286.9</ele>
        <time>2019-10-31T23:29:50.859Z</time>
      </trkpt>
      <trkpt lat="48.69148" lon="6.03015">
        <ele>285.1</ele>
        <time>2019-10-31T23:29:55.826Z</time>
      </trkpt>
      <trkpt lat="48.69146" lon="6.02971">
        <ele>284.4</ele>
        <time>2019-10-31T23:30:00.685Z</time>
      </trkpt>
      <trkpt lat="48.69143" lon="6.02924">
        <ele>283.8</ele>
        <time>2019-10-31T23:30:05.973Z</time>
      </trkpt>
      <trkpt lat="48.6914" lon="6.02875">
        <ele>282.9</ele>
        <time>2019-10-31T23:30:11.373Z</time>
      </trkpt>
      <trkpt lat="48.69136" lon="6.02828">
        <ele>282.9</ele>
        <time>2019-10-31T23:30:16.672Z</time>
      </trkpt>
      <trkpt lat="48.69131" lon="6.0278">
        <ele>281.8</ele>
        <time>2019-10-31T23:30:22.018Z</time>
      </trkpt>
      <trkpt lat="48.69128" lon="6.02737">
        <ele>280.6</ele>
        <time>2019-10-31T23:30:26.821Z</time>
      </trkpt>
      <trkpt lat="48.69123" lon="6.02693">
        <ele>279.4</ele>
        <time>2019-10-31T23:30:31.868Z</time>
      </trkpt>
      <trkpt lat="48.69119" lon="6.02647">
        <ele>279.1</ele>
        <time>2019-10-31T23:30:36.908Z</time>
      </trkpt>
      <trkpt lat="48.69114" lon="6.02598">
        <ele>278.3</ele>
        <time>2019-10-31T23:30:42.498Z</time>
      </trkpt>
      <trkpt lat="48.6911" lon="6.02552">
        <ele>277.6</ele>
        <time>2019-10-31T23:30:47.622Z</time>
      </trkpt>
      <trkpt lat="48.69105" lon="6.02505">
        <ele>277.4</ele>
        <time>2019-10-31T23:30:52.944Z</time>
      </trkpt>
      <trkpt lat="48.69102" lon="6.0246">
        <ele>277.6</ele>
        <time>2019-10-31T23:30:57.879Z</time>
      </trkpt>
      <trkpt lat="48.69099" lon="6.02416">
        <ele>276.6</ele>
        <time>2019-10-31T23:31:02.838Z</time>
      </trkpt>
      <trkpt lat="48.69095" lon="6.02374">
        <ele>275.6</ele>
        <time>2019-10-31T23:31:07.591Z</time>
      </trkpt>
      <trkpt lat="48.69091" lon="6.02328">
        <ele>274.4</ele>
        <time>2019-10-31T23:31:12.681Z</time>
      </trkpt>
      <trkpt lat="48.69089" lon="6.02282">
        <ele>273.4</ele>
        <time>2019-10-31T23:31:17.818Z</time>
      </trkpt>
      <trkpt lat="48.69085" lon="6.02234">
        <ele>273.2</ele>
        <time>2019-10-31T23:31:23.245Z</time>
      </trkpt>
      <trkpt lat="48.6908" lon="6.02191">
        <ele>273.2</ele>
        <time>2019-10-31T23:31:28.038Z</time>
      </trkpt>
      <trkpt lat="48.69076" lon="6.02141">
        <ele>272</ele>
        <time>2019-10-31T23:31:33.584Z</time>
      </trkpt>
      <trkpt lat="48.69072" lon="6.02092">
        <ele>272</ele>
        <time>2019-10-31T23:31:39.099Z</time>
      </trkpt>
      <trkpt lat="48.69066" lon="6.02054">
        <ele>271.6</ele>
        <time>2019-10-31T23:31:43.393Z</time>
      </trkpt>
      <trkpt lat="48.69064" lon="6.02011">
        <ele>271.7</ele>
        <time>2019-10-31T23:31:48.212Z</time>
      </trkpt>
      <trkpt lat="48.69061" lon="6.01969">
        <ele>270.7</ele>
        <time>2019-10-31T23:31:52.954Z</time>
      </trkpt>
      <trkpt lat="48.69056" lon="6.01926">
        <ele>270.2</ele>
        <time>2019-10-31T23:31:57.775Z</time>
      </trkpt>
      <trkpt lat="48.69053" lon="6.01887">
        <ele>269.8</ele>
        <time>2019-10-31T23:32:02.119Z</time>
      </trkpt>
      <trkpt lat="48.69049" lon="6.01846">
        <ele>269.7</ele>
        <time>2019-10-31T23:32:06.705Z</time>
      </trkpt>
      <trkpt lat="48.69046" lon="6.01807">
        <ele>268.7</ele>
        <time>2019-10-31T23:32:11.057Z</time>
      </trkpt>
      <trkpt lat="48.69043" lon="6.01764">
        <ele>268.6</ele>
        <time>2019-10-31T23:32:15.905Z</time>
      </trkpt>
      <trkpt lat="48.69039" lon="6.01721">
        <ele>267.9</ele>
        <time>2019-10-31T23:32:20.751Z</time>
      </trkpt>
      <trkpt lat="48.69036" lon="6.01677">
        <ele>267</ele>
        <time>2019-10-31T23:32:25.654Z</time>
      </trkpt>
      <trkpt lat="48.69032" lon="6.01633">
        <ele>266.5</ele>
        <time>2019-10-31T23:32:30.566Z</time>
      </trkpt>
      <trkpt lat="48.69029" lon="6.01592">
        <ele>266</ele>
        <time>2019-10-31T23:32:35.084Z</time>
      </trkpt>
      <trkpt lat="48.69025" lon="6.01551">
        <ele>265.7</ele>
        <time>2019-10-31T23:32:39.726Z</time>
      </trkpt>
      <trkpt lat="48.69023" lon="6.01511">
        <ele>265.4</ele>
        <time>2019-10-31T23:32:44.234Z</time>
      </trkpt>
      <trkpt lat="48.69017" lon="6.01469">
        <ele>265.6</ele>
        <time>2019-10-31T23:32:48.911Z</time>
      </trkpt>
      <trkpt lat="48.69014" lon="6.01433">
        <ele>266.2</ele>
        <time>2019-10-31T23:32:52.981Z</time>
      </trkpt>
      <trkpt lat="48.69012" lon="6.01398">
        <ele>266.8</ele>
        <time>2019-10-31T23:32:56.866Z</time>
      </trkpt>
      <trkpt lat="48.6901" lon="6.01362">
        <ele>267.1</ele>
        <time>2019-10-31T23:33:00.937Z</time>
      </trkpt>
      <trkpt lat="48.69007" lon="6.01323">
        <ele>267.9</ele>
        <time>2019-10-31T23:33:05.254Z</time>
      </trkpt>
      <trkpt lat="48.69004" lon="6.01288">
        <ele>267.2</ele>
        <time>2019-10-31T23:33:09.215Z</time>
      </trkpt>
      <trkpt lat="48.68999" lon="6.01249">
        <ele>266.4</ele>
        <time>2019-10-31T23:33:13.639Z</time>
      </trkpt>
      <trkpt lat="48.68994" lon="6.01208">
        <ele>266.4</ele>
        <time>2019-10-31T23:33:18.201Z</time>
      </trkpt>
      <trkpt lat="48.68991" lon="6.01168">
        <ele>265.3</ele>
        <time>2019-10-31T23:33:22.667Z</time>
      </trkpt>
      <trkpt lat="48.68989" lon="6.01127">
        <ele>265</ele>
        <time>2019-10-31T23:33:27.267Z</time>
      </trkpt>
      <trkpt lat="48.68984" lon="6.01082">
        <ele>263.9</ele>
        <time>2019-10-31T23:33:32.309Z</time>
      </trkpt>
      <trkpt lat="48.68981" lon="6.01041">
        <ele>263</ele>
        <time>2019-10-31T23:33:36.884Z</time>
      </trkpt>
      <trkpt lat="48.68977" lon="6.01">
        <ele>263</ele>
        <time>2019-10-31T23:33:41.488Z</time>
      </trkpt>
      <trkpt lat="48.68974" lon="6.00968">
        <ele>263.1</ele>
        <time>2019-10-31T23:33:45.099Z</time>
      </trkpt>
      <trkpt lat="48.68969" lon="6.00933">
        <ele>262.2</ele>
        <time>2019-10-31T23:33:49.122Z</time>
      </trkpt>
      <trkpt lat="48.68965" lon="6.00899">
        <ele>262.6</ele>
        <time>2019-10-31T23:33:52.899Z</time>
      </trkpt>
      <trkpt lat="48.68963" lon="6.00861">
        <ele>262.7</ele>
        <time>2019-10-31T23:33:57.176Z</time>
      </trkpt>
      <trkpt lat="48.68958" lon="6.00822">
        <ele>263.2</ele>
        <time>2019-10-31T23:34:01.558Z</time>
      </trkpt>
      <trkpt lat="48.68955" lon="6.00792">
        <ele>263.3</ele>
        <time>2019-10-31T23:34:04.976Z</time>
      </trkpt>
      <trkpt lat="48.68953" lon="6.00758">
        <ele>263.3</ele>
        <time>2019-10-31T23:34:08.673Z</time>
      </trkpt>
      <trkpt lat="48.68952" lon="6.00726">
        <ele>264.1</ele>
        <time>2019-10-31T23:34:12.234Z</time>
      </trkpt>
      <trkpt lat="48.6895" lon="6.00695">
        <ele>264.1</ele>
        <time>2019-10-31T23:34:15.699Z</time>
      </trkpt>
      <trkpt lat="48.68949" lon="6.00666">
        <ele>264.3</ele>
        <time>2019-10-31T23:34:18.987Z</time>
      </trkpt>
      <trkpt lat="48.68944" lon="6.00633">
        <ele>263.6</ele>
        <time>2019-10-31T23:34:22.714Z</time>
      </trkpt>
      <trkpt lat="48.68943" lon="6.00599">
        <ele>263.2</ele>
        <time>2019-10-31T23:34:26.492Z</time>
      </trkpt>
      <trkpt lat="48.68939" lon="6.00562">
        <ele>262.4</ele>
        <time>2019-10-31T23:34:30.655Z</time>
      </trkpt>
      <trkpt lat="48.68934" lon="6.00518">
        <ele>261.9</ele>
        <time>2019-10-31T23:34:35.571Z</time>
      </trkpt>
      <trkpt lat="48.68928" lon="6.00474">
        <ele>261.4</ele>
        <time>2019-10-31T23:34:40.559Z</time>
      </trkpt>
      <trkpt lat="48.68926" lon="6.00437">
        <ele>260.2</ele>
        <time>2019-10-31T23:34:44.696Z</time>
      </trkpt>
      <trkpt lat="48.68923" lon="6.00387">
        <ele>259.1</ele>
        <time>2019-10-31T23:34:50.337Z</time>
      </trkpt>
      <trkpt lat="48.68919" lon="6.00344">
        <ele>258.3</ele>
        <time>2019-10-31T23:34:55.115Z</time>
      </trkpt>
      <trkpt lat="48.68916" lon="6.00301">
        <ele>258.6</ele>
        <time>2019-10-31T23:34:59.865Z</time>
      </trkpt>
      <trkpt lat="48.68912" lon="6.00262">
        <ele>257.9</ele>
        <time>2019-10-31T23:35:04.258Z</time>
      </trkpt>
      <trkpt lat="48.68909" lon="6.00219">
        <ele>257.6</ele>
        <time>2019-10-31T23:35:09.078Z</time>
      </trkpt>
      <trkpt lat="48.68904" lon="6.00174">
        <ele>257.6</ele>
        <time>2019-10-31T23:35:14.131Z</time>
      </trkpt>
      <trkpt lat="48.689" lon="6.00131">
        <ele>256.9</ele>
        <time>2019-10-31T23:35:19.014Z</time>
      </trkpt>
      <trkpt lat="48.68897" lon="6.00089">
        <ele>256.9</ele>
        <time>2019-10-31T23:35:23.641Z</time>
      </trkpt>
      <trkpt lat="48.68893" lon="6.00053">
        <ele>256.5</ele>
        <time>2019-10-31T23:35:27.689Z</time>
      </trkpt>
      <trkpt lat="48.68888" lon="6.00016">
        <ele>256.9</ele>
        <time>2019-10-31T23:35:31.965Z</time>
      </trkpt>
      <trkpt lat="48.68886" lon="5.99979">
        <ele>256.9</ele>
        <time>2019-10-31T23:35:36.102Z</time>
      </trkpt>
      <trkpt lat="48.68888" lon="5.99941">
        <ele>258.2</ele>
        <time>2019-10-31T23:35:40.271Z</time>
      </trkpt>
      <trkpt lat="48.68888" lon="5.99904">
        <ele>258.6</ele>
        <time>2019-10-31T23:35:44.369Z</time>
      </trkpt>
      <trkpt lat="48.6889" lon="5.99863">
        <ele>258.6</ele>
        <time>2019-10-31T23:35:48.952Z</time>
      </trkpt>
      <trkpt lat="48.6889" lon="5.99826">
        <ele>260.1</ele>
        <time>2019-10-31T23:35:53.082Z</time>
      </trkpt>
      <trkpt lat="48.68894" lon="5.9979">
        <ele>260.8</ele>
        <time>2019-10-31T23:35:57.133Z</time>
      </trkpt>
      <trkpt lat="48.68895" lon="5.9975">
        <ele>261.4</ele>
        <time>2019-10-31T23:36:01.512Z</time>
      </trkpt>
      <trkpt lat="48.68896" lon="5.9971">
        <ele>261.4</ele>
        <time>2019-10-31T23:36:05.963Z</time>
      </trkpt>
      <trkpt lat="48.68898" lon="5.99675">
        <ele>261.4</ele>
        <time>2019-10-31T23:36:09.855Z</time>
      </trkpt>
      <trkpt lat="48.68899" lon="5.99644">
        <ele>261.9</ele>
        <time>2019-10-31T23:36:13.380Z</time>
      </trkpt>
      <trkpt lat="48.68901" lon="5.99611">
        <ele>261.9</ele>
        <time>2019-10-31T23:36:17.025Z</time>
      </trkpt>
      <trkpt lat="48.68905" lon="5.99573">
        <ele>261.4</ele>
        <time>2019-10-31T23:36:21.309Z</time>
      </trkpt>
      <trkpt lat="48.68906" lon="5.99533">
        <ele>260.9</ele>
        <time>2019-10-31T23:36:25.787Z</time>
      </trkpt>
      <trkpt lat="48.68907" lon="5.99492">
        <ele>260.9</ele>
        <time>2019-10-31T23:36:30.349Z</time>
      </trkpt>
      <trkpt lat="48.68909" lon="5.99453">
        <ele>259.7</ele>
        <time>2019-10-31T23:36:34.585Z</time>
      </trkpt>
      <trkpt lat="48.68912" lon="5.99413">
        <ele>259.1</ele>
        <time>2019-10-31T23:36:39.109Z</time>
      </trkpt>
      <trkpt lat="48.68916" lon="5.99371">
        <ele>258.4</ele>
        <time>2019-10-31T23:36:43.851Z</time>
      </trkpt>
      <trkpt lat="48.6892" lon="5.99329">
        <ele>257.4</ele>
        <time>2019-10-31T23:36:48.524Z</time>
      </trkpt>
      <trkpt lat="48.68923" lon="5.99286">
        <ele>256.5</ele>
        <time>2019-10-31T23:36:53.359Z</time>
      </trkpt>
      <trkpt lat="48.68925" lon="5.99237">
        <ele>256.3</ele>
        <time>2019-10-31T23:36:58.814Z</time>
      </trkpt>
      <trkpt lat="48.68926" lon="5.99188">
        <ele>255.6</ele>
        <time>2019-10-31T23:37:04.247Z</time>
      </trkpt>
      <trkpt lat="48.68928" lon="5.99143">
        <ele>254.8</ele>
        <time>2019-10-31T23:37:09.189Z</time>
      </trkpt>
      <trkpt lat="48.68932" lon="5.99096">
        <ele>253.8</ele>
        <time>2019-10-31T23:37:14.449Z</time>
      </trkpt>
      <trkpt lat="48.68935" lon="5.99051">
        <ele>252.8</ele>
        <time>2019-10-31T23:37:19.482Z</time>
      </trkpt>
      <trkpt lat="48.6894" lon="5.99006">
        <ele>252</ele>
        <time>2019-10-31T23:37:24.614Z</time>
      </trkpt>
      <trkpt lat="48.68941" lon="5.98962">
        <ele>251.3</ele>
        <time>2019-10-31T23:37:29.461Z</time>
      </trkpt>
      <trkpt lat="48.68939" lon="5.98911">
        <ele>250.5</ele>
        <time>2019-10-31T23:37:35.126Z</time>
      </trkpt>
      <trkpt lat="48.68942" lon="5.98857">
        <ele>249.7</ele>
        <time>2019-10-31T23:37:41.127Z</time>
      </trkpt>
      <trkpt lat="48.68944" lon="5.98806">
        <ele>248.3</ele>
        <time>2019-10-31T23:37:46.872Z</time>
      </trkpt>
      <trkpt lat="48.68946" lon="5.98752">
        <ele>247.1</ele>
        <time>2019-10-31T23:37:52.864Z</time>
      </trkpt>
      <trkpt lat="48.68957" lon="5.98693">
        <ele>245.2</ele>
        <time>2019-10-31T23:37:59.654Z</time>
      </trkpt>
      <trkpt lat="48.68975" lon="5.98639">
        <ele>242.5</ele>
        <time>2019-10-31T23:38:06.336Z</time>
      </trkpt>
      <trkpt lat="48.68999" lon="5.98591">
        <ele>240.2</ele>
        <time>2019-10-31T23:38:13.037Z</time>
      </trkpt>
      <trkpt lat="48.69029" lon="5.98547">
        <ele>238.3</ele>
        <time>2019-10-31T23:38:20.032Z</time>
      </trkpt>
      <trkpt lat="48.69057" lon="5.98505">
        <ele>237</ele>
        <time>2019-10-31T23:38:26.715Z</time>
      </trkpt>
      <trkpt lat="48.6908" lon="5.98464">
        <ele>237.4</ele>
        <time>2019-10-31T23:38:32.620Z</time>
      </trkpt>
      <trkpt lat="48.69095" lon="5.98421">
        <ele>237.4</ele>
        <time>2019-10-31T23:38:38.006Z</time>
      </trkpt>
      <trkpt lat="48.69104" lon="5.98378">
        <ele>238</ele>
        <time>2019-10-31T23:38:42.984Z</time>
      </trkpt>
      <trkpt lat="48.69109" lon="5.98333">
        <ele>238.5</ele>
        <time>2019-10-31T23:38:48.123Z</time>
      </trkpt>
      <trkpt lat="48.69115" lon="5.98305">
        <ele>238.6</ele>
        <time>2019-10-31T23:38:51.386Z</time>
      </trkpt>
      <trkpt lat="48.69124" lon="5.98276">
        <ele>240.7</ele>
        <time>2019-10-31T23:38:54.974Z</time>
      </trkpt>
      <trkpt lat="48.69144" lon="5.98255">
        <ele>240.5</ele>
        <time>2019-10-31T23:38:58.998Z</time>
      </trkpt>
      <trkpt lat="48.69153" lon="5.98224">
        <ele>240.5</ele>
        <time>2019-10-31T23:39:02.708Z</time>
      </trkpt>
      <trkpt lat="48.69145" lon="5.98189">
        <ele>241.6</ele>
        <time>2019-10-31T23:39:06.846Z</time>
      </trkpt>
      <trkpt lat="48.69148" lon="5.98153">
        <ele>241.9</ele>
        <time>2019-10-31T23:39:10.893Z</time>
      </trkpt>
      <trkpt lat="48.69152" lon="5.98111">
        <ele>241.4</ele>
        <time>2019-10-31T23:39:15.586Z</time>
      </trkpt>
      <trkpt lat="48.69152" lon="5.98073">
        <ele>240.9</ele>
        <time>2019-10-31T23:39:19.773Z</time>
      </trkpt>
      <trkpt lat="48.69146" lon="5.98037">
        <ele>240.7</ele>
        <time>2019-10-31T23:39:23.953Z</time>
      </trkpt>
      <trkpt lat="48.69134" lon="5.98002">
        <ele>240.9</ele>
        <time>2019-10-31T23:39:28.264Z</time>
      </trkpt>
      <trkpt lat="48.69118" lon="5.97973">
        <ele>240.5</ele>
        <time>2019-10-31T23:39:32.505Z</time>
      </trkpt>
      <trkpt lat="48.69101" lon="5.97948">
        <ele>240.5</ele>
        <time>2019-10-31T23:39:36.551Z</time>
      </trkpt>
      <trkpt lat="48.69085" lon="5.97923">
        <ele>240</ele>
        <time>2019-10-31T23:39:40.445Z</time>
      </trkpt>
      <trkpt lat="48.69067" lon="5.97897">
        <ele>239.7</ele>
        <time>2019-10-31T23:39:44.541Z</time>
      </trkpt>
      <trkpt lat="48.69051" lon="5.97871">
        <ele>238.8</ele>
        <time>2019-10-31T23:39:48.503Z</time>
      </trkpt>
      <trkpt lat="48.69038" lon="5.97839">
        <ele>238.8</ele>
        <time>2019-10-31T23:39:52.599Z</time>
      </trkpt>
      <trkpt lat="48.69025" lon="5.97807">
        <ele>238.4</ele>
        <time>2019-10-31T23:39:56.820Z</time>
      </trkpt>
      <trkpt lat="48.69016" lon="5.97772">
        <ele>237.4</ele>
        <time>2019-10-31T23:40:00.985Z</time>
      </trkpt>
      <trkpt lat="48.69009" lon="5.97741">
        <ele>237</ele>
        <time>2019-10-31T23:40:04.649Z</time>
      </trkpt>
      <trkpt lat="48.69003" lon="5.977">
        <ele>236.2</ele>
        <time>2019-10-31T23:40:09.286Z</time>
      </trkpt>
      <trkpt lat="48.69" lon="5.97659">
        <ele>236.1</ele>
        <time>2019-10-31T23:40:13.874Z</time>
      </trkpt>
      <trkpt lat="48.68999" lon="5.97613">
        <ele>235.1</ele>
        <time>2019-10-31T23:40:18.993Z</time>
      </trkpt>
      <trkpt lat="48.69004" lon="5.97563">
        <ele>234.4</ele>
        <time>2019-10-31T23:40:24.528Z</time>
      </trkpt>
      <trkpt lat="48.69007" lon="5.97514">
        <ele>233.5</ele>
        <time>2019-10-31T23:40:30.009Z</time>
      </trkpt>
      <trkpt lat="48.6901" lon="5.97474">
        <ele>233.2</ele>
        <time>2019-10-31T23:40:34.481Z</time>
      </trkpt>
      <trkpt lat="48.69011" lon="5.97427">
        <ele>232.7</ele>
        <time>2019-10-31T23:40:39.713Z</time>
      </trkpt>
      <trkpt lat="48.69012" lon="5.97383">
        <ele>232.7</ele>
        <time>2019-10-31T23:40:44.590Z</time>
      </trkpt>
      <trkpt lat="48.69016" lon="5.97345">
        <ele>232.9</ele>
        <time>2019-10-31T23:40:48.939Z</time>
      </trkpt>
      <trkpt lat="48.69015" lon="5.97307">
        <ele>232.9</ele>
        <time>2019-10-31T23:40:53.127Z</time>
      </trkpt>
      <trkpt lat="48.69019" lon="5.9727">
        <ele>233.1</ele>
        <time>2019-10-31T23:40:57.323Z</time>
      </trkpt>
      <trkpt lat="48.6902" lon="5.9723">
        <ele>232.1</ele>
        <time>2019-10-31T23:41:01.742Z</time>
      </trkpt>
      <trkpt lat="48.69022" lon="5.97191">
        <ele>232.3</ele>
        <time>2019-10-31T23:41:06.008Z</time>
      </trkpt>
      <trkpt lat="48.69026" lon="5.97148">
        <ele>231.1</ele>
        <time>2019-10-31T23:41:10.914Z</time>
      </trkpt>
      <trkpt lat="48.69028" lon="5.97105">
        <ele>230.3</ele>
        <time>2019-10-31T23:41:15.668Z</time>
      </trkpt>
      <trkpt lat="48.69028" lon="5.9706">
        <ele>229.4</ele>
        <time>2019-10-31T23:41:20.653Z</time>
      </trkpt>
      <trkpt lat="48.6903" lon="5.97016">
        <ele>229.4</ele>
        <time>2019-10-31T23:41:25.546Z</time>
      </trkpt>
      <trkpt lat="48.69035" lon="5.96975">
        <ele>228.5</ele>
        <time>2019-10-31T23:41:30.216Z</time>
      </trkpt>
      <trkpt lat="48.69037" lon="5.96932">
        <ele>227.6</ele>
        <time>2019-10-31T23:41:34.952Z</time>
      </trkpt>
      <trkpt lat="48.6904" lon="5.96891">
        <ele>227.4</ele>
        <time>2019-10-31T23:41:39.593Z</time>
      </trkpt>
      <trkpt lat="48.69043" lon="5.96848">
        <ele>227.5</ele>
        <time>2019-10-31T23:41:44.347Z</time>
      </trkpt>
      <trkpt lat="48.69047" lon="5.96805">
        <ele>226.8</ele>
        <time>2019-10-31T23:41:49.238Z</time>
      </trkpt>
      <trkpt lat="48.6905" lon="5.96764">
        <ele>226.4</ele>
        <time>2019-10-31T23:41:53.805Z</time>
      </trkpt>
      <trkpt lat="48.69048" lon="5.9672">
        <ele>227.1</ele>
        <time>2019-10-31T23:41:58.645Z</time>
      </trkpt>
      <trkpt lat="48.6905" lon="5.96677">
        <ele>226.2</ele>
        <time>2019-10-31T23:42:03.504Z</time>
      </trkpt>
      <trkpt lat="48.69051" lon="5.96633">
        <ele>225.3</ele>
        <time>2019-10-31T23:42:08.318Z</time>
      </trkpt>
      <trkpt lat="48.6905" lon="5.96586">
        <ele>225</ele>
        <time>2019-10-31T23:42:13.631Z</time>
      </trkpt>
      <trkpt lat="48.69053" lon="5.9654">
        <ele>224.2</ele>
        <time>2019-10-31T23:42:18.706Z</time>
      </trkpt>
      <trkpt lat="48.69057" lon="5.96494">
        <ele>223.7</ele>
        <time>2019-10-31T23:42:23.823Z</time>
      </trkpt>
      <trkpt lat="48.69056" lon="5.96449">
        <ele>223.7</ele>
        <time>2019-10-31T23:42:28.888Z</time>
      </trkpt>
      <trkpt lat="48.69061" lon="5.964">
        <ele>221.8</ele>
        <time>2019-10-31T23:42:34.376Z</time>
      </trkpt>
      <trkpt lat="48.69064" lon="5.96351">
        <ele>220.8</ele>
        <time>2019-10-31T23:42:39.810Z</time>
      </trkpt>
      <trkpt lat="48.69062" lon="5.96301">
        <ele>220.6</ele>
        <time>2019-10-31T23:42:45.358Z</time>
      </trkpt>
      <trkpt lat="48.69068" lon="5.96258">
        <ele>221.2</ele>
        <time>2019-10-31T23:42:50.251Z</time>
      </trkpt>
      <trkpt lat="48.69072" lon="5.96216">
        <ele>221.2</ele>
        <time>2019-10-31T23:42:54.952Z</time>
      </trkpt>
      <trkpt lat="48.69073" lon="5.96174">
        <ele>220.9</ele>
        <time>2019-10-31T23:42:59.595Z</time>
      </trkpt>
      <trkpt lat="48.69073" lon="5.96138">
        <ele>223.5</ele>
        <time>2019-10-31T23:43:03.681Z</time>
      </trkpt>
      <trkpt lat="48.69077" lon="5.96105">
        <ele>224.6</ele>
        <time>2019-10-31T23:43:07.381Z</time>
      </trkpt>
      <trkpt lat="48.69078" lon="5.9607">
        <ele>225.8</ele>
        <time>2019-10-31T23:43:11.184Z</time>
      </trkpt>
      <trkpt lat="48.69078" lon="5.96041">
        <ele>226.8</ele>
        <time>2019-10-31T23:43:14.461Z</time>
      </trkpt>
      <trkpt lat="48.6908" lon="5.96006">
        <ele>227.5</ele>
        <time>2019-10-31T23:43:18.364Z</time>
      </trkpt>
      <trkpt lat="48.69079" lon="5.95976">
        <ele>227.5</ele>
        <time>2019-10-31T23:43:21.720Z</time>
      </trkpt>
      <trkpt lat="48.69076" lon="5.95943">
        <ele>228.2</ele>
        <time>2019-10-31T23:43:25.384Z</time>
      </trkpt>
      <trkpt lat="48.69069" lon="5.95916">
        <ele>228.2</ele>
        <time>2019-10-31T23:43:28.611Z</time>
      </trkpt>
      <trkpt lat="48.69063" lon="5.95888">
        <ele>228.9</ele>
        <time>2019-10-31T23:43:31.859Z</time>
      </trkpt>
      <trkpt lat="48.69053" lon="5.95859">
        <ele>229.5</ele>
        <time>2019-10-31T23:43:35.561Z</time>
      </trkpt>
      <trkpt lat="48.69042" lon="5.95828">
        <ele>229.8</ele>
        <time>2019-10-31T23:43:39.430Z</time>
      </trkpt>
      <trkpt lat="48.69029" lon="5.95796">
        <ele>229.5</ele>
        <time>2019-10-31T23:43:43.620Z</time>
      </trkpt>
      <trkpt lat="48.69013" lon="5.95762">
        <ele>229.2</ele>
        <time>2019-10-31T23:43:48.249Z</time>
      </trkpt>
      <trkpt lat="48.68998" lon="5.95733">
        <ele>229</ele>
        <time>2019-10-31T23:43:52.362Z</time>
      </trkpt>
      <trkpt lat="48.68983" lon="5.957">
        <ele>228.6</ele>
        <time>2019-10-31T23:43:56.820Z</time>
      </trkpt>
      <trkpt lat="48.68964" lon="5.95668">
        <ele>228.6</ele>
        <time>2019-10-31T23:44:01.496Z</time>
      </trkpt>
      <trkpt lat="48.68942" lon="5.95639">
        <ele>227.5</ele>
        <time>2019-10-31T23:44:06.501Z</time>
      </trkpt>
      <trkpt lat="48.6892" lon="5.95622">
        <ele>226.8</ele>
        <time>2019-10-31T23:44:10.640Z</time>
      </trkpt>
      <trkpt lat="48.68897" lon="5.95597">
        <ele>226.1</ele>
        <time>2019-10-31T23:44:15.319Z</time>
      </trkpt>
      <trkpt lat="48.68877" lon="5.95573">
        <ele>225.5</ele>
        <time>2019-10-31T23:44:19.663Z</time>
      </trkpt>
      <trkpt lat="48.68853" lon="5.95547">
        <ele>225.2</ele>
        <time>2019-10-31T23:44:24.565Z</time>
      </trkpt>
      <trkpt lat="48.68826" lon="5.95521">
        <ele>225.2</ele>
        <time>2019-10-31T23:44:30.095Z</time>
      </trkpt>
      <trkpt lat="48.68799" lon="5.95493">
        <ele>223.7</ele>
        <time>2019-10-31T23:44:35.516Z</time>
      </trkpt>
      <trkpt lat="48.68773" lon="5.95468">
        <ele>222.6</ele>
        <time>2019-10-31T23:44:40.758Z</time>
      </trkpt>
      <trkpt lat="48.68748" lon="5.95439">
        <ele>222</ele>
        <time>2019-10-31T23:44:45.988Z</time>
      </trkpt>
      <trkpt lat="48.68728" lon="5.95411">
        <ele>221.3</ele>
        <time>2019-10-31T23:44:50.588Z</time>
      </trkpt>
      <trkpt lat="48.68706" lon="5.95386">
        <ele>221.2</ele>
        <time>2019-10-31T23:44:55.167Z</time>
      </trkpt>
      <trkpt lat="48.68686" lon="5.95363">
        <ele>221.7</ele>
        <time>2019-10-31T23:44:59.377Z</time>
      </trkpt>
      <trkpt lat="48.68668" lon="5.95336">
        <ele>221.5</ele>
        <time>2019-10-31T23:45:03.641Z</time>
      </trkpt>
      <trkpt lat="48.68651" lon="5.95318">
        <ele>223</ele>
        <time>2019-10-31T23:45:07.257Z</time>
      </trkpt>
      <trkpt lat="48.68635" lon="5.95297">
        <ele>225.1</ele>
        <time>2019-10-31T23:45:10.816Z</time>
      </trkpt>
      <trkpt lat="48.68616" lon="5.9528">
        <ele>225.3</ele>
        <time>2019-10-31T23:45:14.395Z</time>
      </trkpt>
      <trkpt lat="48.68603" lon="5.95255">
        <ele>225.2</ele>
        <time>2019-10-31T23:45:17.934Z</time>
      </trkpt>
      <trkpt lat="48.68585" lon="5.95229">
        <ele>226.3</ele>
        <time>2019-10-31T23:45:22.125Z</time>
      </trkpt>
      <trkpt lat="48.68573" lon="5.95198">
        <ele>226.3</ele>
        <time>2019-10-31T23:45:26.172Z</time>
      </trkpt>
      <trkpt lat="48.68563" lon="5.95165">
        <ele>226.3</ele>
        <time>2019-10-31T23:45:30.195Z</time>
      </trkpt>
      <trkpt lat="48.6855" lon="5.9513">
        <ele>225.7</ele>
        <time>2019-10-31T23:45:34.692Z</time>
      </trkpt>
      <trkpt lat="48.68533" lon="5.95089">
        <ele>225.7</ele>
        <time>2019-10-31T23:45:40.052Z</time>
      </trkpt>
      <trkpt lat="48.68515" lon="5.95044">
        <ele>223</ele>
        <time>2019-10-31T23:45:45.840Z</time>
      </trkpt>
      <trkpt lat="48.685" lon="5.94992">
        <ele>220.7</ele>
        <time>2019-10-31T23:45:52.125Z</time>
      </trkpt>
      <trkpt lat="48.68483" lon="5.94942">
        <ele>218.5</ele>
        <time>2019-10-31T23:45:58.423Z</time>
      </trkpt>
      <trkpt lat="48.68465" lon="5.94894">
        <ele>217.5</ele>
        <time>2019-10-31T23:46:04.551Z</time>
      </trkpt>
      <trkpt lat="48.68449" lon="5.94852">
        <ele>217</ele>
        <time>2019-10-31T23:46:09.950Z</time>
      </trkpt>
      <trkpt lat="48.68433" lon="5.94815">
        <ele>217.8</ele>
        <time>2019-10-31T23:46:14.779Z</time>
      </trkpt>
      <trkpt lat="48.68419" lon="5.94784">
        <ele>217.8</ele>
        <time>2019-10-31T23:46:18.940Z</time>
      </trkpt>
      <trkpt lat="48.68411" lon="5.94761">
        <ele>219</ele>
        <time>2019-10-31T23:46:21.890Z</time>
      </trkpt>
      <trkpt lat="48.68404" lon="5.94736">
        <ele>220</ele>
        <time>2019-10-31T23:46:24.953Z</time>
      </trkpt>
      <trkpt lat="48.68396" lon="5.94711">
        <ele>221.2</ele>
        <time>2019-10-31T23:46:27.992Z</time>
      </trkpt>
      <trkpt lat="48.6839" lon="5.94691">
        <ele>222.5</ele>
        <time>2019-10-31T23:46:30.395Z</time>
      </trkpt>
      <trkpt lat="48.68381" lon="5.94666">
        <ele>224.3</ele>
        <time>2019-10-31T23:46:33.601Z</time>
      </trkpt>
      <trkpt lat="48.68371" lon="5.94648">
        <ele>225.1</ele>
        <time>2019-10-31T23:46:36.198Z</time>
      </trkpt>
      <trkpt lat="48.68364" lon="5.94626">
        <ele>225.9</ele>
        <time>2019-10-31T23:46:38.898Z</time>
      </trkpt>
      <trkpt lat="48.68358" lon="5.94608">
        <ele>226.7</ele>
        <time>2019-10-31T23:46:41.094Z</time>
      </trkpt>
      <trkpt lat="48.68349" lon="5.94582">
        <ele>227.6</ele>
        <time>2019-10-31T23:46:44.415Z</time>
      </trkpt>
      <trkpt lat="48.68338" lon="5.94552">
        <ele>228.3</ele>
        <time>2019-10-31T23:46:48.170Z</time>
      </trkpt>
      <trkpt lat="48.68331" lon="5.9453">
        <ele>228.7</ele>
        <time>2019-10-31T23:46:50.892Z</time>
      </trkpt>
      <trkpt lat="48.6832" lon="5.94506">
        <ele>229</ele>
        <time>2019-10-31T23:46:54.156Z</time>
      </trkpt>
      <trkpt lat="48.6831" lon="5.94478">
        <ele>228.6</ele>
        <time>2019-10-31T23:46:57.695Z</time>
      </trkpt>
      <trkpt lat="48.683" lon="5.9445">
        <ele>229.2</ele>
        <time>2019-10-31T23:47:01.248Z</time>
      </trkpt>
      <trkpt lat="48.68291" lon="5.94426">
        <ele>229.2</ele>
        <time>2019-10-31T23:47:04.337Z</time>
      </trkpt>
      <trkpt lat="48.6828" lon="5.94399">
        <ele>229</ele>
        <time>2019-10-31T23:47:07.832Z</time>
      </trkpt>
      <trkpt lat="48.68269" lon="5.94365">
        <ele>229.6</ele>
        <time>2019-10-31T23:47:11.997Z</time>
      </trkpt>
      <trkpt lat="48.68258" lon="5.94336">
        <ele>229.8</ele>
        <time>2019-10-31T23:47:15.699Z</time>
      </trkpt>
      <trkpt lat="48.68245" lon="5.94303">
        <ele>230.3</ele>
        <time>2019-10-31T23:47:20.051Z</time>
      </trkpt>
      <trkpt lat="48.68236" lon="5.94276">
        <ele>230.3</ele>
        <time>2019-10-31T23:47:23.353Z</time>
      </trkpt>
      <trkpt lat="48.68227" lon="5.94247">
        <ele>230.8</ele>
        <time>2019-10-31T23:47:26.943Z</time>
      </trkpt>
      <trkpt lat="48.68217" lon="5.94221">
        <ele>232.1</ele>
        <time>2019-10-31T23:47:30.221Z</time>
      </trkpt>
      <trkpt lat="48.68207" lon="5.94194">
        <ele>232.1</ele>
        <time>2019-10-31T23:47:33.721Z</time>
      </trkpt>
      <trkpt lat="48.68195" lon="5.94162">
        <ele>232.4</ele>
        <time>2019-10-31T23:47:37.738Z</time>
      </trkpt>
      <trkpt lat="48.68181" lon="5.94127">
        <ele>232.2</ele>
        <time>2019-10-31T23:47:42.358Z</time>
      </trkpt>
      <trkpt lat="48.68169" lon="5.94089">
        <ele>232.2</ele>
        <time>2019-10-31T23:47:46.997Z</time>
      </trkpt>
      <trkpt lat="48.68158" lon="5.94056">
        <ele>231.1</ele>
        <time>2019-10-31T23:47:51.176Z</time>
      </trkpt>
      <trkpt lat="48.68144" lon="5.94021">
        <ele>231.1</ele>
        <time>2019-10-31T23:47:55.703Z</time>
      </trkpt>
      <trkpt lat="48.68134" lon="5.9399">
        <ele>230.2</ele>
        <time>2019-10-31T23:47:59.515Z</time>
      </trkpt>
      <trkpt lat="48.68119" lon="5.93958">
        <ele>230.9</ele>
        <time>2019-10-31T23:48:03.890Z</time>
      </trkpt>
      <trkpt lat="48.68109" lon="5.93926">
        <ele>232.2</ele>
        <time>2019-10-31T23:48:07.734Z</time>
      </trkpt>
      <trkpt lat="48.68099" lon="5.93897">
        <ele>232.9</ele>
        <time>2019-10-31T23:48:11.439Z</time>
      </trkpt>
      <trkpt lat="48.68087" lon="5.93872">
        <ele>233.7</ele>
        <time>2019-10-31T23:48:14.835Z</time>
      </trkpt>
      <trkpt lat="48.68077" lon="5.93846">
        <ele>235</ele>
        <time>2019-10-31T23:48:18.221Z</time>
      </trkpt>
      <trkpt lat="48.68069" lon="5.93819">
        <ele>235.5</ele>
        <time>2019-10-31T23:48:21.508Z</time>
      </trkpt>
      <trkpt lat="48.68058" lon="5.93787">
        <ele>235.5</ele>
        <time>2019-10-31T23:48:25.394Z</time>
      </trkpt>
      <trkpt lat="48.68048" lon="5.93762">
        <ele>235.9</ele>
        <time>2019-10-31T23:48:28.787Z</time>
      </trkpt>
      <trkpt lat="48.68036" lon="5.93728">
        <ele>236.6</ele>
        <time>2019-10-31T23:48:33.059Z</time>
      </trkpt>
      <trkpt lat="48.68025" lon="5.93698">
        <ele>236.7</ele>
        <time>2019-10-31T23:48:36.776Z</time>
      </trkpt>
      <trkpt lat="48.68015" lon="5.9367">
        <ele>237.5</ele>
        <time>2019-10-31T23:48:40.361Z</time>
      </trkpt>
      <trkpt lat="48.68003" lon="5.93638">
        <ele>237.3</ele>
        <time>2019-10-31T23:48:44.420Z</time>
      </trkpt>
      <trkpt lat="48.67992" lon="5.93606">
        <ele>237.3</ele>
        <time>2019-10-31T23:48:48.374Z</time>
      </trkpt>
      <trkpt lat="48.67982" lon="5.9358">
        <ele>237.5</ele>
        <time>2019-10-31T23:48:51.844Z</time>
      </trkpt>
      <trkpt lat="48.6797" lon="5.93545">
        <ele>236.9</ele>
        <time>2019-10-31T23:48:56.181Z</time>
      </trkpt>
      <trkpt lat="48.67959" lon="5.93517">
        <ele>236.4</ele>
        <time>2019-10-31T23:48:59.806Z</time>
      </trkpt>
      <trkpt lat="48.67945" lon="5.93483">
        <ele>236.4</ele>
        <time>2019-10-31T23:49:04.223Z</time>
      </trkpt>
      <trkpt lat="48.67934" lon="5.93447">
        <ele>235.7</ele>
        <time>2019-10-31T23:49:08.632Z</time>
      </trkpt>
      <trkpt lat="48.67923" lon="5.93418">
        <ele>235.3</ele>
        <time>2019-10-31T23:49:12.343Z</time>
      </trkpt>
      <trkpt lat="48.67909" lon="5.93384">
        <ele>234.7</ele>
        <time>2019-10-31T23:49:16.850Z</time>
      </trkpt>
      <trkpt lat="48.67891" lon="5.93346">
        <ele>233.7</ele>
        <time>2019-10-31T23:49:22.015Z</time>
      </trkpt>
      <trkpt lat="48.67875" lon="5.93303">
        <ele>233</ele>
        <time>2019-10-31T23:49:27.426Z</time>
      </trkpt>
      <trkpt lat="48.67861" lon="5.93267">
        <ele>233</ele>
        <time>2019-10-31T23:49:32.165Z</time>
      </trkpt>
      <trkpt lat="48.67844" lon="5.93225">
        <ele>231.5</ele>
        <time>2019-10-31T23:49:37.618Z</time>
      </trkpt>
      <trkpt lat="48.67828" lon="5.93181">
        <ele>230.5</ele>
        <time>2019-10-31T23:49:43.137Z</time>
      </trkpt>
      <trkpt lat="48.6781" lon="5.93134">
        <ele>228.8</ele>
        <time>2019-10-31T23:49:49.225Z</time>
      </trkpt>
      <trkpt lat="48.67792" lon="5.93084">
        <ele>226.5</ele>
        <time>2019-10-31T23:49:55.514Z</time>
      </trkpt>
      <trkpt lat="48.67773" lon="5.93036">
        <ele>225.1</ele>
        <time>2019-10-31T23:50:01.722Z</time>
      </trkpt>
      <trkpt lat="48.67755" lon="5.92989">
        <ele>223.3</ele>
        <time>2019-10-31T23:50:07.743Z</time>
      </trkpt>
      <trkpt lat="48.67739" lon="5.92942">
        <ele>223.3</ele>
        <time>2019-10-31T23:50:13.669Z</time>
      </trkpt>
      <trkpt lat="48.67721" lon="5.92903">
        <ele>222.6</ele>
        <time>2019-10-31T23:50:18.953Z</time>
      </trkpt>
      <trkpt lat="48.6771" lon="5.9287">
        <ele>222.9</ele>
        <time>2019-10-31T23:50:23.036Z</time>
      </trkpt>
      <trkpt lat="48.677" lon="5.92839">
        <ele>222.9</ele>
        <time>2019-10-31T23:50:26.885Z</time>
      </trkpt>
      <trkpt lat="48.67689" lon="5.92807">
        <ele>224</ele>
        <time>2019-10-31T23:50:30.898Z</time>
      </trkpt>
      <trkpt lat="48.67677" lon="5.9277">
        <ele>224.9</ele>
        <time>2019-10-31T23:50:35.399Z</time>
      </trkpt>
      <trkpt lat="48.67661" lon="5.92736">
        <ele>225.3</ele>
        <time>2019-10-31T23:50:40.064Z</time>
      </trkpt>
      <trkpt lat="48.67644" lon="5.92697">
        <ele>225.3</ele>
        <time>2019-10-31T23:50:45.254Z</time>
      </trkpt>
      <trkpt lat="48.6763" lon="5.92658">
        <ele>223.9</ele>
        <time>2019-10-31T23:50:50.145Z</time>
      </trkpt>
      <trkpt lat="48.67619" lon="5.9262">
        <ele>223.4</ele>
        <time>2019-10-31T23:50:54.740Z</time>
      </trkpt>
      <trkpt lat="48.67603" lon="5.92585">
        <ele>222.6</ele>
        <time>2019-10-31T23:50:59.496Z</time>
      </trkpt>
      <trkpt lat="48.67588" lon="5.92551">
        <ele>222.5</ele>
        <time>2019-10-31T23:51:04.019Z</time>
      </trkpt>
      <trkpt lat="48.67576" lon="5.92522">
        <ele>221.4</ele>
        <time>2019-10-31T23:51:07.819Z</time>
      </trkpt>
      <trkpt lat="48.67561" lon="5.92496">
        <ele>221.5</ele>
        <time>2019-10-31T23:51:11.657Z</time>
      </trkpt>
      <trkpt lat="48.67544" lon="5.92472">
        <ele>221.7</ele>
        <time>2019-10-31T23:51:15.633Z</time>
      </trkpt>
      <trkpt lat="48.67526" lon="5.92439">
        <ele>221.7</ele>
        <time>2019-10-31T23:51:20.359Z</time>
      </trkpt>
      <trkpt lat="48.67503" lon="5.92401">
        <ele>221.7</ele>
        <time>2019-10-31T23:51:26.146Z</time>
      </trkpt>
      <trkpt lat="48.67484" lon="5.92373">
        <ele>222.4</ele>
        <time>2019-10-31T23:51:30.553Z</time>
      </trkpt>
      <trkpt lat="48.6747" lon="5.92342">
        <ele>222</ele>
        <time>2019-10-31T23:51:34.714Z</time>
      </trkpt>
      <trkpt lat="48.67462" lon="5.92304">
        <ele>221.1</ele>
        <time>2019-10-31T23:51:39.144Z</time>
      </trkpt>
      <trkpt lat="48.67444" lon="5.9227">
        <ele>221.1</ele>
        <time>2019-10-31T23:51:44.040Z</time>
      </trkpt>
      <trkpt lat="48.67427" lon="5.92231">
        <ele>221.3</ele>
        <time>2019-10-31T23:51:49.202Z</time>
      </trkpt>
      <trkpt lat="48.67416" lon="5.92189">
        <ele>220</ele>
        <time>2019-10-31T23:51:54.192Z</time>
      </trkpt>
      <trkpt lat="48.67404" lon="5.92145">
        <ele>218.5</ele>
        <time>2019-10-31T23:51:59.501Z</time>
      </trkpt>
      <trkpt lat="48.67393" lon="5.92096">
        <ele>217.4</ele>
        <time>2019-10-31T23:52:05.207Z</time>
      </trkpt>
      <trkpt lat="48.67378" lon="5.92049">
        <ele>217.4</ele>
        <time>2019-10-31T23:52:11.022Z</time>
      </trkpt>
      <trkpt lat="48.67362" lon="5.92022">
        <ele>216.7</ele>
        <time>2019-10-31T23:52:15.110Z</time>
      </trkpt>
      <trkpt lat="48.67353" lon="5.91973">
        <ele>217.3</ele>
        <time>2019-10-31T23:52:20.709Z</time>
      </trkpt>
      <trkpt lat="48.67343" lon="5.91925">
        <ele>218</ele>
        <time>2019-10-31T23:52:26.294Z</time>
      </trkpt>
      <trkpt lat="48.67332" lon="5.91886">
        <ele>218.9</ele>
        <time>2019-10-31T23:52:31.060Z</time>
      </trkpt>
      <trkpt lat="48.67322" lon="5.91848">
        <ele>219.7</ele>
        <time>2019-10-31T23:52:35.570Z</time>
      </trkpt>
      <trkpt lat="48.67316" lon="5.91822">
        <ele>221.1</ele>
        <time>2019-10-31T23:52:38.613Z</time>
      </trkpt>
      <trkpt lat="48.6731" lon="5.91793">
        <ele>222.7</ele>
        <time>2019-10-31T23:52:42.020Z</time>
      </trkpt>
      <trkpt lat="48.67309" lon="5.91771">
        <ele>224.2</ele>
        <time>2019-10-31T23:52:44.505Z</time>
      </trkpt>
      <trkpt lat="48.67306" lon="5.91746">
        <ele>224.9</ele>
        <time>2019-10-31T23:52:47.316Z</time>
      </trkpt>
      <trkpt lat="48.67302" lon="5.91723">
        <ele>226.2</ele>
        <time>2019-10-31T23:52:49.924Z</time>
      </trkpt>
      <trkpt lat="48.67302" lon="5.91702">
        <ele>227</ele>
        <time>2019-10-31T23:52:52.214Z</time>
      </trkpt>
      <trkpt lat="48.67302" lon="5.91679">
        <ele>227.8</ele>
        <time>2019-10-31T23:52:54.859Z</time>
      </trkpt>
      <trkpt lat="48.67299" lon="5.91657">
        <ele>227.9</ele>
        <time>2019-10-31T23:52:57.308Z</time>
      </trkpt>
      <trkpt lat="48.67292" lon="5.91629">
        <ele>228.5</ele>
        <time>2019-10-31T23:53:00.663Z</time>
      </trkpt>
      <trkpt lat="48.67288" lon="5.91607">
        <ele>228.4</ele>
        <time>2019-10-31T23:53:03.217Z</time>
      </trkpt>
      <trkpt lat="48.6728" lon="5.91576">
        <ele>227.9</ele>
        <time>2019-10-31T23:53:06.823Z</time>
      </trkpt>
      <trkpt lat="48.67273" lon="5.91542">
        <ele>227.6</ele>
        <time>2019-10-31T23:53:10.789Z</time>
      </trkpt>
      <trkpt lat="48.67265" lon="5.91514">
        <ele>227.1</ele>
        <time>2019-10-31T23:53:14.205Z</time>
      </trkpt>
      <trkpt lat="48.6726" lon="5.91481">
        <ele>227.1</ele>
        <time>2019-10-31T23:53:17.927Z</time>
      </trkpt>
      <trkpt lat="48.67255" lon="5.91455">
        <ele>227.3</ele>
        <time>2019-10-31T23:53:20.949Z</time>
      </trkpt>
      <trkpt lat="48.67251" lon="5.91425">
        <ele>227.3</ele>
        <time>2019-10-31T23:53:24.390Z</time>
      </trkpt>
      <trkpt lat="48.67242" lon="5.91399">
        <ele>227.8</ele>
        <time>2019-10-31T23:53:27.603Z</time>
      </trkpt>
      <trkpt lat="48.67231" lon="5.91371">
        <ele>227.5</ele>
        <time>2019-10-31T23:53:31.224Z</time>
      </trkpt>
      <trkpt lat="48.67225" lon="5.9134">
        <ele>226.6</ele>
        <time>2019-10-31T23:53:34.789Z</time>
      </trkpt>
      <trkpt lat="48.67218" lon="5.91303">
        <ele>225.5</ele>
        <time>2019-10-31T23:53:39.093Z</time>
      </trkpt>
      <trkpt lat="48.67205" lon="5.91255">
        <ele>224.2</ele>
        <time>2019-10-31T23:53:44.827Z</time>
      </trkpt>
      <trkpt lat="48.67193" lon="5.91199">
        <ele>222.8</ele>
        <time>2019-10-31T23:53:51.450Z</time>
      </trkpt>
      <trkpt lat="48.67179" lon="5.91142">
        <ele>220.3</ele>
        <time>2019-10-31T23:53:58.163Z</time>
      </trkpt>
      <trkpt lat="48.67168" lon="5.91086">
        <ele>218</ele>
        <time>2019-10-31T23:54:04.653Z</time>
      </trkpt>
      <trkpt lat="48.67156" lon="5.91027">
        <ele>216.9</ele>
        <time>2019-10-31T23:54:11.501Z</time>
      </trkpt>
      <trkpt lat="48.67144" lon="5.90979">
        <ele>215.7</ele>
        <time>2019-10-31T23:54:17.160Z</time>
      </trkpt>
      <trkpt lat="48.6713" lon="5.90931">
        <ele>214.4</ele>
        <time>2019-10-31T23:54:22.978Z</time>
      </trkpt>
      <trkpt lat="48.67128" lon="5.90888">
        <ele>213.8</ele>
        <time>2019-10-31T23:54:27.788Z</time>
      </trkpt>
      <trkpt lat="48.67126" lon="5.90844">
        <ele>214</ele>
        <time>2019-10-31T23:54:32.768Z</time>
      </trkpt>
      <trkpt lat="48.6713" lon="5.90809">
        <ele>213.6</ele>
        <time>2019-10-31T23:54:36.604Z</time>
      </trkpt>
      <trkpt lat="48.6713" lon="5.90769">
        <ele>214.2</ele>
        <time>2019-10-31T23:54:41.059Z</time>
      </trkpt>
      <trkpt lat="48.6713" lon="5.90728">
        <ele>214.6</ele>
        <time>2019-10-31T23:54:45.658Z</time>
      </trkpt>
      <trkpt lat="48.67133" lon="5.9069">
        <ele>215.8</ele>
        <time>2019-10-31T23:54:49.931Z</time>
      </trkpt>
      <trkpt lat="48.67132" lon="5.90647">
        <ele>216.3</ele>
        <time>2019-10-31T23:54:54.696Z</time>
      </trkpt>
      <trkpt lat="48.67132" lon="5.90603">
        <ele>216.3</ele>
        <time>2019-10-31T23:54:59.583Z</time>
      </trkpt>
      <trkpt lat="48.67134" lon="5.90557">
        <ele>216.1</ele>
        <time>2019-10-31T23:55:04.648Z</time>
      </trkpt>
      <trkpt lat="48.67138" lon="5.90515">
        <ele>216.1</ele>
        <time>2019-10-31T23:55:09.379Z</time>
      </trkpt>
      <trkpt lat="48.67139" lon="5.9047">
        <ele>215.4</ele>
        <time>2019-10-31T23:55:14.372Z</time>
      </trkpt>
      <trkpt lat="48.6714" lon="5.90429">
        <ele>215.6</ele>
        <time>2019-10-31T23:55:18.939Z</time>
      </trkpt>
      <trkpt lat="48.67141" lon="5.90388">
        <ele>214.6</ele>
        <time>2019-10-31T23:55:23.473Z</time>
      </trkpt>
      <trkpt lat="48.67143" lon="5.90344">
        <ele>214.4</ele>
        <time>2019-10-31T23:55:28.406Z</time>
      </trkpt>
      <trkpt lat="48.67145" lon="5.903">
        <ele>215.2</ele>
        <time>2019-10-31T23:55:33.310Z</time>
      </trkpt>
      <trkpt lat="48.67149" lon="5.90255">
        <ele>216.2</ele>
        <time>2019-10-31T23:55:38.348Z</time>
      </trkpt>
      <trkpt lat="48.67152" lon="5.90211">
        <ele>216.9</ele>
        <time>2019-10-31T23:55:43.239Z</time>
      </trkpt>
      <trkpt lat="48.67152" lon="5.90171">
        <ele>217.3</ele>
        <time>2019-10-31T23:55:47.704Z</time>
      </trkpt>
      <trkpt lat="48.67153" lon="5.9014">
        <ele>218.5</ele>
        <time>2019-10-31T23:55:51.152Z</time>
      </trkpt>
      <trkpt lat="48.67153" lon="5.90109">
        <ele>219.4</ele>
        <time>2019-10-31T23:55:54.540Z</time>
      </trkpt>
      <trkpt lat="48.67154" lon="5.90084">
        <ele>220.5</ele>
        <time>2019-10-31T23:55:57.351Z</time>
      </trkpt>
      <trkpt lat="48.67155" lon="5.90059">
        <ele>221.6</ele>
        <time>2019-10-31T23:56:00.154Z</time>
      </trkpt>
      <trkpt lat="48.67156" lon="5.90034">
        <ele>222.2</ele>
        <time>2019-10-31T23:56:02.986Z</time>
      </trkpt>
      <trkpt lat="48.67155" lon="5.90006">
        <ele>222.2</ele>
        <time>2019-10-31T23:56:06.044Z</time>
      </trkpt>
      <trkpt lat="48.67155" lon="5.89973">
        <ele>222.3</ele>
        <time>2019-10-31T23:56:09.721Z</time>
      </trkpt>
      <trkpt lat="48.67158" lon="5.89929">
        <ele>221.1</ele>
        <time>2019-10-31T23:56:14.628Z</time>
      </trkpt>
      <trkpt lat="48.67156" lon="5.8988">
        <ele>219.4</ele>
        <time>2019-10-31T23:56:20.074Z</time>
      </trkpt>
      <trkpt lat="48.67156" lon="5.89826">
        <ele>218.2</ele>
        <time>2019-10-31T23:56:26.028Z</time>
      </trkpt>
      <trkpt lat="48.67158" lon="5.8978">
        <ele>217.4</ele>
        <time>2019-10-31T23:56:31.220Z</time>
      </trkpt>
      <trkpt lat="48.67158" lon="5.89738">
        <ele>217.4</ele>
        <time>2019-10-31T23:56:35.852Z</time>
      </trkpt>
      <trkpt lat="48.67156" lon="5.89701">
        <ele>218.5</ele>
        <time>2019-10-31T23:56:39.978Z</time>
      </trkpt>
      <trkpt lat="48.67157" lon="5.89668">
        <ele>218.9</ele>
        <time>2019-10-31T23:56:43.667Z</time>
      </trkpt>
      <trkpt lat="48.67158" lon="5.89635">
        <ele>217.8</ele>
        <time>2019-10-31T23:56:47.272Z</time>
      </trkpt>
      <trkpt lat="48.67168" lon="5.89618">
        <ele>218.3</ele>
        <time>2019-10-31T23:56:49.765Z</time>
      </trkpt>
      <trkpt lat="48.67188" lon="5.89631">
        <ele>217.4</ele>
        <time>2019-10-31T23:56:53.408Z</time>
      </trkpt>
      <trkpt lat="48.67213" lon="5.89649">
        <ele>216.1</ele>
        <time>2019-10-31T23:56:58.063Z</time>
      </trkpt>
      <trkpt lat="48.67237" lon="5.89672">
        <ele>213.8</ele>
        <time>2019-10-31T23:57:02.814Z</time>
      </trkpt>
      <trkpt lat="48.67259" lon="5.89702">
        <ele>213.2</ele>
        <time>2019-10-31T23:57:07.789Z</time>
      </trkpt>
      <trkpt lat="48.67282" lon="5.89727">
        <ele>213.2</ele>
        <time>2019-10-31T23:57:12.652Z</time>
      </trkpt>
      <trkpt lat="48.67305" lon="5.89752">
        <ele>212.2</ele>
        <time>2019-10-31T23:57:17.318Z</time>
      </trkpt>
      <trkpt lat="48.6733" lon="5.89775">
        <ele>211.9</ele>
        <time>2019-10-31T23:57:22.198Z</time>
      </trkpt>
      <trkpt lat="48.67351" lon="5.89798">
        <ele>212.5</ele>
        <time>2019-10-31T23:57:26.674Z</time>
      </trkpt>
      <trkpt lat="48.67378" lon="5.89822">
        <ele>212.2</ele>
        <time>2019-10-31T23:57:31.951Z</time>
      </trkpt>
      <trkpt lat="48.67403" lon="5.89844">
        <ele>212.2</ele>
        <time>2019-10-31T23:57:36.818Z</time>
      </trkpt>
      <trkpt lat="48.67427" lon="5.89867">
        <ele>212.4</ele>
        <time>2019-10-31T23:57:41.514Z</time>
      </trkpt>
      <trkpt lat="48.6745" lon="5.8989">
        <ele>212</ele>
        <time>2019-10-31T23:57:46.174Z</time>
      </trkpt>
      <trkpt lat="48.67474" lon="5.89914">
        <ele>212</ele>
        <time>2019-10-31T23:57:51.058Z</time>
      </trkpt>
      <trkpt lat="48.67504" lon="5.89939">
        <ele>212</ele>
        <time>2019-10-31T23:57:56.766Z</time>
      </trkpt>
      <trkpt lat="48.67528" lon="5.8996">
        <ele>212.1</ele>
        <time>2019-10-31T23:58:01.380Z</time>
      </trkpt>
      <trkpt lat="48.67551" lon="5.89981">
        <ele>212.1</ele>
        <time>2019-10-31T23:58:05.963Z</time>
      </trkpt>
      <trkpt lat="48.67571" lon="5.90003">
        <ele>212.6</ele>
        <time>2019-10-31T23:58:10.100Z</time>
      </trkpt>
      <trkpt lat="48.67594" lon="5.90022">
        <ele>212.6</ele>
        <time>2019-10-31T23:58:14.533Z</time>
      </trkpt>
      <trkpt lat="48.67616" lon="5.90041">
        <ele>212.7</ele>
        <time>2019-10-31T23:58:18.735Z</time>
      </trkpt>
      <trkpt lat="48.67637" lon="5.90063">
        <ele>212.7</ele>
        <time>2019-10-31T23:58:23.009Z</time>
      </trkpt>
      <trkpt lat="48.67657" lon="5.90086">
        <ele>212.7</ele>
        <time>2019-10-31T23:58:27.253Z</time>
      </trkpt>
      <trkpt lat="48.67683" lon="5.90107">
        <ele>211.8</ele>
        <time>2019-10-31T23:58:32.264Z</time>
      </trkpt>
      <trkpt lat="48.67705" lon="5.90128">
        <ele>212.3</ele>
        <time>2019-10-31T23:58:36.573Z</time>
      </trkpt>
      <trkpt lat="48.67727" lon="5.90147">
        <ele>212.3</ele>
        <time>2019-10-31T23:58:40.881Z</time>
      </trkpt>
      <trkpt lat="48.67749" lon="5.90171">
        <ele>212.4</ele>
        <time>2019-10-31T23:58:45.482Z</time>
      </trkpt>
      <trkpt lat="48.67775" lon="5.90191">
        <ele>211.8</ele>
        <time>2019-10-31T23:58:50.382Z</time>
      </trkpt>
      <trkpt lat="48.67799" lon="5.90212">
        <ele>211.8</ele>
        <time>2019-10-31T23:58:54.983Z</time>
      </trkpt>
      <trkpt lat="48.67822" lon="5.9023">
        <ele>212.2</ele>
        <time>2019-10-31T23:58:59.363Z</time>
      </trkpt>
      <trkpt lat="48.67843" lon="5.90251">
        <ele>212</ele>
        <time>2019-10-31T23:59:03.634Z</time>
      </trkpt>
      <trkpt lat="48.67866" lon="5.90275">
        <ele>212</ele>
        <time>2019-10-31T23:59:08.251Z</time>
      </trkpt>
      <trkpt lat="48.67886" lon="5.90296">
        <ele>212.1</ele>
        <time>2019-10-31T23:59:12.410Z</time>
      </trkpt>
      <trkpt lat="48.67906" lon="5.90319">
        <ele>212.3</ele>
        <time>2019-10-31T23:59:16.560Z</time>
      </trkpt>
      <trkpt lat="48.67928" lon="5.90335">
        <ele>211.9</ele>
        <time>2019-10-31T23:59:20.665Z</time>
      </trkpt>
      <trkpt lat="48.67949" lon="5.90355">
        <ele>211.9</ele>
        <time>2019-10-31T23:59:24.871Z</time>
      </trkpt>
      <trkpt lat="48.6797" lon="5.90378">
        <ele>211.9</ele>
        <time>2019-10-31T23:59:29.210Z</time>
      </trkpt>
      <trkpt lat="48.67993" lon="5.90402">
        <ele>211.9</ele>
        <time>2019-10-31T23:59:33.878Z</time>
      </trkpt>
      <trkpt lat="48.68017" lon="5.90429">
        <ele>212.3</ele>
        <time>2019-10-31T23:59:38.953Z</time>
      </trkpt>
      <trkpt lat="48.68041" lon="5.90452">
        <ele>212.3</ele>
        <time>2019-10-31T23:59:43.717Z</time>
      </trkpt>
      <trkpt lat="48.68066" lon="5.90475">
        <ele>213.4</ele>
        <time>2019-10-31T23:59:48.709Z</time>
      </trkpt>
      <trkpt lat="48.68086" lon="5.90502">
        <ele>213.4</ele>
        <time>2019-10-31T23:59:53.165Z</time>
      </trkpt>
      <trkpt lat="48.68106" lon="5.90525">
        <ele>214.4</ele>
        <time>2019-10-31T23:59:57.342Z</time>
      </trkpt>
      <trkpt lat="48.68124" lon="5.90545">
        <ele>214.7</ele>
        <time>2019-11-01T00:00:01.165Z</time>
      </trkpt>
      <trkpt lat="48.68146" lon="5.90562">
        <ele>215.7</ele>
        <time>2019-11-01T00:00:05.329Z</time>
      </trkpt>
      <trkpt lat="48.68164" lon="5.9058">
        <ele>216.1</ele>
        <time>2019-11-01T00:00:08.965Z</time>
      </trkpt>
      <trkpt lat="48.68184" lon="5.90599">
        <ele>215.8</ele>
        <time>2019-11-01T00:00:12.959Z</time>
      </trkpt>
      <trkpt lat="48.68212" lon="5.90615">
        <ele>214.6</ele>
        <time>2019-11-01T00:00:18.016Z</time>
      </trkpt>
      <trkpt lat="48.68236" lon="5.90633">
        <ele>214.2</ele>
        <time>2019-11-01T00:00:22.360Z</time>
      </trkpt>
      <trkpt lat="48.6825" lon="5.90647">
        <ele>213.8</ele>
        <time>2019-11-01T00:00:25.278Z</time>
      </trkpt>
      <trkpt lat="48.68267" lon="5.90668">
        <ele>213.8</ele>
        <time>2019-11-01T00:00:29.022Z</time>
      </trkpt>
      <trkpt lat="48.68287" lon="5.90694">
        <ele>213.8</ele>
        <time>2019-11-01T00:00:33.442Z</time>
      </trkpt>
      <trkpt lat="48.68309" lon="5.90716">
        <ele>213.5</ele>
        <time>2019-11-01T00:00:37.792Z</time>
      </trkpt>
      <trkpt lat="48.68333" lon="5.90737">
        <ele>214.3</ele>
        <time>2019-11-01T00:00:42.567Z</time>
      </trkpt>
      <trkpt lat="48.68355" lon="5.90761">
        <ele>213.8</ele>
        <time>2019-11-01T00:00:47.020Z</time>
      </trkpt>
      <trkpt lat="48.68372" lon="5.90785">
        <ele>213.7</ele>
        <time>2019-11-01T00:00:50.981Z</time>
      </trkpt>
      <trkpt lat="48.6839" lon="5.90812">
        <ele>213.7</ele>
        <time>2019-11-01T00:00:55.171Z</time>
      </trkpt>
      <trkpt lat="48.68415" lon="5.90839">
        <ele>212.1</ele>
        <time>2019-11-01T00:01:00.350Z</time>
      </trkpt>
      <trkpt lat="48.68442" lon="5.90861">
        <ele>211.7</ele>
        <time>2019-11-01T00:01:05.587Z</time>
      </trkpt>
      <trkpt lat="48.6846" lon="5.90895">
        <ele>211</ele>
        <time>2019-11-01T00:01:10.373Z</time>
      </trkpt>
      <trkpt lat="48.6847" lon="5.90931">
        <ele>210.9</ele>
        <time>2019-11-01T00:01:14.754Z</time>
      </trkpt>
      <trkpt lat="48.68483" lon="5.90957">
        <ele>213.1</ele>
        <time>2019-11-01T00:01:18.260Z</time>
      </trkpt>
      <trkpt lat="48.68497" lon="5.90984">
        <ele>213.4</ele>
        <time>2019-11-01T00:01:22.168Z</time>
      </trkpt>
      <trkpt lat="48.68515" lon="5.91015">
        <ele>213.5</ele>
        <time>2019-11-01T00:01:26.731Z</time>
      </trkpt>
      <trkpt lat="48.68533" lon="5.91045">
        <ele>213.8</ele>
        <time>2019-11-01T00:01:31.307Z</time>
      </trkpt>
      <trkpt lat="48.6855" lon="5.91078">
        <ele>213.9</ele>
        <time>2019-11-01T00:01:35.833Z</time>
      </trkpt>
      <trkpt lat="48.68568" lon="5.91114">
        <ele>214</ele>
        <time>2019-11-01T00:01:40.891Z</time>
      </trkpt>
      <trkpt lat="48.68584" lon="5.91144">
        <ele>214.2</ele>
        <time>2019-11-01T00:01:45.240Z</time>
      </trkpt>
      <trkpt lat="48.68599" lon="5.91172">
        <ele>214.2</ele>
        <time>2019-11-01T00:01:49.221Z</time>
      </trkpt>
      <trkpt lat="48.68613" lon="5.91212">
        <ele>214.5</ele>
        <time>2019-11-01T00:01:54.244Z</time>
      </trkpt>
      <trkpt lat="48.6863" lon="5.9125">
        <ele>213.7</ele>
        <time>2019-11-01T00:01:59.294Z</time>
      </trkpt>
      <trkpt lat="48.68644" lon="5.91289">
        <ele>213.7</ele>
        <time>2019-11-01T00:02:04.272Z</time>
      </trkpt>
      <trkpt lat="48.68657" lon="5.91325">
        <ele>213.1</ele>
        <time>2019-11-01T00:02:08.854Z</time>
      </trkpt>
      <trkpt lat="48.6867" lon="5.91362">
        <ele>214.1</ele>
        <time>2019-11-01T00:02:13.502Z</time>
      </trkpt>
      <trkpt lat="48.68683" lon="5.91401">
        <ele>214.2</ele>
        <time>2019-11-01T00:02:18.299Z</time>
      </trkpt>
      <trkpt lat="48.68694" lon="5.91436">
        <ele>214</ele>
        <time>2019-11-01T00:02:22.573Z</time>
      </trkpt>
      <trkpt lat="48.68704" lon="5.91474">
        <ele>214</ele>
        <time>2019-11-01T00:02:27.084Z</time>
      </trkpt>
      <trkpt lat="48.68712" lon="5.91512">
        <ele>213.6</ele>
        <time>2019-11-01T00:02:31.592Z</time>
      </trkpt>
      <trkpt lat="48.68721" lon="5.91549">
        <ele>213.6</ele>
        <time>2019-11-01T00:02:35.938Z</time>
      </trkpt>
      <trkpt lat="48.6873" lon="5.91582">
        <ele>213.6</ele>
        <time>2019-11-01T00:02:39.979Z</time>
      </trkpt>
      <trkpt lat="48.6874" lon="5.91615">
        <ele>213</ele>
        <time>2019-11-01T00:02:43.936Z</time>
      </trkpt>
      <trkpt lat="48.68748" lon="5.91655">
        <ele>212.9</ele>
        <time>2019-11-01T00:02:48.587Z</time>
      </trkpt>
      <trkpt lat="48.68757" lon="5.91694">
        <ele>213.2</ele>
        <time>2019-11-01T00:02:53.229Z</time>
      </trkpt>
      <trkpt lat="48.68768" lon="5.91734">
        <ele>213.8</ele>
        <time>2019-11-01T00:02:57.914Z</time>
      </trkpt>
      <trkpt lat="48.68772" lon="5.91774">
        <ele>213.9</ele>
        <time>2019-11-01T00:03:02.414Z</time>
      </trkpt>
      <trkpt lat="48.68775" lon="5.91813">
        <ele>213.9</ele>
        <time>2019-11-01T00:03:06.815Z</time>
      </trkpt>
      <trkpt lat="48.68779" lon="5.91847">
        <ele>214.3</ele>
        <time>2019-11-01T00:03:10.680Z</time>
      </trkpt>
      <trkpt lat="48.68785" lon="5.91887">
        <ele>214</ele>
        <time>2019-11-01T00:03:15.188Z</time>
      </trkpt>
      <trkpt lat="48.68785" lon="5.91924">
        <ele>214</ele>
        <time>2019-11-01T00:03:19.319Z</time>
      </trkpt>
      <trkpt lat="48.68788" lon="5.91961">
        <ele>213.2</ele>
        <time>2019-11-01T00:03:23.498Z</time>
      </trkpt>
      <trkpt lat="48.68794" lon="5.91999">
        <ele>213.9</ele>
        <time>2019-11-01T00:03:27.792Z</time>
      </trkpt>
      <trkpt lat="48.68798" lon="5.92038">
        <ele>213.7</ele>
        <time>2019-11-01T00:03:32.210Z</time>
      </trkpt>
      <trkpt lat="48.68801" lon="5.9208">
        <ele>213.7</ele>
        <time>2019-11-01T00:03:36.825Z</time>
      </trkpt>
      <trkpt lat="48.68802" lon="5.92117">
        <ele>213.7</ele>
        <time>2019-11-01T00:03:40.981Z</time>
      </trkpt>
      <trkpt lat="48.68803" lon="5.92153">
        <ele>213.7</ele>
        <time>2019-11-01T00:03:44.991Z</time>
      </trkpt>
      <trkpt lat="48.68806" lon="5.9219">
        <ele>212.8</ele>
        <time>2019-11-01T00:03:49.108Z</time>
      </trkpt>
      <trkpt lat="48.68809" lon="5.92229">
        <ele>213.5</ele>
        <time>2019-11-01T00:03:53.527Z</time>
      </trkpt>
      <trkpt lat="48.6881" lon="5.92266">
        <ele>214.1</ele>
        <time>2019-11-01T00:03:57.649Z</time>
      </trkpt>
      <trkpt lat="48.68811" lon="5.92307">
        <ele>214.2</ele>
        <time>2019-11-01T00:04:02.126Z</time>
      </trkpt>
      <trkpt lat="48.68811" lon="5.92344">
        <ele>213.6</ele>
        <time>2019-11-01T00:04:06.212Z</time>
      </trkpt>
      <trkpt lat="48.68812" lon="5.92378">
        <ele>213.9</ele>
        <time>2019-11-01T00:04:10.027Z</time>
      </trkpt>
      <trkpt lat="48.68815" lon="5.92414">
        <ele>213.4</ele>
        <time>2019-11-01T00:04:14.065Z</time>
      </trkpt>
      <trkpt lat="48.68815" lon="5.92457">
        <ele>213.4</ele>
        <time>2019-11-01T00:04:18.906Z</time>
      </trkpt>
      <trkpt lat="48.68815" lon="5.92498">
        <ele>214</ele>
        <time>2019-11-01T00:04:23.436Z</time>
      </trkpt>
      <trkpt lat="48.68818" lon="5.92538">
        <ele>213.5</ele>
        <time>2019-11-01T00:04:27.903Z</time>
      </trkpt>
      <trkpt lat="48.6882" lon="5.92579">
        <ele>213.5</ele>
        <time>2019-11-01T00:04:32.421Z</time>
      </trkpt>
      <trkpt lat="48.68824" lon="5.92617">
        <ele>213.7</ele>
        <time>2019-11-01T00:04:36.778Z</time>
      </trkpt>
      <trkpt lat="48.68821" lon="5.92657">
        <ele>213.7</ele>
        <time>2019-11-01T00:04:41.157Z</time>
      </trkpt>
      <trkpt lat="48.68823" lon="5.92694">
        <ele>213.6</ele>
        <time>2019-11-01T00:04:45.291Z</time>
      </trkpt>
      <trkpt lat="48.68825" lon="5.92733">
        <ele>214.3</ele>
        <time>2019-11-01T00:04:49.703Z</time>
      </trkpt>
      <trkpt lat="48.68825" lon="5.92772">
        <ele>213.4</ele>
        <time>2019-11-01T00:04:53.991Z</time>
      </trkpt>
      <trkpt lat="48.68825" lon="5.92809">
        <ele>213.6</ele>
        <time>2019-11-01T00:04:58.100Z</time>
      </trkpt>
      <trkpt lat="48.68824" lon="5.92849">
        <ele>213.6</ele>
        <time>2019-11-01T00:05:02.612Z</time>
      </trkpt>
      <trkpt lat="48.68825" lon="5.92894">
        <ele>213.6</ele>
        <time>2019-11-01T00:05:07.588Z</time>
      </trkpt>
      <trkpt lat="48.68826" lon="5.92937">
        <ele>213.4</ele>
        <time>2019-11-01T00:05:12.304Z</time>
      </trkpt>
      <trkpt lat="48.68831" lon="5.9298">
        <ele>213.4</ele>
        <time>2019-11-01T00:05:17.179Z</time>
      </trkpt>
      <trkpt lat="48.68833" lon="5.93021">
        <ele>213.7</ele>
        <time>2019-11-01T00:05:21.739Z</time>
      </trkpt>
      <trkpt lat="48.68834" lon="5.93064">
        <ele>213.7</ele>
        <time>2019-11-01T00:05:26.505Z</time>
      </trkpt>
      <trkpt lat="48.68837" lon="5.931">
        <ele>214.1</ele>
        <time>2019-11-01T00:05:30.547Z</time>
      </trkpt>
      <trkpt lat="48.68838" lon="5.93139">
        <ele>213.5</ele>
        <time>2019-11-01T00:05:34.881Z</time>
      </trkpt>
      <trkpt lat="48.68842" lon="5.93182">
        <ele>213.5</ele>
        <time>2019-11-01T00:05:39.721Z</time>
      </trkpt>
      <trkpt lat="48.6885" lon="5.93225">
        <ele>212.8</ele>
        <time>2019-11-01T00:05:44.606Z</time>
      </trkpt>
      <trkpt lat="48.68857" lon="5.93264">
        <ele>212.9</ele>
        <time>2019-11-01T00:05:49.104Z</time>
      </trkpt>
      <trkpt lat="48.68861" lon="5.93305">
        <ele>213.5</ele>
        <time>2019-11-01T00:05:53.774Z</time>
      </trkpt>
      <trkpt lat="48.68867" lon="5.93341">
        <ele>214.1</ele>
        <time>2019-11-01T00:05:57.895Z</time>
      </trkpt>
      <trkpt lat="48.68868" lon="5.93383">
        <ele>214.1</ele>
        <time>2019-11-01T00:06:02.545Z</time>
      </trkpt>
      <trkpt lat="48.68873" lon="5.93421">
        <ele>213</ele>
        <time>2019-11-01T00:06:06.833Z</time>
      </trkpt>
      <trkpt lat="48.68877" lon="5.93464">
        <ele>213.4</ele>
        <time>2019-11-01T00:06:11.648Z</time>
      </trkpt>
      <trkpt lat="48.68885" lon="5.93501">
        <ele>213.5</ele>
        <time>2019-11-01T00:06:15.910Z</time>
      </trkpt>
      <trkpt lat="48.68893" lon="5.9354">
        <ele>213.6</ele>
        <time>2019-11-01T00:06:20.518Z</time>
      </trkpt>
      <trkpt lat="48.68901" lon="5.93572">
        <ele>213.2</ele>
        <time>2019-11-01T00:06:24.280Z</time>
      </trkpt>
      <trkpt lat="48.68912" lon="5.93609">
        <ele>213.7</ele>
        <time>2019-11-01T00:06:28.786Z</time>
      </trkpt>
      <trkpt lat="48.68921" lon="5.9365">
        <ele>213.2</ele>
        <time>2019-11-01T00:06:33.641Z</time>
      </trkpt>
      <trkpt lat="48.6893" lon="5.93691">
        <ele>212.9</ele>
        <time>2019-11-01T00:06:38.365Z</time>
      </trkpt>
      <trkpt lat="48.68937" lon="5.93731">
        <ele>212.9</ele>
        <time>2019-11-01T00:06:42.993Z</time>
      </trkpt>
      <trkpt lat="48.68949" lon="5.9377">
        <ele>213.1</ele>
        <time>2019-11-01T00:06:47.746Z</time>
      </trkpt>
      <trkpt lat="48.68958" lon="5.93811">
        <ele>213.2</ele>
        <time>2019-11-01T00:06:52.538Z</time>
      </trkpt>
      <trkpt lat="48.68967" lon="5.93847">
        <ele>213.9</ele>
        <time>2019-11-01T00:06:56.864Z</time>
      </trkpt>
      <trkpt lat="48.68978" lon="5.93882">
        <ele>213.6</ele>
        <time>2019-11-01T00:07:01.135Z</time>
      </trkpt>
      <trkpt lat="48.68989" lon="5.93917">
        <ele>213.3</ele>
        <time>2019-11-01T00:07:05.422Z</time>
      </trkpt>
      <trkpt lat="48.69002" lon="5.93957">
        <ele>213.7</ele>
        <time>2019-11-01T00:07:10.375Z</time>
      </trkpt>
      <trkpt lat="48.69014" lon="5.93996">
        <ele>213.7</ele>
        <time>2019-11-01T00:07:15.192Z</time>
      </trkpt>
      <trkpt lat="48.69024" lon="5.94034">
        <ele>213.7</ele>
        <time>2019-11-01T00:07:19.685Z</time>
      </trkpt>
      <trkpt lat="48.69037" lon="5.94067">
        <ele>213.7</ele>
        <time>2019-11-01T00:07:24.014Z</time>
      </trkpt>
      <trkpt lat="48.69051" lon="5.94099">
        <ele>213</ele>
        <time>2019-11-01T00:07:28.193Z</time>
      </trkpt>
      <trkpt lat="48.69068" lon="5.94137">
        <ele>212.7</ele>
        <time>2019-11-01T00:07:33.346Z</time>
      </trkpt>
      <trkpt lat="48.69079" lon="5.9417">
        <ele>213.3</ele>
        <time>2019-11-01T00:07:37.491Z</time>
      </trkpt>
      <trkpt lat="48.69093" lon="5.94203">
        <ele>213.5</ele>
        <time>2019-11-01T00:07:41.766Z</time>
      </trkpt>
      <trkpt lat="48.69107" lon="5.94231">
        <ele>213</ele>
        <time>2019-11-01T00:07:45.651Z</time>
      </trkpt>
      <trkpt lat="48.69123" lon="5.94246">
        <ele>212.2</ele>
        <time>2019-11-01T00:07:48.793Z</time>
      </trkpt>
      <trkpt lat="48.6913" lon="5.9426">
        <ele>212.1</ele>
        <time>2019-11-01T00:07:50.776Z</time>
      </trkpt>
      <trkpt lat="48.69126" lon="5.94289">
        <ele>212.1</ele>
        <time>2019-11-01T00:07:54.101Z</time>
      </trkpt>
      <trkpt lat="48.69138" lon="5.94311">
        <ele>211.6</ele>
        <time>2019-11-01T00:07:57.290Z</time>
      </trkpt>
      <trkpt lat="48.6915" lon="5.94336">
        <ele>212.8</ele>
        <time>2019-11-01T00:08:00.721Z</time>
      </trkpt>
      <trkpt lat="48.69145" lon="5.94361">
        <ele>212.9</ele>
        <time>2019-11-01T00:08:03.663Z</time>
      </trkpt>
      <trkpt lat="48.69129" lon="5.94382">
        <ele>211.8</ele>
        <time>2019-11-01T00:08:07.218Z</time>
      </trkpt>
      <trkpt lat="48.69121" lon="5.94406">
        <ele>211.2</ele>
        <time>2019-11-01T00:08:10.214Z</time>
      </trkpt>
      <trkpt lat="48.69139" lon="5.94428">
        <ele>211.2</ele>
        <time>2019-11-01T00:08:13.986Z</time>
      </trkpt>
      <trkpt lat="48.6916" lon="5.94452">
        <ele>210.5</ele>
        <time>2019-11-01T00:08:18.378Z</time>
      </trkpt>
      <trkpt lat="48.69182" lon="5.9448">
        <ele>210.7</ele>
        <time>2019-11-01T00:08:23.358Z</time>
      </trkpt>
      <trkpt lat="48.69207" lon="5.94506">
        <ele>210.7</ele>
        <time>2019-11-01T00:08:28.415Z</time>
      </trkpt>
      <trkpt lat="48.69229" lon="5.94532">
        <ele>210.7</ele>
        <time>2019-11-01T00:08:33.063Z</time>
      </trkpt>
      <trkpt lat="48.69249" lon="5.94566">
        <ele>210.3</ele>
        <time>2019-11-01T00:08:38.114Z</time>
      </trkpt>
      <trkpt lat="48.69269" lon="5.94599">
        <ele>210.3</ele>
        <time>2019-11-01T00:08:43.112Z</time>
      </trkpt>
      <trkpt lat="48.69285" lon="5.9463">
        <ele>209.9</ele>
        <time>2019-11-01T00:08:47.509Z</time>
      </trkpt>
      <trkpt lat="48.69303" lon="5.94659">
        <ele>210.7</ele>
        <time>2019-11-01T00:08:51.855Z</time>
      </trkpt>
      <trkpt lat="48.69321" lon="5.94686">
        <ele>209.7</ele>
        <time>2019-11-01T00:08:56.159Z</time>
      </trkpt>
      <trkpt lat="48.69341" lon="5.94718">
        <ele>209.7</ele>
        <time>2019-11-01T00:09:01.086Z</time>
      </trkpt>
      <trkpt lat="48.69359" lon="5.94748">
        <ele>210.5</ele>
        <time>2019-11-01T00:09:05.492Z</time>
      </trkpt>
      <trkpt lat="48.69377" lon="5.94775">
        <ele>209.3</ele>
        <time>2019-11-01T00:09:09.892Z</time>
      </trkpt>
      <trkpt lat="48.69397" lon="5.94803">
        <ele>210.6</ele>
        <time>2019-11-01T00:09:14.362Z</time>
      </trkpt>
      <trkpt lat="48.69413" lon="5.94835">
        <ele>210.4</ele>
        <time>2019-11-01T00:09:18.846Z</time>
      </trkpt>
      <trkpt lat="48.69424" lon="5.94865">
        <ele>209.9</ele>
        <time>2019-11-01T00:09:22.714Z</time>
      </trkpt>
      <trkpt lat="48.69426" lon="5.94905">
        <ele>209.7</ele>
        <time>2019-11-01T00:09:27.133Z</time>
      </trkpt>
      <trkpt lat="48.69432" lon="5.94943">
        <ele>210</ele>
        <time>2019-11-01T00:09:31.416Z</time>
      </trkpt>
      <trkpt lat="48.69443" lon="5.94974">
        <ele>210</ele>
        <time>2019-11-01T00:09:35.382Z</time>
      </trkpt>
      <trkpt lat="48.69458" lon="5.95005">
        <ele>209.7</ele>
        <time>2019-11-01T00:09:39.675Z</time>
      </trkpt>
      <trkpt lat="48.69471" lon="5.95042">
        <ele>209.7</ele>
        <time>2019-11-01T00:09:44.364Z</time>
      </trkpt>
      <trkpt lat="48.69482" lon="5.95078">
        <ele>209.9</ele>
        <time>2019-11-01T00:09:48.646Z</time>
      </trkpt>
      <trkpt lat="48.69489" lon="5.95115">
        <ele>209.9</ele>
        <time>2019-11-01T00:09:52.979Z</time>
      </trkpt>
      <trkpt lat="48.69497" lon="5.95156">
        <ele>209.8</ele>
        <time>2019-11-01T00:09:57.683Z</time>
      </trkpt>
      <trkpt lat="48.69508" lon="5.95193">
        <ele>209.9</ele>
        <time>2019-11-01T00:10:02.215Z</time>
      </trkpt>
      <trkpt lat="48.69517" lon="5.95228">
        <ele>209.9</ele>
        <time>2019-11-01T00:10:06.315Z</time>
      </trkpt>
      <trkpt lat="48.6953" lon="5.9526">
        <ele>210.1</ele>
        <time>2019-11-01T00:10:10.616Z</time>
      </trkpt>
      <trkpt lat="48.69544" lon="5.953">
        <ele>210.3</ele>
        <time>2019-11-01T00:10:15.601Z</time>
      </trkpt>
      <trkpt lat="48.6956" lon="5.95339">
        <ele>210.4</ele>
        <time>2019-11-01T00:10:20.640Z</time>
      </trkpt>
      <trkpt lat="48.69576" lon="5.95367">
        <ele>209.3</ele>
        <time>2019-11-01T00:10:24.857Z</time>
      </trkpt>
      <trkpt lat="48.69601" lon="5.95385">
        <ele>209</ele>
        <time>2019-11-01T00:10:29.482Z</time>
      </trkpt>
      <trkpt lat="48.69627" lon="5.95404">
        <ele>209.4</ele>
        <time>2019-11-01T00:10:34.242Z</time>
      </trkpt>
      <trkpt lat="48.69649" lon="5.95426">
        <ele>210.4</ele>
        <time>2019-11-01T00:10:38.668Z</time>
      </trkpt>
      <trkpt lat="48.69671" lon="5.95452">
        <ele>210.7</ele>
        <time>2019-11-01T00:10:43.501Z</time>
      </trkpt>
      <trkpt lat="48.69691" lon="5.95481">
        <ele>209.9</ele>
        <time>2019-11-01T00:10:48.086Z</time>
      </trkpt>
      <trkpt lat="48.69703" lon="5.95511">
        <ele>209.1</ele>
        <time>2019-11-01T00:10:51.998Z</time>
      </trkpt>
      <trkpt lat="48.69716" lon="5.95553">
        <ele>209.4</ele>
        <time>2019-11-01T00:10:57.105Z</time>
      </trkpt>
      <trkpt lat="48.69724" lon="5.95592">
        <ele>208.8</ele>
        <time>2019-11-01T00:11:01.654Z</time>
      </trkpt>
      <trkpt lat="48.69721" lon="5.95632">
        <ele>209.4</ele>
        <time>2019-11-01T00:11:06.189Z</time>
      </trkpt>
      <trkpt lat="48.6973" lon="5.95659">
        <ele>209.4</ele>
        <time>2019-11-01T00:11:09.547Z</time>
      </trkpt>
      <trkpt lat="48.69757" lon="5.95646">
        <ele>208.7</ele>
        <time>2019-11-01T00:11:14.296Z</time>
      </trkpt>
      <trkpt lat="48.69782" lon="5.95639">
        <ele>208.7</ele>
        <time>2019-11-01T00:11:18.580Z</time>
      </trkpt>
      <trkpt lat="48.6981" lon="5.9564">
        <ele>208.8</ele>
        <time>2019-11-01T00:11:23.190Z</time>
      </trkpt>
      <trkpt lat="48.69834" lon="5.95635">
        <ele>210</ele>
        <time>2019-11-01T00:11:27.330Z</time>
      </trkpt>
      <trkpt lat="48.6986" lon="5.95634">
        <ele>209.3</ele>
        <time>2019-11-01T00:11:31.604Z</time>
      </trkpt>
      <trkpt lat="48.69882" lon="5.9564">
        <ele>209.3</ele>
        <time>2019-11-01T00:11:35.436Z</time>
      </trkpt>
      <trkpt lat="48.69913" lon="5.95645">
        <ele>208.9</ele>
        <time>2019-11-01T00:11:40.690Z</time>
      </trkpt>
      <trkpt lat="48.69939" lon="5.95645">
        <ele>209.8</ele>
        <time>2019-11-01T00:11:45.081Z</time>
      </trkpt>
      <trkpt lat="48.69969" lon="5.95648">
        <ele>209.9</ele>
        <time>2019-11-01T00:11:50.071Z</time>
      </trkpt>
      <trkpt lat="48.69992" lon="5.95646">
        <ele>209.6</ele>
        <time>2019-11-01T00:11:53.965Z</time>
      </trkpt>
      <trkpt lat="48.70013" lon="5.95647">
        <ele>209.6</ele>
        <time>2019-11-01T00:11:57.447Z</time>
      </trkpt>
      <trkpt lat="48.70038" lon="5.95645">
        <ele>210.1</ele>
        <time>2019-11-01T00:12:01.807Z</time>
      </trkpt>
      <trkpt lat="48.70066" lon="5.95642">
        <ele>210.4</ele>
        <time>2019-11-01T00:12:06.376Z</time>
      </trkpt>
      <trkpt lat="48.70091" lon="5.95645">
        <ele>210.7</ele>
        <time>2019-11-01T00:12:10.646Z</time>
      </trkpt>
      <trkpt lat="48.70116" lon="5.95654">
        <ele>209.9</ele>
        <time>2019-11-01T00:12:14.952Z</time>
      </trkpt>
      <trkpt lat="48.70139" lon="5.9567">
        <ele>209.9</ele>
        <time>2019-11-01T00:12:19.181Z</time>
      </trkpt>
      <trkpt lat="48.70164" lon="5.95691">
        <ele>209.9</ele>
        <time>2019-11-01T00:12:24.069Z</time>
      </trkpt>
      <trkpt lat="48.70193" lon="5.95717">
        <ele>210.9</ele>
        <time>2019-11-01T00:12:29.685Z</time>
      </trkpt>
      <trkpt lat="48.70217" lon="5.95739">
        <ele>209.7</ele>
        <time>2019-11-01T00:12:34.486Z</time>
      </trkpt>
      <trkpt lat="48.70238" lon="5.95767">
        <ele>210.5</ele>
        <time>2019-11-01T00:12:39.182Z</time>
      </trkpt>
      <trkpt lat="48.70262" lon="5.9579">
        <ele>210.2</ele>
        <time>2019-11-01T00:12:43.870Z</time>
      </trkpt>
      <trkpt lat="48.70284" lon="5.95817">
        <ele>210.2</ele>
        <time>2019-11-01T00:12:48.623Z</time>
      </trkpt>
      <trkpt lat="48.70304" lon="5.95842">
        <ele>210.7</ele>
        <time>2019-11-01T00:12:52.992Z</time>
      </trkpt>
      <trkpt lat="48.70326" lon="5.95862">
        <ele>210.3</ele>
        <time>2019-11-01T00:12:57.347Z</time>
      </trkpt>
      <trkpt lat="48.70346" lon="5.95883">
        <ele>210.1</ele>
        <time>2019-11-01T00:13:01.405Z</time>
      </trkpt>
      <trkpt lat="48.70366" lon="5.9591">
        <ele>210.1</ele>
        <time>2019-11-01T00:13:05.908Z</time>
      </trkpt>
      <trkpt lat="48.70384" lon="5.95939">
        <ele>210.1</ele>
        <time>2019-11-01T00:13:10.341Z</time>
      </trkpt>
      <trkpt lat="48.70407" lon="5.95966">
        <ele>210.6</ele>
        <time>2019-11-01T00:13:15.248Z</time>
      </trkpt>
      <trkpt lat="48.70429" lon="5.95992">
        <ele>209.9</ele>
        <time>2019-11-01T00:13:19.869Z</time>
      </trkpt>
      <trkpt lat="48.70451" lon="5.96015">
        <ele>210.1</ele>
        <time>2019-11-01T00:13:24.442Z</time>
      </trkpt>
      <trkpt lat="48.70471" lon="5.9604">
        <ele>209.8</ele>
        <time>2019-11-01T00:13:28.771Z</time>
      </trkpt>
      <trkpt lat="48.70486" lon="5.96066">
        <ele>209.8</ele>
        <time>2019-11-01T00:13:32.604Z</time>
      </trkpt>
      <trkpt lat="48.70505" lon="5.96088">
        <ele>209.8</ele>
        <time>2019-11-01T00:13:36.733Z</time>
      </trkpt>
      <trkpt lat="48.70525" lon="5.96112">
        <ele>209.8</ele>
        <time>2019-11-01T00:13:40.906Z</time>
      </trkpt>
      <trkpt lat="48.70548" lon="5.96141">
        <ele>210.2</ele>
        <time>2019-11-01T00:13:45.909Z</time>
      </trkpt>
      <trkpt lat="48.70569" lon="5.96171">
        <ele>211</ele>
        <time>2019-11-01T00:13:50.865Z</time>
      </trkpt>
      <trkpt lat="48.70591" lon="5.96202">
        <ele>211</ele>
        <time>2019-11-01T00:13:55.887Z</time>
      </trkpt>
      <trkpt lat="48.70609" lon="5.9623">
        <ele>210</ele>
        <time>2019-11-01T00:14:00.206Z</time>
      </trkpt>
      <trkpt lat="48.70626" lon="5.96257">
        <ele>209.7</ele>
        <time>2019-11-01T00:14:04.261Z</time>
      </trkpt>
      <trkpt lat="48.70641" lon="5.96281">
        <ele>209.9</ele>
        <time>2019-11-01T00:14:08.041Z</time>
      </trkpt>
      <trkpt lat="48.70654" lon="5.96307">
        <ele>210.3</ele>
        <time>2019-11-01T00:14:11.694Z</time>
      </trkpt>
      <trkpt lat="48.70668" lon="5.96326">
        <ele>210.3</ele>
        <time>2019-11-01T00:14:14.840Z</time>
      </trkpt>
      <trkpt lat="48.70686" lon="5.96351">
        <ele>209.7</ele>
        <time>2019-11-01T00:14:18.879Z</time>
      </trkpt>
      <trkpt lat="48.70714" lon="5.96386">
        <ele>209.7</ele>
        <time>2019-11-01T00:14:25.068Z</time>
      </trkpt>
      <trkpt lat="48.70736" lon="5.96413">
        <ele>210.2</ele>
        <time>2019-11-01T00:14:29.763Z</time>
      </trkpt>
      <trkpt lat="48.70762" lon="5.96438">
        <ele>210.2</ele>
        <time>2019-11-01T00:14:34.944Z</time>
      </trkpt>
      <trkpt lat="48.70779" lon="5.96468">
        <ele>210.8</ele>
        <time>2019-11-01T00:14:39.355Z</time>
      </trkpt>
      <trkpt lat="48.70794" lon="5.96498">
        <ele>210.8</ele>
        <time>2019-11-01T00:14:43.539Z</time>
      </trkpt>
      <trkpt lat="48.70802" lon="5.96533">
        <ele>210.3</ele>
        <time>2019-11-01T00:14:47.592Z</time>
      </trkpt>
      <trkpt lat="48.70815" lon="5.96569">
        <ele>210.3</ele>
        <time>2019-11-01T00:14:52.116Z</time>
      </trkpt>
      <trkpt lat="48.7083" lon="5.96592">
        <ele>212</ele>
        <time>2019-11-01T00:14:55.847Z</time>
      </trkpt>
      <trkpt lat="48.70851" lon="5.966">
        <ele>213.1</ele>
        <time>2019-11-01T00:14:59.372Z</time>
      </trkpt>
      <trkpt lat="48.70869" lon="5.96597">
        <ele>214.1</ele>
        <time>2019-11-01T00:15:02.508Z</time>
      </trkpt>
      <trkpt lat="48.70885" lon="5.96587">
        <ele>214.3</ele>
        <time>2019-11-01T00:15:05.463Z</time>
      </trkpt>
      <trkpt lat="48.70899" lon="5.96572">
        <ele>215.4</ele>
        <time>2019-11-01T00:15:08.252Z</time>
      </trkpt>
      <trkpt lat="48.70908" lon="5.96558">
        <ele>215.4</ele>
        <time>2019-11-01T00:15:10.403Z</time>
      </trkpt>
      <trkpt lat="48.70918" lon="5.9654">
        <ele>216.8</ele>
        <time>2019-11-01T00:15:13.004Z</time>
      </trkpt>
      <trkpt lat="48.70924" lon="5.96513">
        <ele>217</ele>
        <time>2019-11-01T00:15:16.193Z</time>
      </trkpt>
      <trkpt lat="48.70928" lon="5.96472">
        <ele>215.9</ele>
        <time>2019-11-01T00:15:20.795Z</time>
      </trkpt>
      <trkpt lat="48.7093" lon="5.96428">
        <ele>214.5</ele>
        <time>2019-11-01T00:15:25.740Z</time>
      </trkpt>
      <trkpt lat="48.70929" lon="5.96383">
        <ele>213.2</ele>
        <time>2019-11-01T00:15:30.771Z</time>
      </trkpt>
      <trkpt lat="48.70921" lon="5.96339">
        <ele>211.7</ele>
        <time>2019-11-01T00:15:35.755Z</time>
      </trkpt>
      <trkpt lat="48.70904" lon="5.96295">
        <ele>212.1</ele>
        <time>2019-11-01T00:15:41.362Z</time>
      </trkpt>
      <trkpt lat="48.70891" lon="5.9626">
        <ele>211.3</ele>
        <time>2019-11-01T00:15:45.902Z</time>
      </trkpt>
      <trkpt lat="48.70883" lon="5.96236">
        <ele>210.4</ele>
        <time>2019-11-01T00:15:48.822Z</time>
      </trkpt>
      <trkpt lat="48.70871" lon="5.96203">
        <ele>210.4</ele>
        <time>2019-11-01T00:15:53.070Z</time>
      </trkpt>
      <trkpt lat="48.70864" lon="5.96166">
        <ele>210.6</ele>
        <time>2019-11-01T00:15:57.351Z</time>
      </trkpt>
      <trkpt lat="48.70852" lon="5.9613">
        <ele>210.2</ele>
        <time>2019-11-01T00:16:01.768Z</time>
      </trkpt>
      <trkpt lat="48.70834" lon="5.96096">
        <ele>210.9</ele>
        <time>2019-11-01T00:16:06.614Z</time>
      </trkpt>
      <trkpt lat="48.7081" lon="5.96067">
        <ele>210.9</ele>
        <time>2019-11-01T00:16:11.744Z</time>
      </trkpt>
      <trkpt lat="48.70795" lon="5.96051">
        <ele>211.6</ele>
        <time>2019-11-01T00:16:14.869Z</time>
      </trkpt>
      <trkpt lat="48.70773" lon="5.96029">
        <ele>210.8</ele>
        <time>2019-11-01T00:16:19.268Z</time>
      </trkpt>
      <trkpt lat="48.70752" lon="5.96019">
        <ele>210.8</ele>
        <time>2019-11-01T00:16:23.047Z</time>
      </trkpt>
      <trkpt lat="48.70732" lon="5.96007">
        <ele>210.4</ele>
        <time>2019-11-01T00:16:26.630Z</time>
      </trkpt>
      <trkpt lat="48.70707" lon="5.95999">
        <ele>210.4</ele>
        <time>2019-11-01T00:16:30.848Z</time>
      </trkpt>
      <trkpt lat="48.70692" lon="5.95973">
        <ele>210.4</ele>
        <time>2019-11-01T00:16:34.796Z</time>
      </trkpt>
      <trkpt lat="48.7068" lon="5.95938">
        <ele>210.4</ele>
        <time>2019-11-01T00:16:39.118Z</time>
      </trkpt>
      <trkpt lat="48.7068" lon="5.95901">
        <ele>210.8</ele>
        <time>2019-11-01T00:16:43.215Z</time>
      </trkpt>
      <trkpt lat="48.70694" lon="5.95876">
        <ele>210.9</ele>
        <time>2019-11-01T00:16:46.873Z</time>
      </trkpt>
      <trkpt lat="48.70712" lon="5.95859">
        <ele>211.5</ele>
        <time>2019-11-01T00:16:50.483Z</time>
      </trkpt>
      <trkpt lat="48.7073" lon="5.95841">
        <ele>212</ele>
        <time>2019-11-01T00:16:54.137Z</time>
      </trkpt>
      <trkpt lat="48.70745" lon="5.95826">
        <ele>213.1</ele>
        <time>2019-11-01T00:16:57.164Z</time>
      </trkpt>
      <trkpt lat="48.70762" lon="5.95813">
        <ele>213.4</ele>
        <time>2019-11-01T00:17:00.407Z</time>
      </trkpt>
      <trkpt lat="48.70785" lon="5.95794">
        <ele>211.3</ele>
        <time>2019-11-01T00:17:04.699Z</time>
      </trkpt>
      <trkpt lat="48.7081" lon="5.95766">
        <ele>210.6</ele>
        <time>2019-11-01T00:17:09.881Z</time>
      </trkpt>
      <trkpt lat="48.70833" lon="5.95738">
        <ele>210.5</ele>
        <time>2019-11-01T00:17:14.897Z</time>
      </trkpt>
      <trkpt lat="48.70853" lon="5.95717">
        <ele>210.5</ele>
        <time>2019-11-01T00:17:18.989Z</time>
      </trkpt>
      <trkpt lat="48.70875" lon="5.957">
        <ele>211.4</ele>
        <time>2019-11-01T00:17:23.213Z</time>
      </trkpt>
      <trkpt lat="48.70897" lon="5.95681">
        <ele>210.2</ele>
        <time>2019-11-01T00:17:27.397Z</time>
      </trkpt>
      <trkpt lat="48.70919" lon="5.95674">
        <ele>210.2</ele>
        <time>2019-11-01T00:17:31.214Z</time>
      </trkpt>
      <trkpt lat="48.7093" lon="5.9567">
        <ele>210.1</ele>
        <time>2019-11-01T00:17:33.126Z</time>
      </trkpt>
      <trkpt lat="48.70931" lon="5.95669">
        <ele>209.6</ele>
        <time>2019-11-01T00:17:33.246Z</time>
      </trkpt>
      <trkpt lat="48.70929" lon="5.95668">
        <ele>209.6</ele>
        <time>2019-11-01T00:17:33.551Z</time>
      </trkpt>
      <trkpt lat="48.70932" lon="5.95667">
        <ele>210</ele>
        <time>2019-11-01T00:17:33.983Z</time>
      </trkpt>
      <trkpt lat="48.70921" lon="5.95664">
        <ele>210.1</ele>
        <time>2019-11-01T00:17:35.749Z</time>
      </trkpt>
      <trkpt lat="48.70922" lon="5.95662">
        <ele>210.5</ele>
        <time>2019-11-01T00:17:36.036Z</time>
      </trkpt>
      <trkpt lat="48.70928" lon="5.95658">
        <ele>210.7</ele>
        <time>2019-11-01T00:17:37.037Z</time>
      </trkpt>
      <trkpt lat="48.70932" lon="5.95661">
        <ele>210.5</ele>
        <time>2019-11-01T00:17:37.884Z</time>
      </trkpt>
      <trkpt lat="48.70933" lon="5.95663">
        <ele>210.3</ele>
        <time>2019-11-01T00:17:38.109Z</time>
      </trkpt>
      <trkpt lat="48.70939" lon="5.95654">
        <ele>210.3</ele>
        <time>2019-11-01T00:17:39.490Z</time>
      </trkpt>
      <trkpt lat="48.70952" lon="5.95647">
        <ele>210.5</ele>
        <time>2019-11-01T00:17:41.787Z</time>
      </trkpt>
      <trkpt lat="48.7096" lon="5.95643">
        <ele>210.8</ele>
        <time>2019-11-01T00:17:43.171Z</time>
      </trkpt>
      <trkpt lat="48.70969" lon="5.9563">
        <ele>211</ele>
        <time>2019-11-01T00:17:45.334Z</time>
      </trkpt>
      <trkpt lat="48.70977" lon="5.95609">
        <ele>211.3</ele>
        <time>2019-11-01T00:17:47.957Z</time>
      </trkpt>
      <trkpt lat="48.7098" lon="5.95595">
        <ele>211.8</ele>
        <time>2019-11-01T00:17:49.659Z</time>
      </trkpt>
      <trkpt lat="48.70988" lon="5.95575">
        <ele>213.4</ele>
        <time>2019-11-01T00:17:52.212Z</time>
      </trkpt>
      <trkpt lat="48.70998" lon="5.95557">
        <ele>213.4</ele>
        <time>2019-11-01T00:17:54.796Z</time>
      </trkpt>
      <trkpt lat="48.71001" lon="5.95533">
        <ele>214.6</ele>
        <time>2019-11-01T00:17:57.514Z</time>
      </trkpt>
      <trkpt lat="48.71009" lon="5.95508">
        <ele>215.2</ele>
        <time>2019-11-01T00:18:00.630Z</time>
      </trkpt>
      <trkpt lat="48.71024" lon="5.95494">
        <ele>215</ele>
        <time>2019-11-01T00:18:03.554Z</time>
      </trkpt>
      <trkpt lat="48.71039" lon="5.95487">
        <ele>215</ele>
        <time>2019-11-01T00:18:06.303Z</time>
      </trkpt>
      <trkpt lat="48.71053" lon="5.9548">
        <ele>215</ele>
        <time>2019-11-01T00:18:08.669Z</time>
      </trkpt>
      <trkpt lat="48.71068" lon="5.95494">
        <ele>216.8</ele>
        <time>2019-11-01T00:18:11.615Z</time>
      </trkpt>
      <trkpt lat="48.71072" lon="5.9552">
        <ele>217.8</ele>
        <time>2019-11-01T00:18:14.568Z</time>
      </trkpt>
      <trkpt lat="48.7108" lon="5.95547">
        <ele>217.8</ele>
        <time>2019-11-01T00:18:17.795Z</time>
      </trkpt>
      <trkpt lat="48.71091" lon="5.95575">
        <ele>218.9</ele>
        <time>2019-11-01T00:18:21.457Z</time>
      </trkpt>
      <trkpt lat="48.71102" lon="5.95609">
        <ele>219.4</ele>
        <time>2019-11-01T00:18:25.648Z</time>
      </trkpt>
      <trkpt lat="48.71106" lon="5.9564">
        <ele>219.4</ele>
        <time>2019-11-01T00:18:29.099Z</time>
      </trkpt>
      <trkpt lat="48.71114" lon="5.95672">
        <ele>219.4</ele>
        <time>2019-11-01T00:18:32.940Z</time>
      </trkpt>
      <trkpt lat="48.71125" lon="5.95705">
        <ele>220.2</ele>
        <time>2019-11-01T00:18:37.023Z</time>
      </trkpt>
      <trkpt lat="48.71133" lon="5.95734">
        <ele>220.2</ele>
        <time>2019-11-01T00:18:40.548Z</time>
      </trkpt>
      <trkpt lat="48.71143" lon="5.95765">
        <ele>220.7</ele>
        <time>2019-11-01T00:18:44.388Z</time>
      </trkpt>
      <trkpt lat="48.71151" lon="5.958">
        <ele>220.7</ele>
        <time>2019-11-01T00:18:48.515Z</time>
      </trkpt>
      <trkpt lat="48.71159" lon="5.95834">
        <ele>221.1</ele>
        <time>2019-11-01T00:18:52.458Z</time>
      </trkpt>
      <trkpt lat="48.71169" lon="5.9587">
        <ele>221.1</ele>
        <time>2019-11-01T00:18:56.790Z</time>
      </trkpt>
      <trkpt lat="48.71178" lon="5.95905">
        <ele>221.4</ele>
        <time>2019-11-01T00:19:00.994Z</time>
      </trkpt>
      <trkpt lat="48.71184" lon="5.95939">
        <ele>220.8</ele>
        <time>2019-11-01T00:19:04.893Z</time>
      </trkpt>
      <trkpt lat="48.71188" lon="5.95972">
        <ele>221.6</ele>
        <time>2019-11-01T00:19:08.683Z</time>
      </trkpt>
      <trkpt lat="48.71199" lon="5.96009">
        <ele>221.2</ele>
        <time>2019-11-01T00:19:13.062Z</time>
      </trkpt>
      <trkpt lat="48.71204" lon="5.96048">
        <ele>221.2</ele>
        <time>2019-11-01T00:19:17.549Z</time>
      </trkpt>
      <trkpt lat="48.7121" lon="5.96083">
        <ele>221.2</ele>
        <time>2019-11-01T00:19:21.481Z</time>
      </trkpt>
      <trkpt lat="48.71217" lon="5.9612">
        <ele>222.3</ele>
        <time>2019-11-01T00:19:25.780Z</time>
      </trkpt>
      <trkpt lat="48.71224" lon="5.96155">
        <ele>222.1</ele>
        <time>2019-11-01T00:19:29.823Z</time>
      </trkpt>
      <trkpt lat="48.71232" lon="5.96191">
        <ele>221.9</ele>
        <time>2019-11-01T00:19:34.150Z</time>
      </trkpt>
      <trkpt lat="48.71239" lon="5.96228">
        <ele>222.7</ele>
        <time>2019-11-01T00:19:38.374Z</time>
      </trkpt>
      <trkpt lat="48.71245" lon="5.96266">
        <ele>222.5</ele>
        <time>2019-11-01T00:19:42.692Z</time>
      </trkpt>
      <trkpt lat="48.71248" lon="5.96304">
        <ele>222.5</ele>
        <time>2019-11-01T00:19:46.933Z</time>
      </trkpt>
      <trkpt lat="48.71256" lon="5.96336">
        <ele>222.4</ele>
        <time>2019-11-01T00:19:50.691Z</time>
      </trkpt>
      <trkpt lat="48.7126" lon="5.96369">
        <ele>222.9</ele>
        <time>2019-11-01T00:19:54.474Z</time>
      </trkpt>
      <trkpt lat="48.71267" lon="5.96406">
        <ele>223.2</ele>
        <time>2019-11-01T00:19:58.723Z</time>
      </trkpt>
      <trkpt lat="48.71271" lon="5.96444">
        <ele>223.3</ele>
        <time>2019-11-01T00:20:02.969Z</time>
      </trkpt>
      <trkpt lat="48.71278" lon="5.96479">
        <ele>223.2</ele>
        <time>2019-11-01T00:20:06.994Z</time>
      </trkpt>
      <trkpt lat="48.71286" lon="5.96515">
        <ele>223.2</ele>
        <time>2019-11-01T00:20:11.274Z</time>
      </trkpt>
      <trkpt lat="48.71296" lon="5.96554">
        <ele>223.6</ele>
        <time>2019-11-01T00:20:15.874Z</time>
      </trkpt>
      <trkpt lat="48.7131" lon="5.96591">
        <ele>223.7</ele>
        <time>2019-11-01T00:20:20.591Z</time>
      </trkpt>
      <trkpt lat="48.71323" lon="5.96621">
        <ele>224.1</ele>
        <time>2019-11-01T00:20:24.658Z</time>
      </trkpt>
      <trkpt lat="48.71336" lon="5.9665">
        <ele>224.8</ele>
        <time>2019-11-01T00:20:28.559Z</time>
      </trkpt>
      <trkpt lat="48.71352" lon="5.96678">
        <ele>225.1</ele>
        <time>2019-11-01T00:20:32.532Z</time>
      </trkpt>
      <trkpt lat="48.71364" lon="5.96709">
        <ele>225.4</ele>
        <time>2019-11-01T00:20:36.529Z</time>
      </trkpt>
      <trkpt lat="48.71382" lon="5.96735">
        <ele>225.9</ele>
        <time>2019-11-01T00:20:40.792Z</time>
      </trkpt>
      <trkpt lat="48.71396" lon="5.96764">
        <ele>226</ele>
        <time>2019-11-01T00:20:44.732Z</time>
      </trkpt>
      <trkpt lat="48.71409" lon="5.96793">
        <ele>226.5</ele>
        <time>2019-11-01T00:20:48.632Z</time>
      </trkpt>
      <trkpt lat="48.71414" lon="5.96822">
        <ele>227.4</ele>
        <time>2019-11-01T00:20:52.028Z</time>
      </trkpt>
      <trkpt lat="48.71424" lon="5.96855">
        <ele>227.8</ele>
        <time>2019-11-01T00:20:56.007Z</time>
      </trkpt>
      <trkpt lat="48.71447" lon="5.96858">
        <ele>226.8</ele>
        <time>2019-11-01T00:20:59.907Z</time>
      </trkpt>
      <trkpt lat="48.71471" lon="5.96866">
        <ele>227.2</ele>
        <time>2019-11-01T00:21:04.109Z</time>
      </trkpt>
      <trkpt lat="48.71497" lon="5.96885">
        <ele>228.1</ele>
        <time>2019-11-01T00:21:08.908Z</time>
      </trkpt>
      <trkpt lat="48.71522" lon="5.96901">
        <ele>229.8</ele>
        <time>2019-11-01T00:21:13.457Z</time>
      </trkpt>
      <trkpt lat="48.71546" lon="5.96919">
        <ele>230.9</ele>
        <time>2019-11-01T00:21:18.052Z</time>
      </trkpt>
      <trkpt lat="48.71568" lon="5.96936">
        <ele>231.9</ele>
        <time>2019-11-01T00:21:22.130Z</time>
      </trkpt>
      <trkpt lat="48.71586" lon="5.9695">
        <ele>232.7</ele>
        <time>2019-11-01T00:21:25.530Z</time>
      </trkpt>
      <trkpt lat="48.71605" lon="5.96965">
        <ele>233.8</ele>
        <time>2019-11-01T00:21:29.068Z</time>
      </trkpt>
      <trkpt lat="48.71624" lon="5.96978">
        <ele>234.6</ele>
        <time>2019-11-01T00:21:32.663Z</time>
      </trkpt>
      <trkpt lat="48.71646" lon="5.96994">
        <ele>234.7</ele>
        <time>2019-11-01T00:21:36.719Z</time>
      </trkpt>
      <trkpt lat="48.71663" lon="5.97007">
        <ele>235.7</ele>
        <time>2019-11-01T00:21:39.927Z</time>
      </trkpt>
      <trkpt lat="48.71684" lon="5.97018">
        <ele>235.8</ele>
        <time>2019-11-01T00:21:43.708Z</time>
      </trkpt>
      <trkpt lat="48.71705" lon="5.9703">
        <ele>236.1</ele>
        <time>2019-11-01T00:21:47.459Z</time>
      </trkpt>
      <trkpt lat="48.71726" lon="5.97039">
        <ele>235.9</ele>
        <time>2019-11-01T00:21:51.055Z</time>
      </trkpt>
      <trkpt lat="48.71749" lon="5.97048">
        <ele>236.5</ele>
        <time>2019-11-01T00:21:55.127Z</time>
      </trkpt>
      <trkpt lat="48.71773" lon="5.97059">
        <ele>236.8</ele>
        <time>2019-11-01T00:21:59.290Z</time>
      </trkpt>
      <trkpt lat="48.71796" lon="5.97069">
        <ele>237.2</ele>
        <time>2019-11-01T00:22:03.401Z</time>
      </trkpt>
      <trkpt lat="48.71823" lon="5.97077">
        <ele>235.9</ele>
        <time>2019-11-01T00:22:07.939Z</time>
      </trkpt>
      <trkpt lat="48.71852" lon="5.97084">
        <ele>235.9</ele>
        <time>2019-11-01T00:22:12.893Z</time>
      </trkpt>
      <trkpt lat="48.71884" lon="5.97089">
        <ele>235.5</ele>
        <time>2019-11-01T00:22:18.418Z</time>
      </trkpt>
      <trkpt lat="48.71917" lon="5.97099">
        <ele>234.3</ele>
        <time>2019-11-01T00:22:23.975Z</time>
      </trkpt>
      <trkpt lat="48.71952" lon="5.97104">
        <ele>233.2</ele>
        <time>2019-11-01T00:22:29.854Z</time>
      </trkpt>
      <trkpt lat="48.71994" lon="5.97107">
        <ele>232.2</ele>
        <time>2019-11-01T00:22:36.978Z</time>
      </trkpt>
      <trkpt lat="48.72037" lon="5.97108">
        <ele>229.2</ele>
        <time>2019-11-01T00:22:44.195Z</time>
      </trkpt>
      <trkpt lat="48.72075" lon="5.97105">
        <ele>228.2</ele>
        <time>2019-11-01T00:22:50.678Z</time>
      </trkpt>
      <trkpt lat="48.72111" lon="5.97105">
        <ele>227.8</ele>
        <time>2019-11-01T00:22:56.750Z</time>
      </trkpt>
      <trkpt lat="48.72146" lon="5.97109">
        <ele>227.7</ele>
        <time>2019-11-01T00:23:02.502Z</time>
      </trkpt>
      <trkpt lat="48.72173" lon="5.97113">
        <ele>229.2</ele>
        <time>2019-11-01T00:23:07.075Z</time>
      </trkpt>
      <trkpt lat="48.72202" lon="5.97122">
        <ele>229.5</ele>
        <time>2019-11-01T00:23:12.157Z</time>
      </trkpt>
      <trkpt lat="48.72229" lon="5.97137">
        <ele>230.7</ele>
        <time>2019-11-01T00:23:17.019Z</time>
      </trkpt>
      <trkpt lat="48.72262" lon="5.97156">
        <ele>232.5</ele>
        <time>2019-11-01T00:23:22.949Z</time>
      </trkpt>
      <trkpt lat="48.72294" lon="5.97176">
        <ele>233.4</ele>
        <time>2019-11-01T00:23:28.719Z</time>
      </trkpt>
      <trkpt lat="48.72322" lon="5.97195">
        <ele>234</ele>
        <time>2019-11-01T00:23:33.805Z</time>
      </trkpt>
      <trkpt lat="48.72347" lon="5.97213">
        <ele>234.7</ele>
        <time>2019-11-01T00:23:38.501Z</time>
      </trkpt>
      <trkpt lat="48.72369" lon="5.97234">
        <ele>235.1</ele>
        <time>2019-11-01T00:23:42.854Z</time>
      </trkpt>
      <trkpt lat="48.72387" lon="5.97248">
        <ele>235.8</ele>
        <time>2019-11-01T00:23:46.322Z</time>
      </trkpt>
      <trkpt lat="48.72413" lon="5.97264">
        <ele>236.4</ele>
        <time>2019-11-01T00:23:50.971Z</time>
      </trkpt>
      <trkpt lat="48.72439" lon="5.9728">
        <ele>237.2</ele>
        <time>2019-11-01T00:23:55.708Z</time>
      </trkpt>
      <trkpt lat="48.72461" lon="5.97294">
        <ele>237.2</ele>
        <time>2019-11-01T00:23:59.803Z</time>
      </trkpt>
      <trkpt lat="48.72483" lon="5.97308">
        <ele>237.8</ele>
        <time>2019-11-01T00:24:03.717Z</time>
      </trkpt>
      <trkpt lat="48.72503" lon="5.97319">
        <ele>238.1</ele>
        <time>2019-11-01T00:24:07.380Z</time>
      </trkpt>
      <trkpt lat="48.72524" lon="5.97328">
        <ele>238.1</ele>
        <time>2019-11-01T00:24:11.027Z</time>
      </trkpt>
      <trkpt lat="48.72547" lon="5.97343">
        <ele>239.1</ele>
        <time>2019-11-01T00:24:15.261Z</time>
      </trkpt>
      <trkpt lat="48.72571" lon="5.9736">
        <ele>239.5</ele>
        <time>2019-11-01T00:24:19.741Z</time>
      </trkpt>
      <trkpt lat="48.72595" lon="5.97374">
        <ele>239.5</ele>
        <time>2019-11-01T00:24:24.007Z</time>
      </trkpt>
      <trkpt lat="48.72619" lon="5.97385">
        <ele>240.4</ele>
        <time>2019-11-01T00:24:28.182Z</time>
      </trkpt>
      <trkpt lat="48.72635" lon="5.97399">
        <ele>241.4</ele>
        <time>2019-11-01T00:24:31.297Z</time>
      </trkpt>
      <trkpt lat="48.72655" lon="5.97414">
        <ele>241.8</ele>
        <time>2019-11-01T00:24:35.110Z</time>
      </trkpt>
      <trkpt lat="48.72678" lon="5.97429">
        <ele>241.7</ele>
        <time>2019-11-01T00:24:39.275Z</time>
      </trkpt>
      <trkpt lat="48.72704" lon="5.97439">
        <ele>242.8</ele>
        <time>2019-11-01T00:24:43.836Z</time>
      </trkpt>
      <trkpt lat="48.72725" lon="5.97453">
        <ele>243.8</ele>
        <time>2019-11-01T00:24:47.661Z</time>
      </trkpt>
      <trkpt lat="48.72746" lon="5.97467">
        <ele>243.8</ele>
        <time>2019-11-01T00:24:51.542Z</time>
      </trkpt>
      <trkpt lat="48.7277" lon="5.97481">
        <ele>244.9</ele>
        <time>2019-11-01T00:24:55.863Z</time>
      </trkpt>
      <trkpt lat="48.72792" lon="5.97498">
        <ele>245.2</ele>
        <time>2019-11-01T00:24:59.931Z</time>
      </trkpt>
      <trkpt lat="48.72816" lon="5.97511">
        <ele>246.1</ele>
        <time>2019-11-01T00:25:04.217Z</time>
      </trkpt>
      <trkpt lat="48.72836" lon="5.9753">
        <ele>246.3</ele>
        <time>2019-11-01T00:25:08.231Z</time>
      </trkpt>
      <trkpt lat="48.72854" lon="5.97547">
        <ele>246.9</ele>
        <time>2019-11-01T00:25:11.861Z</time>
      </trkpt>
      <trkpt lat="48.72878" lon="5.97564">
        <ele>247.7</ele>
        <time>2019-11-01T00:25:16.332Z</time>
      </trkpt>
      <trkpt lat="48.72897" lon="5.97575">
        <ele>247.9</ele>
        <time>2019-11-01T00:25:19.612Z</time>
      </trkpt>
      <trkpt lat="48.72916" lon="5.97591">
        <ele>247.9</ele>
        <time>2019-11-01T00:25:23.416Z</time>
      </trkpt>
      <trkpt lat="48.72935" lon="5.97605">
        <ele>249</ele>
        <time>2019-11-01T00:25:26.844Z</time>
      </trkpt>
      <trkpt lat="48.72957" lon="5.97621">
        <ele>249.7</ele>
        <time>2019-11-01T00:25:31.018Z</time>
      </trkpt>
      <trkpt lat="48.7298" lon="5.97636">
        <ele>249.1</ele>
        <time>2019-11-01T00:25:35.141Z</time>
      </trkpt>
      <trkpt lat="48.73002" lon="5.97652">
        <ele>250.5</ele>
        <time>2019-11-01T00:25:39.339Z</time>
      </trkpt>
      <trkpt lat="48.73022" lon="5.97667">
        <ele>251.3</ele>
        <time>2019-11-01T00:25:43.127Z</time>
      </trkpt>
      <trkpt lat="48.73045" lon="5.97684">
        <ele>251.2</ele>
        <time>2019-11-01T00:25:47.320Z</time>
      </trkpt>
      <trkpt lat="48.73066" lon="5.977">
        <ele>252</ele>
        <time>2019-11-01T00:25:51.373Z</time>
      </trkpt>
      <trkpt lat="48.73085" lon="5.97721">
        <ele>252</ele>
        <time>2019-11-01T00:25:55.267Z</time>
      </trkpt>
      <trkpt lat="48.73106" lon="5.97741">
        <ele>252</ele>
        <time>2019-11-01T00:25:59.455Z</time>
      </trkpt>
      <trkpt lat="48.73127" lon="5.9776">
        <ele>254.6</ele>
        <time>2019-11-01T00:26:03.519Z</time>
      </trkpt>
      <trkpt lat="48.73137" lon="5.97786">
        <ele>254.8</ele>
        <time>2019-11-01T00:26:06.892Z</time>
      </trkpt>
      <trkpt lat="48.73144" lon="5.9782">
        <ele>255.5</ele>
        <time>2019-11-01T00:26:10.872Z</time>
      </trkpt>
      <trkpt lat="48.73155" lon="5.97855">
        <ele>256.1</ele>
        <time>2019-11-01T00:26:15.111Z</time>
      </trkpt>
      <trkpt lat="48.73171" lon="5.9788">
        <ele>256.1</ele>
        <time>2019-11-01T00:26:19.078Z</time>
      </trkpt>
      <trkpt lat="48.73188" lon="5.97907">
        <ele>256.3</ele>
        <time>2019-11-01T00:26:23.082Z</time>
      </trkpt>
      <trkpt lat="48.73207" lon="5.97929">
        <ele>255.6</ele>
        <time>2019-11-01T00:26:27.150Z</time>
      </trkpt>
      <trkpt lat="48.73232" lon="5.97943">
        <ele>255.2</ele>
        <time>2019-11-01T00:26:31.660Z</time>
      </trkpt>
      <trkpt lat="48.73258" lon="5.97955">
        <ele>255.2</ele>
        <time>2019-11-01T00:26:36.138Z</time>
      </trkpt>
      <trkpt lat="48.73281" lon="5.97967">
        <ele>255</ele>
        <time>2019-11-01T00:26:40.355Z</time>
      </trkpt>
      <trkpt lat="48.73308" lon="5.97988">
        <ele>255.6</ele>
        <time>2019-11-01T00:26:45.374Z</time>
      </trkpt>
      <trkpt lat="48.73332" lon="5.98006">
        <ele>254.7</ele>
        <time>2019-11-01T00:26:49.973Z</time>
      </trkpt>
      <trkpt lat="48.73352" lon="5.98032">
        <ele>253.4</ele>
        <time>2019-11-01T00:26:54.318Z</time>
      </trkpt>
      <trkpt lat="48.73372" lon="5.98056">
        <ele>253.4</ele>
        <time>2019-11-01T00:26:58.748Z</time>
      </trkpt>
      <trkpt lat="48.73398" lon="5.98081">
        <ele>253.8</ele>
        <time>2019-11-01T00:27:03.843Z</time>
      </trkpt>
      <trkpt lat="48.7342" lon="5.98101">
        <ele>254.2</ele>
        <time>2019-11-01T00:27:08.094Z</time>
      </trkpt>
      <trkpt lat="48.73439" lon="5.9812">
        <ele>254.3</ele>
        <time>2019-11-01T00:27:12.044Z</time>
      </trkpt>
      <trkpt lat="48.73459" lon="5.98145">
        <ele>254.3</ele>
        <time>2019-11-01T00:27:16.285Z</time>
      </trkpt>
      <trkpt lat="48.73478" lon="5.98169">
        <ele>255.4</ele>
        <time>2019-11-01T00:27:20.510Z</time>
      </trkpt>
      <trkpt lat="48.73497" lon="5.98192">
        <ele>255.4</ele>
        <time>2019-11-01T00:27:24.541Z</time>
      </trkpt>
      <trkpt lat="48.73517" lon="5.98217">
        <ele>254.3</ele>
        <time>2019-11-01T00:27:29.013Z</time>
      </trkpt>
      <trkpt lat="48.73543" lon="5.98242">
        <ele>254.3</ele>
        <time>2019-11-01T00:27:34.062Z</time>
      </trkpt>
      <trkpt lat="48.73562" lon="5.98267">
        <ele>254.4</ele>
        <time>2019-11-01T00:27:38.368Z</time>
      </trkpt>
      <trkpt lat="48.73582" lon="5.98293">
        <ele>253.8</ele>
        <time>2019-11-01T00:27:42.766Z</time>
      </trkpt>
      <trkpt lat="48.73605" lon="5.98317">
        <ele>253.8</ele>
        <time>2019-11-01T00:27:47.521Z</time>
      </trkpt>
      <trkpt lat="48.73629" lon="5.98343">
        <ele>253.5</ele>
        <time>2019-11-01T00:27:52.502Z</time>
      </trkpt>
      <trkpt lat="48.73648" lon="5.98369">
        <ele>253.9</ele>
        <time>2019-11-01T00:27:56.745Z</time>
      </trkpt>
      <trkpt lat="48.73669" lon="5.98392">
        <ele>253.7</ele>
        <time>2019-11-01T00:28:01.155Z</time>
      </trkpt>
      <trkpt lat="48.73691" lon="5.98419">
        <ele>253.7</ele>
        <time>2019-11-01T00:28:05.906Z</time>
      </trkpt>
      <trkpt lat="48.73713" lon="5.9845">
        <ele>252.9</ele>
        <time>2019-11-01T00:28:10.971Z</time>
      </trkpt>
      <trkpt lat="48.73728" lon="5.98483">
        <ele>253.3</ele>
        <time>2019-11-01T00:28:15.416Z</time>
      </trkpt>
      <trkpt lat="48.73746" lon="5.98517">
        <ele>252.9</ele>
        <time>2019-11-01T00:28:20.222Z</time>
      </trkpt>
      <trkpt lat="48.73767" lon="5.98546">
        <ele>252.2</ele>
        <time>2019-11-01T00:28:24.980Z</time>
      </trkpt>
      <trkpt lat="48.73784" lon="5.98576">
        <ele>252.4</ele>
        <time>2019-11-01T00:28:29.426Z</time>
      </trkpt>
      <trkpt lat="48.73807" lon="5.98607">
        <ele>252.7</ele>
        <time>2019-11-01T00:28:34.510Z</time>
      </trkpt>
      <trkpt lat="48.73823" lon="5.98639">
        <ele>251.8</ele>
        <time>2019-11-01T00:28:39.044Z</time>
      </trkpt>
      <trkpt lat="48.73838" lon="5.98672">
        <ele>252.4</ele>
        <time>2019-11-01T00:28:43.452Z</time>
      </trkpt>
      <trkpt lat="48.73854" lon="5.98707">
        <ele>251.4</ele>
        <time>2019-11-01T00:28:48.166Z</time>
      </trkpt>
      <trkpt lat="48.73868" lon="5.98744">
        <ele>250.7</ele>
        <time>2019-11-01T00:28:52.927Z</time>
      </trkpt>
      <trkpt lat="48.73883" lon="5.98784">
        <ele>250.6</ele>
        <time>2019-11-01T00:28:57.986Z</time>
      </trkpt>
      <trkpt lat="48.73896" lon="5.98824">
        <ele>249.7</ele>
        <time>2019-11-01T00:29:02.984Z</time>
      </trkpt>
      <trkpt lat="48.73914" lon="5.98861">
        <ele>249.3</ele>
        <time>2019-11-01T00:29:08.041Z</time>
      </trkpt>
      <trkpt lat="48.73929" lon="5.98895">
        <ele>248.8</ele>
        <time>2019-11-01T00:29:12.589Z</time>
      </trkpt>
      <trkpt lat="48.73949" lon="5.98932">
        <ele>248.8</ele>
        <time>2019-11-01T00:29:17.970Z</time>
      </trkpt>
      <trkpt lat="48.73967" lon="5.98968">
        <ele>247.6</ele>
        <time>2019-11-01T00:29:22.913Z</time>
      </trkpt>
      <trkpt lat="48.73979" lon="5.99013">
        <ele>246.2</ele>
        <time>2019-11-01T00:29:28.346Z</time>
      </trkpt>
      <trkpt lat="48.73995" lon="5.99057">
        <ele>245.3</ele>
        <time>2019-11-01T00:29:33.850Z</time>
      </trkpt>
      <trkpt lat="48.74011" lon="5.99097">
        <ele>244.5</ele>
        <time>2019-11-01T00:29:39.022Z</time>
      </trkpt>
      <trkpt lat="48.74026" lon="5.99134">
        <ele>243.7</ele>
        <time>2019-11-01T00:29:43.811Z</time>
      </trkpt>
      <trkpt lat="48.74053" lon="5.99167">
        <ele>242.9</ele>
        <time>2019-11-01T00:29:49.650Z</time>
      </trkpt>
      <trkpt lat="48.74082" lon="5.99199">
        <ele>240.7</ele>
        <time>2019-11-01T00:29:55.756Z</time>
      </trkpt>
      <trkpt lat="48.74112" lon="5.99242">
        <ele>237.8</ele>
        <time>2019-11-01T00:30:02.759Z</time>
      </trkpt>
      <trkpt lat="48.74148" lon="5.9929">
        <ele>235.3</ele>
        <time>2019-11-01T00:30:10.759Z</time>
      </trkpt>
      <trkpt lat="48.74185" lon="5.99344">
        <ele>231.8</ele>
        <time>2019-11-01T00:30:19.375Z</time>
      </trkpt>
      <trkpt lat="48.7422" lon="5.99397">
        <ele>226.8</ele>
        <time>2019-11-01T00:30:27.690Z</time>
      </trkpt>
      <trkpt lat="48.7425" lon="5.99449">
        <ele>222</ele>
        <time>2019-11-01T00:30:35.309Z</time>
      </trkpt>
      <trkpt lat="48.74283" lon="5.99498">
        <ele>216.6</ele>
        <time>2019-11-01T00:30:43.116Z</time>
      </trkpt>
      <trkpt lat="48.74317" lon="5.9953">
        <ele>214.1</ele>
        <time>2019-11-01T00:30:49.841Z</time>
      </trkpt>
      <trkpt lat="48.74351" lon="5.99513">
        <ele>212.9</ele>
        <time>2019-11-01T00:30:55.979Z</time>
      </trkpt>
      <trkpt lat="48.74363" lon="5.99471">
        <ele>212</ele>
        <time>2019-11-01T00:31:01.022Z</time>
      </trkpt>
      <trkpt lat="48.74373" lon="5.99433">
        <ele>212.1</ele>
        <time>2019-11-01T00:31:05.519Z</time>
      </trkpt>
      <trkpt lat="48.744" lon="5.99433">
        <ele>211.9</ele>
        <time>2019-11-01T00:31:10.010Z</time>
      </trkpt>
      <trkpt lat="48.74423" lon="5.99456">
        <ele>211.7</ele>
        <time>2019-11-01T00:31:14.646Z</time>
      </trkpt>
      <trkpt lat="48.7444" lon="5.99487">
        <ele>210.5</ele>
        <time>2019-11-01T00:31:19.191Z</time>
      </trkpt>
      <trkpt lat="48.74452" lon="5.99521">
        <ele>210.5</ele>
        <time>2019-11-01T00:31:23.462Z</time>
      </trkpt>
      <trkpt lat="48.74467" lon="5.99557">
        <ele>210.5</ele>
        <time>2019-11-01T00:31:28.111Z</time>
      </trkpt>
      <trkpt lat="48.74473" lon="5.99599">
        <ele>211.2</ele>
        <time>2019-11-01T00:31:32.921Z</time>
      </trkpt>
      <trkpt lat="48.74476" lon="5.99632">
        <ele>211.2</ele>
        <time>2019-11-01T00:31:36.653Z</time>
      </trkpt>
      <trkpt lat="48.74477" lon="5.99674">
        <ele>211.7</ele>
        <time>2019-11-01T00:31:41.314Z</time>
      </trkpt>
      <trkpt lat="48.74467" lon="5.99704">
        <ele>212.4</ele>
        <time>2019-11-01T00:31:44.973Z</time>
      </trkpt>
      <trkpt lat="48.74454" lon="5.99747">
        <ele>212.5</ele>
        <time>2019-11-01T00:31:50.301Z</time>
      </trkpt>
      <trkpt lat="48.74437" lon="5.99781">
        <ele>211.6</ele>
        <time>2019-11-01T00:31:54.936Z</time>
      </trkpt>
      <trkpt lat="48.74419" lon="5.99807">
        <ele>211.6</ele>
        <time>2019-11-01T00:31:59.082Z</time>
      </trkpt>
      <trkpt lat="48.74405" lon="5.99836">
        <ele>211.2</ele>
        <time>2019-11-01T00:32:03.130Z</time>
      </trkpt>
      <trkpt lat="48.74392" lon="5.99862">
        <ele>211.3</ele>
        <time>2019-11-01T00:32:06.687Z</time>
      </trkpt>
      <trkpt lat="48.74375" lon="5.99893">
        <ele>210.8</ele>
        <time>2019-11-01T00:32:11.228Z</time>
      </trkpt>
      <trkpt lat="48.74363" lon="5.99927">
        <ele>211.1</ele>
        <time>2019-11-01T00:32:15.513Z</time>
      </trkpt>
      <trkpt lat="48.74354" lon="5.99956">
        <ele>211.2</ele>
        <time>2019-11-01T00:32:19.086Z</time>
      </trkpt>
      <trkpt lat="48.74356" lon="5.99991">
        <ele>210.4</ele>
        <time>2019-11-01T00:32:23.020Z</time>
      </trkpt>
      <trkpt lat="48.74359" lon="6.00022">
        <ele>211.4</ele>
        <time>2019-11-01T00:32:26.466Z</time>
      </trkpt>
      <trkpt lat="48.74361" lon="6.00044">
        <ele>211.8</ele>
        <time>2019-11-01T00:32:28.890Z</time>
      </trkpt>
      <trkpt lat="48.74374" lon="6.00083">
        <ele>212.3</ele>
        <time>2019-11-01T00:32:33.709Z</time>
      </trkpt>
      <trkpt lat="48.74389" lon="6.0012">
        <ele>212.8</ele>
        <time>2019-11-01T00:32:38.555Z</time>
      </trkpt>
      <trkpt lat="48.74414" lon="6.00144">
        <ele>212.8</ele>
        <time>2019-11-01T00:32:43.586Z</time>
      </trkpt>
      <trkpt lat="48.74428" lon="6.00178">
        <ele>213.6</ele>
        <time>2019-11-01T00:32:48.022Z</time>
      </trkpt>
      <trkpt lat="48.74446" lon="6.00208">
        <ele>213.6</ele>
        <time>2019-11-01T00:32:52.558Z</time>
      </trkpt>
      <trkpt lat="48.74459" lon="6.00247">
        <ele>214</ele>
        <time>2019-11-01T00:32:57.407Z</time>
      </trkpt>
      <trkpt lat="48.74473" lon="6.00284">
        <ele>214</ele>
        <time>2019-11-01T00:33:02.143Z</time>
      </trkpt>
      <trkpt lat="48.74488" lon="6.00322">
        <ele>214</ele>
        <time>2019-11-01T00:33:06.994Z</time>
      </trkpt>
      <trkpt lat="48.74507" lon="6.00358">
        <ele>213.5</ele>
        <time>2019-11-01T00:33:12.129Z</time>
      </trkpt>
      <trkpt lat="48.74526" lon="6.00387">
        <ele>212.8</ele>
        <time>2019-11-01T00:33:16.719Z</time>
      </trkpt>
      <trkpt lat="48.74547" lon="6.00416">
        <ele>213</ele>
        <time>2019-11-01T00:33:21.526Z</time>
      </trkpt>
      <trkpt lat="48.74571" lon="6.0044">
        <ele>213.1</ele>
        <time>2019-11-01T00:33:26.229Z</time>
      </trkpt>
      <trkpt lat="48.74595" lon="6.00465">
        <ele>213.1</ele>
        <time>2019-11-01T00:33:31.194Z</time>
      </trkpt>
      <trkpt lat="48.7462" lon="6.00493">
        <ele>213.5</ele>
        <time>2019-11-01T00:33:36.321Z</time>
      </trkpt>
      <trkpt lat="48.74643" lon="6.00518">
        <ele>213.3</ele>
        <time>2019-11-01T00:33:41.107Z</time>
      </trkpt>
      <trkpt lat="48.74665" lon="6.00544">
        <ele>213.6</ele>
        <time>2019-11-01T00:33:45.865Z</time>
      </trkpt>
      <trkpt lat="48.74686" lon="6.00567">
        <ele>213.3</ele>
        <time>2019-11-01T00:33:50.169Z</time>
      </trkpt>
      <trkpt lat="48.74711" lon="6.00592">
        <ele>213.2</ele>
        <time>2019-11-01T00:33:55.249Z</time>
      </trkpt>
      <trkpt lat="48.74734" lon="6.00617">
        <ele>212.9</ele>
        <time>2019-11-01T00:33:59.984Z</time>
      </trkpt>
      <trkpt lat="48.74757" lon="6.00645">
        <ele>213.2</ele>
        <time>2019-11-01T00:34:04.991Z</time>
      </trkpt>
      <trkpt lat="48.74783" lon="6.00671">
        <ele>213</ele>
        <time>2019-11-01T00:34:10.164Z</time>
      </trkpt>
      <trkpt lat="48.74809" lon="6.00687">
        <ele>213</ele>
        <time>2019-11-01T00:34:14.919Z</time>
      </trkpt>
      <trkpt lat="48.74837" lon="6.00706">
        <ele>213</ele>
        <time>2019-11-01T00:34:20.131Z</time>
      </trkpt>
      <trkpt lat="48.74864" lon="6.00729">
        <ele>213.2</ele>
        <time>2019-11-01T00:34:25.255Z</time>
      </trkpt>
      <trkpt lat="48.74885" lon="6.00756">
        <ele>213.2</ele>
        <time>2019-11-01T00:34:29.858Z</time>
      </trkpt>
      <trkpt lat="48.74908" lon="6.00784">
        <ele>213</ele>
        <time>2019-11-01T00:34:34.898Z</time>
      </trkpt>
      <trkpt lat="48.74927" lon="6.00812">
        <ele>213</ele>
        <time>2019-11-01T00:34:39.398Z</time>
      </trkpt>
      <trkpt lat="48.74946" lon="6.00839">
        <ele>212.5</ele>
        <time>2019-11-01T00:34:43.739Z</time>
      </trkpt>
      <trkpt lat="48.74969" lon="6.00857">
        <ele>213.3</ele>
        <time>2019-11-01T00:34:48.132Z</time>
      </trkpt>
      <trkpt lat="48.74991" lon="6.00881">
        <ele>213.2</ele>
        <time>2019-11-01T00:34:52.676Z</time>
      </trkpt>
      <trkpt lat="48.75009" lon="6.00913">
        <ele>212.9</ele>
        <time>2019-11-01T00:34:57.297Z</time>
      </trkpt>
      <trkpt lat="48.75028" lon="6.00938">
        <ele>213.3</ele>
        <time>2019-11-01T00:35:01.552Z</time>
      </trkpt>
      <trkpt lat="48.75048" lon="6.0096">
        <ele>212.7</ele>
        <time>2019-11-01T00:35:05.714Z</time>
      </trkpt>
      <trkpt lat="48.75058" lon="6.00986">
        <ele>212.7</ele>
        <time>2019-11-01T00:35:09.057Z</time>
      </trkpt>
      <trkpt lat="48.75078" lon="6.0101">
        <ele>212.6</ele>
        <time>2019-11-01T00:35:13.275Z</time>
      </trkpt>
      <trkpt lat="48.751" lon="6.01035">
        <ele>213.4</ele>
        <time>2019-11-01T00:35:18.019Z</time>
      </trkpt>
      <trkpt lat="48.75114" lon="6.01069">
        <ele>213.6</ele>
        <time>2019-11-01T00:35:22.329Z</time>
      </trkpt>
      <trkpt lat="48.75129" lon="6.01102">
        <ele>213.1</ele>
        <time>2019-11-01T00:35:26.877Z</time>
      </trkpt>
      <trkpt lat="48.75148" lon="6.01134">
        <ele>213.1</ele>
        <time>2019-11-01T00:35:31.587Z</time>
      </trkpt>
      <trkpt lat="48.75166" lon="6.01163">
        <ele>213.1</ele>
        <time>2019-11-01T00:35:35.961Z</time>
      </trkpt>
      <trkpt lat="48.7518" lon="6.01198">
        <ele>212.9</ele>
        <time>2019-11-01T00:35:40.545Z</time>
      </trkpt>
      <trkpt lat="48.75196" lon="6.01228">
        <ele>213.6</ele>
        <time>2019-11-01T00:35:44.836Z</time>
      </trkpt>
      <trkpt lat="48.75212" lon="6.01257">
        <ele>213.2</ele>
        <time>2019-11-01T00:35:49.053Z</time>
      </trkpt>
      <trkpt lat="48.7523" lon="6.0129">
        <ele>213.2</ele>
        <time>2019-11-01T00:35:53.743Z</time>
      </trkpt>
      <trkpt lat="48.75242" lon="6.01322">
        <ele>213.8</ele>
        <time>2019-11-01T00:35:57.875Z</time>
      </trkpt>
      <trkpt lat="48.7526" lon="6.01348">
        <ele>213.4</ele>
        <time>2019-11-01T00:36:02.066Z</time>
      </trkpt>
      <trkpt lat="48.75275" lon="6.01384">
        <ele>212.6</ele>
        <time>2019-11-01T00:36:06.762Z</time>
      </trkpt>
      <trkpt lat="48.75292" lon="6.01419">
        <ele>212.6</ele>
        <time>2019-11-01T00:36:11.546Z</time>
      </trkpt>
      <trkpt lat="48.7531" lon="6.01445">
        <ele>213.2</ele>
        <time>2019-11-01T00:36:15.800Z</time>
      </trkpt>
      <trkpt lat="48.75324" lon="6.01478">
        <ele>212.9</ele>
        <time>2019-11-01T00:36:20.171Z</time>
      </trkpt>
      <trkpt lat="48.75342" lon="6.01511">
        <ele>213.4</ele>
        <time>2019-11-01T00:36:24.831Z</time>
      </trkpt>
      <trkpt lat="48.75358" lon="6.01538">
        <ele>213.4</ele>
        <time>2019-11-01T00:36:28.918Z</time>
      </trkpt>
      <trkpt lat="48.75374" lon="6.01568">
        <ele>213.4</ele>
        <time>2019-11-01T00:36:33.155Z</time>
      </trkpt>
      <trkpt lat="48.75387" lon="6.01607">
        <ele>213.6</ele>
        <time>2019-11-01T00:36:38.008Z</time>
      </trkpt>
      <trkpt lat="48.75402" lon="6.01637">
        <ele>213.2</ele>
        <time>2019-11-01T00:36:42.134Z</time>
      </trkpt>
      <trkpt lat="48.75413" lon="6.01672">
        <ele>213.2</ele>
        <time>2019-11-01T00:36:46.473Z</time>
      </trkpt>
      <trkpt lat="48.75424" lon="6.01705">
        <ele>213.8</ele>
        <time>2019-11-01T00:36:50.561Z</time>
      </trkpt>
      <trkpt lat="48.75437" lon="6.0174">
        <ele>213.5</ele>
        <time>2019-11-01T00:36:54.964Z</time>
      </trkpt>
      <trkpt lat="48.75449" lon="6.01775">
        <ele>213.5</ele>
        <time>2019-11-01T00:36:59.372Z</time>
      </trkpt>
      <trkpt lat="48.7546" lon="6.01816">
        <ele>213.7</ele>
        <time>2019-11-01T00:37:04.276Z</time>
      </trkpt>
      <trkpt lat="48.75473" lon="6.0185">
        <ele>213.7</ele>
        <time>2019-11-01T00:37:08.625Z</time>
      </trkpt>
      <trkpt lat="48.75485" lon="6.01889">
        <ele>213.6</ele>
        <time>2019-11-01T00:37:13.454Z</time>
      </trkpt>
      <trkpt lat="48.75497" lon="6.01925">
        <ele>213.8</ele>
        <time>2019-11-01T00:37:17.866Z</time>
      </trkpt>
      <trkpt lat="48.75512" lon="6.01962">
        <ele>213.7</ele>
        <time>2019-11-01T00:37:22.755Z</time>
      </trkpt>
      <trkpt lat="48.7552" lon="6.01999">
        <ele>213.5</ele>
        <time>2019-11-01T00:37:27.104Z</time>
      </trkpt>
      <trkpt lat="48.75529" lon="6.02036">
        <ele>213.5</ele>
        <time>2019-11-01T00:37:31.400Z</time>
      </trkpt>
      <trkpt lat="48.7554" lon="6.02069">
        <ele>213</ele>
        <time>2019-11-01T00:37:35.478Z</time>
      </trkpt>
      <trkpt lat="48.75551" lon="6.02101">
        <ele>213.5</ele>
        <time>2019-11-01T00:37:39.539Z</time>
      </trkpt>
      <trkpt lat="48.75566" lon="6.02137">
        <ele>213.5</ele>
        <time>2019-11-01T00:37:44.271Z</time>
      </trkpt>
      <trkpt lat="48.75576" lon="6.02176">
        <ele>213.3</ele>
        <time>2019-11-01T00:37:48.828Z</time>
      </trkpt>
      <trkpt lat="48.75586" lon="6.02213">
        <ele>213.7</ele>
        <time>2019-11-01T00:37:53.330Z</time>
      </trkpt>
      <trkpt lat="48.75597" lon="6.02251">
        <ele>213.5</ele>
        <time>2019-11-01T00:37:57.983Z</time>
      </trkpt>
      <trkpt lat="48.75607" lon="6.02292">
        <ele>213.4</ele>
        <time>2019-11-01T00:38:02.725Z</time>
      </trkpt>
      <trkpt lat="48.7562" lon="6.0233">
        <ele>213.6</ele>
        <time>2019-11-01T00:38:07.545Z</time>
      </trkpt>
      <trkpt lat="48.75631" lon="6.02369">
        <ele>212.8</ele>
        <time>2019-11-01T00:38:12.228Z</time>
      </trkpt>
      <trkpt lat="48.75643" lon="6.02406">
        <ele>213.3</ele>
        <time>2019-11-01T00:38:16.744Z</time>
      </trkpt>
      <trkpt lat="48.75653" lon="6.02441">
        <ele>213.3</ele>
        <time>2019-11-01T00:38:21.001Z</time>
      </trkpt>
      <trkpt lat="48.7566" lon="6.0248">
        <ele>213</ele>
        <time>2019-11-01T00:38:25.463Z</time>
      </trkpt>
      <trkpt lat="48.75669" lon="6.02516">
        <ele>212.9</ele>
        <time>2019-11-01T00:38:29.732Z</time>
      </trkpt>
      <trkpt lat="48.7568" lon="6.0255">
        <ele>213.5</ele>
        <time>2019-11-01T00:38:34.036Z</time>
      </trkpt>
      <trkpt lat="48.7569" lon="6.02588">
        <ele>213.5</ele>
        <time>2019-11-01T00:38:38.562Z</time>
      </trkpt>
      <trkpt lat="48.75698" lon="6.02631">
        <ele>213.2</ele>
        <time>2019-11-01T00:38:43.443Z</time>
      </trkpt>
      <trkpt lat="48.75705" lon="6.02668">
        <ele>213.2</ele>
        <time>2019-11-01T00:38:47.742Z</time>
      </trkpt>
      <trkpt lat="48.75713" lon="6.02699">
        <ele>213.1</ele>
        <time>2019-11-01T00:38:51.446Z</time>
      </trkpt>
      <trkpt lat="48.75708" lon="6.02719">
        <ele>213.5</ele>
        <time>2019-11-01T00:38:53.809Z</time>
      </trkpt>
      <trkpt lat="48.75717" lon="6.02749">
        <ele>213.1</ele>
        <time>2019-11-01T00:38:57.455Z</time>
      </trkpt>
      <trkpt lat="48.75725" lon="6.02782">
        <ele>213.1</ele>
        <time>2019-11-01T00:39:01.409Z</time>
      </trkpt>
      <trkpt lat="48.75736" lon="6.0282">
        <ele>213.1</ele>
        <time>2019-11-01T00:39:05.930Z</time>
      </trkpt>
      <trkpt lat="48.75746" lon="6.02858">
        <ele>213.4</ele>
        <time>2019-11-01T00:39:10.563Z</time>
      </trkpt>
      <trkpt lat="48.75758" lon="6.02898">
        <ele>213.2</ele>
        <time>2019-11-01T00:39:15.410Z</time>
      </trkpt>
      <trkpt lat="48.75772" lon="6.02934">
        <ele>213.7</ele>
        <time>2019-11-01T00:39:20.034Z</time>
      </trkpt>
      <trkpt lat="48.75781" lon="6.02972">
        <ele>213.7</ele>
        <time>2019-11-01T00:39:24.577Z</time>
      </trkpt>
      <trkpt lat="48.75794" lon="6.03009">
        <ele>214.1</ele>
        <time>2019-11-01T00:39:29.093Z</time>
      </trkpt>
      <trkpt lat="48.75802" lon="6.03046">
        <ele>214.3</ele>
        <time>2019-11-01T00:39:33.527Z</time>
      </trkpt>
      <trkpt lat="48.75812" lon="6.03081">
        <ele>213.4</ele>
        <time>2019-11-01T00:39:37.670Z</time>
      </trkpt>
      <trkpt lat="48.75831" lon="6.03109">
        <ele>213.9</ele>
        <time>2019-11-01T00:39:42.145Z</time>
      </trkpt>
      <trkpt lat="48.75846" lon="6.0314">
        <ele>213.7</ele>
        <time>2019-11-01T00:39:46.499Z</time>
      </trkpt>
      <trkpt lat="48.75857" lon="6.03175">
        <ele>213.6</ele>
        <time>2019-11-01T00:39:50.709Z</time>
      </trkpt>
      <trkpt lat="48.75865" lon="6.03211">
        <ele>214.8</ele>
        <time>2019-11-01T00:39:54.938Z</time>
      </trkpt>
      <trkpt lat="48.75875" lon="6.03247">
        <ele>215.6</ele>
        <time>2019-11-01T00:39:59.240Z</time>
      </trkpt>
      <trkpt lat="48.75884" lon="6.03284">
        <ele>215.3</ele>
        <time>2019-11-01T00:40:03.675Z</time>
      </trkpt>
      <trkpt lat="48.75886" lon="6.03325">
        <ele>215.7</ele>
        <time>2019-11-01T00:40:08.224Z</time>
      </trkpt>
      <trkpt lat="48.75886" lon="6.03365">
        <ele>216.2</ele>
        <time>2019-11-01T00:40:12.570Z</time>
      </trkpt>
      <trkpt lat="48.75885" lon="6.03403">
        <ele>216.2</ele>
        <time>2019-11-01T00:40:16.842Z</time>
      </trkpt>
      <trkpt lat="48.75883" lon="6.03441">
        <ele>216.2</ele>
        <time>2019-11-01T00:40:21.004Z</time>
      </trkpt>
      <trkpt lat="48.75883" lon="6.03477">
        <ele>216.6</ele>
        <time>2019-11-01T00:40:25.020Z</time>
      </trkpt>
      <trkpt lat="48.75882" lon="6.03518">
        <ele>216.3</ele>
        <time>2019-11-01T00:40:29.566Z</time>
      </trkpt>
      <trkpt lat="48.75885" lon="6.03557">
        <ele>217.4</ele>
        <time>2019-11-01T00:40:33.889Z</time>
      </trkpt>
      <trkpt lat="48.75883" lon="6.03592">
        <ele>217.8</ele>
        <time>2019-11-01T00:40:37.802Z</time>
      </trkpt>
      <trkpt lat="48.75882" lon="6.03628">
        <ele>217.8</ele>
        <time>2019-11-01T00:40:41.783Z</time>
      </trkpt>
      <trkpt lat="48.75884" lon="6.03666">
        <ele>217.8</ele>
        <time>2019-11-01T00:40:46.014Z</time>
      </trkpt>
      <trkpt lat="48.75886" lon="6.03703">
        <ele>217.9</ele>
        <time>2019-11-01T00:40:50.181Z</time>
      </trkpt>
      <trkpt lat="48.7589" lon="6.0374">
        <ele>217.5</ele>
        <time>2019-11-01T00:40:54.347Z</time>
      </trkpt>
      <trkpt lat="48.75887" lon="6.0378">
        <ele>217.5</ele>
        <time>2019-11-01T00:40:58.799Z</time>
      </trkpt>
      <trkpt lat="48.75891" lon="6.03825">
        <ele>216.5</ele>
        <time>2019-11-01T00:41:03.744Z</time>
      </trkpt>
      <trkpt lat="48.75891" lon="6.0387">
        <ele>216</ele>
        <time>2019-11-01T00:41:08.824Z</time>
      </trkpt>
      <trkpt lat="48.75891" lon="6.03918">
        <ele>215.1</ele>
        <time>2019-11-01T00:41:14.102Z</time>
      </trkpt>
      <trkpt lat="48.7589" lon="6.03965">
        <ele>214.8</ele>
        <time>2019-11-01T00:41:19.338Z</time>
      </trkpt>
      <trkpt lat="48.75889" lon="6.04004">
        <ele>214.8</ele>
        <time>2019-11-01T00:41:23.698Z</time>
      </trkpt>
      <trkpt lat="48.75886" lon="6.04047">
        <ele>214.6</ele>
        <time>2019-11-01T00:41:28.456Z</time>
      </trkpt>
      <trkpt lat="48.75887" lon="6.04093">
        <ele>214.1</ele>
        <time>2019-11-01T00:41:33.534Z</time>
      </trkpt>
      <trkpt lat="48.75886" lon="6.04127">
        <ele>215</ele>
        <time>2019-11-01T00:41:37.297Z</time>
      </trkpt>
      <trkpt lat="48.75876" lon="6.04156">
        <ele>215.6</ele>
        <time>2019-11-01T00:41:40.910Z</time>
      </trkpt>
      <trkpt lat="48.75872" lon="6.0419">
        <ele>216.5</ele>
        <time>2019-11-01T00:41:44.717Z</time>
      </trkpt>
      <trkpt lat="48.75872" lon="6.04222">
        <ele>217.3</ele>
        <time>2019-11-01T00:41:48.287Z</time>
      </trkpt>
      <trkpt lat="48.75865" lon="6.04248">
        <ele>218.1</ele>
        <time>2019-11-01T00:41:51.403Z</time>
      </trkpt>
      <trkpt lat="48.75863" lon="6.04282">
        <ele>218.1</ele>
        <time>2019-11-01T00:41:55.128Z</time>
      </trkpt>
      <trkpt lat="48.75858" lon="6.04323">
        <ele>218.3</ele>
        <time>2019-11-01T00:41:59.797Z</time>
      </trkpt>
      <trkpt lat="48.75853" lon="6.04364">
        <ele>218</ele>
        <time>2019-11-01T00:42:04.412Z</time>
      </trkpt>
      <trkpt lat="48.75849" lon="6.04404">
        <ele>218</ele>
        <time>2019-11-01T00:42:08.906Z</time>
      </trkpt>
      <trkpt lat="48.7584" lon="6.04437">
        <ele>217.6</ele>
        <time>2019-11-01T00:42:12.785Z</time>
      </trkpt>
      <trkpt lat="48.75837" lon="6.04473">
        <ele>217.6</ele>
        <time>2019-11-01T00:42:16.903Z</time>
      </trkpt>
      <trkpt lat="48.75839" lon="6.04517">
        <ele>217.6</ele>
        <time>2019-11-01T00:42:21.807Z</time>
      </trkpt>
      <trkpt lat="48.75837" lon="6.04552">
        <ele>217.2</ele>
        <time>2019-11-01T00:42:25.672Z</time>
      </trkpt>
      <trkpt lat="48.75833" lon="6.04591">
        <ele>216.5</ele>
        <time>2019-11-01T00:42:29.994Z</time>
      </trkpt>
      <trkpt lat="48.7583" lon="6.0464">
        <ele>216.4</ele>
        <time>2019-11-01T00:42:35.497Z</time>
      </trkpt>
      <trkpt lat="48.75828" lon="6.04683">
        <ele>216.4</ele>
        <time>2019-11-01T00:42:40.310Z</time>
      </trkpt>
      <trkpt lat="48.75821" lon="6.04715">
        <ele>215</ele>
        <time>2019-11-01T00:42:43.939Z</time>
      </trkpt>
      <trkpt lat="48.75815" lon="6.04748">
        <ele>214</ele>
        <time>2019-11-01T00:42:47.750Z</time>
      </trkpt>
      <trkpt lat="48.75812" lon="6.04787">
        <ele>215.4</ele>
        <time>2019-11-01T00:42:52.192Z</time>
      </trkpt>
      <trkpt lat="48.75812" lon="6.04828">
        <ele>215.8</ele>
        <time>2019-11-01T00:42:56.673Z</time>
      </trkpt>
      <trkpt lat="48.7581" lon="6.04875">
        <ele>215.7</ele>
        <time>2019-11-01T00:43:01.855Z</time>
      </trkpt>
      <trkpt lat="48.75813" lon="6.04911">
        <ele>215.2</ele>
        <time>2019-11-01T00:43:05.937Z</time>
      </trkpt>
      <trkpt lat="48.75816" lon="6.04948">
        <ele>216.4</ele>
        <time>2019-11-01T00:43:10.098Z</time>
      </trkpt>
      <trkpt lat="48.7582" lon="6.04987">
        <ele>216.5</ele>
        <time>2019-11-01T00:43:14.428Z</time>
      </trkpt>
      <trkpt lat="48.75829" lon="6.05024">
        <ele>215.6</ele>
        <time>2019-11-01T00:43:18.845Z</time>
      </trkpt>
      <trkpt lat="48.75841" lon="6.05061">
        <ele>216</ele>
        <time>2019-11-01T00:43:23.359Z</time>
      </trkpt>
      <trkpt lat="48.75846" lon="6.05096">
        <ele>215.2</ele>
        <time>2019-11-01T00:43:27.334Z</time>
      </trkpt>
      <trkpt lat="48.75852" lon="6.05131">
        <ele>215.5</ele>
        <time>2019-11-01T00:43:31.320Z</time>
      </trkpt>
      <trkpt lat="48.75864" lon="6.05161">
        <ele>215.5</ele>
        <time>2019-11-01T00:43:35.277Z</time>
      </trkpt>
      <trkpt lat="48.75872" lon="6.05196">
        <ele>215.7</ele>
        <time>2019-11-01T00:43:39.379Z</time>
      </trkpt>
      <trkpt lat="48.75879" lon="6.05236">
        <ele>214.5</ele>
        <time>2019-11-01T00:43:43.854Z</time>
      </trkpt>
      <trkpt lat="48.75887" lon="6.05277">
        <ele>214.2</ele>
        <time>2019-11-01T00:43:48.635Z</time>
      </trkpt>
      <trkpt lat="48.75897" lon="6.05318">
        <ele>214.7</ele>
        <time>2019-11-01T00:43:53.502Z</time>
      </trkpt>
      <trkpt lat="48.75902" lon="6.05355">
        <ele>214.5</ele>
        <time>2019-11-01T00:43:57.674Z</time>
      </trkpt>
      <trkpt lat="48.75907" lon="6.05396">
        <ele>214.1</ele>
        <time>2019-11-01T00:44:02.350Z</time>
      </trkpt>
      <trkpt lat="48.75911" lon="6.05435">
        <ele>214.4</ele>
        <time>2019-11-01T00:44:06.696Z</time>
      </trkpt>
      <trkpt lat="48.75909" lon="6.05474">
        <ele>213.6</ele>
        <time>2019-11-01T00:44:11.080Z</time>
      </trkpt>
      <trkpt lat="48.75912" lon="6.05513">
        <ele>214.5</ele>
        <time>2019-11-01T00:44:15.430Z</time>
      </trkpt>
      <trkpt lat="48.75915" lon="6.05548">
        <ele>213.6</ele>
        <time>2019-11-01T00:44:19.306Z</time>
      </trkpt>
      <trkpt lat="48.75914" lon="6.05582">
        <ele>214.4</ele>
        <time>2019-11-01T00:44:23.032Z</time>
      </trkpt>
      <trkpt lat="48.75914" lon="6.05618">
        <ele>215.1</ele>
        <time>2019-11-01T00:44:27.112Z</time>
      </trkpt>
      <trkpt lat="48.75915" lon="6.05656">
        <ele>215.6</ele>
        <time>2019-11-01T00:44:31.250Z</time>
      </trkpt>
      <trkpt lat="48.75915" lon="6.05697">
        <ele>215.4</ele>
        <time>2019-11-01T00:44:35.796Z</time>
      </trkpt>
      <trkpt lat="48.75914" lon="6.05731">
        <ele>216</ele>
        <time>2019-11-01T00:44:39.646Z</time>
      </trkpt>
      <trkpt lat="48.75914" lon="6.05767">
        <ele>216.2</ele>
        <time>2019-11-01T00:44:43.538Z</time>
      </trkpt>
      <trkpt lat="48.75911" lon="6.05799">
        <ele>217.5</ele>
        <time>2019-11-01T00:44:47.192Z</time>
      </trkpt>
      <trkpt lat="48.75908" lon="6.05828">
        <ele>216.3</ele>
        <time>2019-11-01T00:44:50.453Z</time>
      </trkpt>
      <trkpt lat="48.759" lon="6.05861">
        <ele>217.7</ele>
        <time>2019-11-01T00:44:54.295Z</time>
      </trkpt>
      <trkpt lat="48.75884" lon="6.05884">
        <ele>217.1</ele>
        <time>2019-11-01T00:44:58.019Z</time>
      </trkpt>
      <trkpt lat="48.75873" lon="6.0592">
        <ele>216</ele>
        <time>2019-11-01T00:45:02.513Z</time>
      </trkpt>
      <trkpt lat="48.75861" lon="6.05962">
        <ele>216</ele>
        <time>2019-11-01T00:45:07.535Z</time>
      </trkpt>
      <trkpt lat="48.75848" lon="6.06">
        <ele>214.7</ele>
        <time>2019-11-01T00:45:12.289Z</time>
      </trkpt>
      <trkpt lat="48.75831" lon="6.06037">
        <ele>214.1</ele>
        <time>2019-11-01T00:45:17.242Z</time>
      </trkpt>
      <trkpt lat="48.75815" lon="6.0607">
        <ele>214.1</ele>
        <time>2019-11-01T00:45:21.793Z</time>
      </trkpt>
      <trkpt lat="48.75799" lon="6.06104">
        <ele>213</ele>
        <time>2019-11-01T00:45:26.485Z</time>
      </trkpt>
      <trkpt lat="48.75783" lon="6.06138">
        <ele>212.5</ele>
        <time>2019-11-01T00:45:31.042Z</time>
      </trkpt>
      <trkpt lat="48.75766" lon="6.06168">
        <ele>212.9</ele>
        <time>2019-11-01T00:45:35.404Z</time>
      </trkpt>
      <trkpt lat="48.75751" lon="6.06199">
        <ele>212.6</ele>
        <time>2019-11-01T00:45:39.764Z</time>
      </trkpt>
      <trkpt lat="48.75732" lon="6.06224">
        <ele>213.7</ele>
        <time>2019-11-01T00:45:43.953Z</time>
      </trkpt>
      <trkpt lat="48.75716" lon="6.06242">
        <ele>214.2</ele>
        <time>2019-11-01T00:45:47.238Z</time>
      </trkpt>
      <trkpt lat="48.75699" lon="6.0626">
        <ele>214.8</ele>
        <time>2019-11-01T00:45:50.851Z</time>
      </trkpt>
      <trkpt lat="48.75679" lon="6.06276">
        <ele>214.8</ele>
        <time>2019-11-01T00:45:54.538Z</time>
      </trkpt>
      <trkpt lat="48.75662" lon="6.06285">
        <ele>214.9</ele>
        <time>2019-11-01T00:45:57.660Z</time>
      </trkpt>
      <trkpt lat="48.75644" lon="6.06302">
        <ele>214.8</ele>
        <time>2019-11-01T00:46:01.192Z</time>
      </trkpt>
      <trkpt lat="48.75624" lon="6.0632">
        <ele>216</ele>
        <time>2019-11-01T00:46:05.123Z</time>
      </trkpt>
      <trkpt lat="48.75607" lon="6.06333">
        <ele>217.3</ele>
        <time>2019-11-01T00:46:08.362Z</time>
      </trkpt>
      <trkpt lat="48.7559" lon="6.06339">
        <ele>218.3</ele>
        <time>2019-11-01T00:46:11.232Z</time>
      </trkpt>
      <trkpt lat="48.75568" lon="6.06337">
        <ele>219.5</ele>
        <time>2019-11-01T00:46:14.989Z</time>
      </trkpt>
      <trkpt lat="48.75542" lon="6.06334">
        <ele>218</ele>
        <time>2019-11-01T00:46:19.341Z</time>
      </trkpt>
      <trkpt lat="48.75512" lon="6.06336">
        <ele>217.3</ele>
        <time>2019-11-01T00:46:24.447Z</time>
      </trkpt>
      <trkpt lat="48.75479" lon="6.06333">
        <ele>216.3</ele>
        <time>2019-11-01T00:46:29.878Z</time>
      </trkpt>
      <trkpt lat="48.7545" lon="6.06328">
        <ele>215.3</ele>
        <time>2019-11-01T00:46:34.816Z</time>
      </trkpt>
      <trkpt lat="48.75425" lon="6.06324">
        <ele>214.4</ele>
        <time>2019-11-01T00:46:39.161Z</time>
      </trkpt>
      <trkpt lat="48.75403" lon="6.06317">
        <ele>214.3</ele>
        <time>2019-11-01T00:46:42.946Z</time>
      </trkpt>
      <trkpt lat="48.75381" lon="6.06311">
        <ele>215.1</ele>
        <time>2019-11-01T00:46:46.625Z</time>
      </trkpt>
      <trkpt lat="48.75358" lon="6.06299">
        <ele>216.2</ele>
        <time>2019-11-01T00:46:50.737Z</time>
      </trkpt>
      <trkpt lat="48.75341" lon="6.06286">
        <ele>216.4</ele>
        <time>2019-11-01T00:46:53.939Z</time>
      </trkpt>
      <trkpt lat="48.75318" lon="6.06267">
        <ele>216.8</ele>
        <time>2019-11-01T00:46:58.303Z</time>
      </trkpt>
      <trkpt lat="48.75298" lon="6.06251">
        <ele>216.9</ele>
        <time>2019-11-01T00:47:02.116Z</time>
      </trkpt>
      <trkpt lat="48.75273" lon="6.06228">
        <ele>215.6</ele>
        <time>2019-11-01T00:47:07.074Z</time>
      </trkpt>
      <trkpt lat="48.75245" lon="6.06203">
        <ele>214.9</ele>
        <time>2019-11-01T00:47:12.501Z</time>
      </trkpt>
      <trkpt lat="48.75217" lon="6.06175">
        <ele>213.7</ele>
        <time>2019-11-01T00:47:18.120Z</time>
      </trkpt>
      <trkpt lat="48.75186" lon="6.06141">
        <ele>211.9</ele>
        <time>2019-11-01T00:47:24.496Z</time>
      </trkpt>
      <trkpt lat="48.75153" lon="6.06113">
        <ele>208.2</ele>
        <time>2019-11-01T00:47:30.916Z</time>
      </trkpt>
      <trkpt lat="48.75126" lon="6.06087">
        <ele>208.2</ele>
        <time>2019-11-01T00:47:36.404Z</time>
      </trkpt>
      <trkpt lat="48.75099" lon="6.06054">
        <ele>208.7</ele>
        <time>2019-11-01T00:47:42.209Z</time>
      </trkpt>
      <trkpt lat="48.75074" lon="6.06033">
        <ele>209.5</ele>
        <time>2019-11-01T00:47:46.917Z</time>
      </trkpt>
      <trkpt lat="48.75054" lon="6.06025">
        <ele>209.6</ele>
        <time>2019-11-01T00:47:50.469Z</time>
      </trkpt>
      <trkpt lat="48.75033" lon="6.06027">
        <ele>209.6</ele>
        <time>2019-11-01T00:47:53.958Z</time>
      </trkpt>
      <trkpt lat="48.75016" lon="6.06028">
        <ele>211.8</ele>
        <time>2019-11-01T00:47:56.786Z</time>
      </trkpt>
      <trkpt lat="48.75002" lon="6.06037">
        <ele>213.3</ele>
        <time>2019-11-01T00:47:59.476Z</time>
      </trkpt>
      <trkpt lat="48.74991" lon="6.0605">
        <ele>214.3</ele>
        <time>2019-11-01T00:48:01.757Z</time>
      </trkpt>
      <trkpt lat="48.74982" lon="6.06065">
        <ele>215.4</ele>
        <time>2019-11-01T00:48:04.040Z</time>
      </trkpt>
      <trkpt lat="48.74975" lon="6.06083">
        <ele>215.9</ele>
        <time>2019-11-01T00:48:06.308Z</time>
      </trkpt>
      <trkpt lat="48.74967" lon="6.0611">
        <ele>215.9</ele>
        <time>2019-11-01T00:48:09.625Z</time>
      </trkpt>
      <trkpt lat="48.74964" lon="6.06143">
        <ele>216.3</ele>
        <time>2019-11-01T00:48:13.348Z</time>
      </trkpt>
      <trkpt lat="48.74961" lon="6.06175">
        <ele>216.6</ele>
        <time>2019-11-01T00:48:16.886Z</time>
      </trkpt>
      <trkpt lat="48.74958" lon="6.06204">
        <ele>216.6</ele>
        <time>2019-11-01T00:48:20.213Z</time>
      </trkpt>
      <trkpt lat="48.74964" lon="6.06237">
        <ele>217</ele>
        <time>2019-11-01T00:48:24.009Z</time>
      </trkpt>
      <trkpt lat="48.74972" lon="6.06271">
        <ele>216.5</ele>
        <time>2019-11-01T00:48:27.956Z</time>
      </trkpt>
      <trkpt lat="48.74976" lon="6.06305">
        <ele>217.1</ele>
        <time>2019-11-01T00:48:31.861Z</time>
      </trkpt>
      <trkpt lat="48.74976" lon="6.06345">
        <ele>216.5</ele>
        <time>2019-11-01T00:48:36.310Z</time>
      </trkpt>
      <trkpt lat="48.74973" lon="6.06384">
        <ele>216.4</ele>
        <time>2019-11-01T00:48:40.591Z</time>
      </trkpt>
      <trkpt lat="48.74972" lon="6.06421">
        <ele>216.4</ele>
        <time>2019-11-01T00:48:44.709Z</time>
      </trkpt>
      <trkpt lat="48.7497" lon="6.06459">
        <ele>217.1</ele>
        <time>2019-11-01T00:48:48.898Z</time>
      </trkpt>
      <trkpt lat="48.74964" lon="6.06491">
        <ele>217.1</ele>
        <time>2019-11-01T00:48:52.641Z</time>
      </trkpt>
      <trkpt lat="48.74963" lon="6.06523">
        <ele>216.8</ele>
        <time>2019-11-01T00:48:56.182Z</time>
      </trkpt>
      <trkpt lat="48.74964" lon="6.06556">
        <ele>216.7</ele>
        <time>2019-11-01T00:48:59.844Z</time>
      </trkpt>
      <trkpt lat="48.74961" lon="6.06585">
        <ele>217.3</ele>
        <time>2019-11-01T00:49:03.119Z</time>
      </trkpt>
      <trkpt lat="48.74962" lon="6.0661">
        <ele>217.5</ele>
        <time>2019-11-01T00:49:05.908Z</time>
      </trkpt>
      <trkpt lat="48.74962" lon="6.06638">
        <ele>217.8</ele>
        <time>2019-11-01T00:49:08.982Z</time>
      </trkpt>
      <trkpt lat="48.74964" lon="6.06658">
        <ele>218.4</ele>
        <time>2019-11-01T00:49:11.161Z</time>
      </trkpt>
      <trkpt lat="48.7496" lon="6.06668">
        <ele>218.4</ele>
        <time>2019-11-01T00:49:12.501Z</time>
      </trkpt>
      <trkpt lat="48.74958" lon="6.06688">
        <ele>219</ele>
        <time>2019-11-01T00:49:14.714Z</time>
      </trkpt>
      <trkpt lat="48.74958" lon="6.0671">
        <ele>220.1</ele>
        <time>2019-11-01T00:49:17.110Z</time>
      </trkpt>
      <trkpt lat="48.74959" lon="6.06736">
        <ele>220.8</ele>
        <time>2019-11-01T00:49:20.040Z</time>
      </trkpt>
      <trkpt lat="48.74957" lon="6.06763">
        <ele>221</ele>
        <time>2019-11-01T00:49:23.018Z</time>
      </trkpt>
      <trkpt lat="48.74955" lon="6.06799">
        <ele>220.3</ele>
        <time>2019-11-01T00:49:27.064Z</time>
      </trkpt>
      <trkpt lat="48.74947" lon="6.06836">
        <ele>220.3</ele>
        <time>2019-11-01T00:49:31.393Z</time>
      </trkpt>
      <trkpt lat="48.7494" lon="6.06871">
        <ele>221.2</ele>
        <time>2019-11-01T00:49:35.422Z</time>
      </trkpt>
      <trkpt lat="48.74938" lon="6.06901">
        <ele>222.3</ele>
        <time>2019-11-01T00:49:38.795Z</time>
      </trkpt>
      <trkpt lat="48.74937" lon="6.0693">
        <ele>223.5</ele>
        <time>2019-11-01T00:49:42.059Z</time>
      </trkpt>
      <trkpt lat="48.74943" lon="6.06952">
        <ele>225.1</ele>
        <time>2019-11-01T00:49:44.692Z</time>
      </trkpt>
      <trkpt lat="48.74951" lon="6.06976">
        <ele>226.5</ele>
        <time>2019-11-01T00:49:47.649Z</time>
      </trkpt>
      <trkpt lat="48.74957" lon="6.07001">
        <ele>227.4</ele>
        <time>2019-11-01T00:49:50.601Z</time>
      </trkpt>
      <trkpt lat="48.74958" lon="6.07025">
        <ele>227.9</ele>
        <time>2019-11-01T00:49:53.309Z</time>
      </trkpt>
      <trkpt lat="48.74962" lon="6.07055">
        <ele>228.9</ele>
        <time>2019-11-01T00:49:56.735Z</time>
      </trkpt>
      <trkpt lat="48.74969" lon="6.07084">
        <ele>229.1</ele>
        <time>2019-11-01T00:50:00.126Z</time>
      </trkpt>
      <trkpt lat="48.74979" lon="6.07118">
        <ele>229.4</ele>
        <time>2019-11-01T00:50:04.224Z</time>
      </trkpt>
      <trkpt lat="48.74987" lon="6.07155">
        <ele>227.2</ele>
        <time>2019-11-01T00:50:08.563Z</time>
      </trkpt>
      <trkpt lat="48.74999" lon="6.072">
        <ele>226</ele>
        <time>2019-11-01T00:50:13.956Z</time>
      </trkpt>
      <trkpt lat="48.75009" lon="6.07252">
        <ele>224.3</ele>
        <time>2019-11-01T00:50:19.991Z</time>
      </trkpt>
      <trkpt lat="48.75025" lon="6.07307">
        <ele>222.4</ele>
        <time>2019-11-01T00:50:26.621Z</time>
      </trkpt>
      <trkpt lat="48.75039" lon="6.07363">
        <ele>221</ele>
        <time>2019-11-01T00:50:33.198Z</time>
      </trkpt>
      <trkpt lat="48.7505" lon="6.07415">
        <ele>219.5</ele>
        <time>2019-11-01T00:50:39.349Z</time>
      </trkpt>
      <trkpt lat="48.7506" lon="6.07463">
        <ele>219.3</ele>
        <time>2019-11-01T00:50:44.896Z</time>
      </trkpt>
      <trkpt lat="48.75069" lon="6.07506">
        <ele>219.3</ele>
        <time>2019-11-01T00:50:49.899Z</time>
      </trkpt>
      <trkpt lat="48.75081" lon="6.07546">
        <ele>220.4</ele>
        <time>2019-11-01T00:50:54.752Z</time>
      </trkpt>
      <trkpt lat="48.75099" lon="6.07583">
        <ele>218.1</ele>
        <time>2019-11-01T00:50:59.922Z</time>
      </trkpt>
      <trkpt lat="48.7512" lon="6.07628">
        <ele>216.9</ele>
        <time>2019-11-01T00:51:06.006Z</time>
      </trkpt>
      <trkpt lat="48.7514" lon="6.07669">
        <ele>216</ele>
        <time>2019-11-01T00:51:11.655Z</time>
      </trkpt>
      <trkpt lat="48.75157" lon="6.07709">
        <ele>216</ele>
        <time>2019-11-01T00:51:16.932Z</time>
      </trkpt>
      <trkpt lat="48.75174" lon="6.07745">
        <ele>217.6</ele>
        <time>2019-11-01T00:51:21.863Z</time>
      </trkpt>
      <trkpt lat="48.75195" lon="6.0778">
        <ele>216.6</ele>
        <time>2019-11-01T00:51:27.105Z</time>
      </trkpt>
      <trkpt lat="48.75214" lon="6.07817">
        <ele>216.3</ele>
        <time>2019-11-01T00:51:32.287Z</time>
      </trkpt>
      <trkpt lat="48.75227" lon="6.07856">
        <ele>215.2</ele>
        <time>2019-11-01T00:51:37.233Z</time>
      </trkpt>
      <trkpt lat="48.75244" lon="6.07892">
        <ele>215.1</ele>
        <time>2019-11-01T00:51:42.058Z</time>
      </trkpt>
      <trkpt lat="48.75266" lon="6.07927">
        <ele>215.8</ele>
        <time>2019-11-01T00:51:47.410Z</time>
      </trkpt>
      <trkpt lat="48.75282" lon="6.07963">
        <ele>214.7</ele>
        <time>2019-11-01T00:51:52.275Z</time>
      </trkpt>
      <trkpt lat="48.75297" lon="6.08002">
        <ele>214.5</ele>
        <time>2019-11-01T00:51:57.265Z</time>
      </trkpt>
      <trkpt lat="48.75317" lon="6.0804">
        <ele>214.5</ele>
        <time>2019-11-01T00:52:02.605Z</time>
      </trkpt>
      <trkpt lat="48.75334" lon="6.0808">
        <ele>214.3</ele>
        <time>2019-11-01T00:52:07.891Z</time>
      </trkpt>
      <trkpt lat="48.75354" lon="6.08117">
        <ele>214.5</ele>
        <time>2019-11-01T00:52:13.168Z</time>
      </trkpt>
      <trkpt lat="48.7537" lon="6.08154">
        <ele>213.5</ele>
        <time>2019-11-01T00:52:18.112Z</time>
      </trkpt>
      <trkpt lat="48.7539" lon="6.0819">
        <ele>212.9</ele>
        <time>2019-11-01T00:52:23.238Z</time>
      </trkpt>
      <trkpt lat="48.75406" lon="6.08227">
        <ele>211.7</ele>
        <time>2019-11-01T00:52:28.302Z</time>
      </trkpt>
      <trkpt lat="48.75423" lon="6.08265">
        <ele>211.4</ele>
        <time>2019-11-01T00:52:33.329Z</time>
      </trkpt>
      <trkpt lat="48.75444" lon="6.08305">
        <ele>211.9</ele>
        <time>2019-11-01T00:52:39.003Z</time>
      </trkpt>
      <trkpt lat="48.75465" lon="6.08344">
        <ele>211.1</ele>
        <time>2019-11-01T00:52:44.574Z</time>
      </trkpt>
      <trkpt lat="48.75487" lon="6.08378">
        <ele>211.1</ele>
        <time>2019-11-01T00:52:49.849Z</time>
      </trkpt>
      <trkpt lat="48.75506" lon="6.08413">
        <ele>211.6</ele>
        <time>2019-11-01T00:52:54.916Z</time>
      </trkpt>
      <trkpt lat="48.75522" lon="6.08454">
        <ele>211.7</ele>
        <time>2019-11-01T00:53:00.232Z</time>
      </trkpt>
      <trkpt lat="48.75539" lon="6.08493">
        <ele>211.2</ele>
        <time>2019-11-01T00:53:05.416Z</time>
      </trkpt>
      <trkpt lat="48.75557" lon="6.08532">
        <ele>211.2</ele>
        <time>2019-11-01T00:53:10.705Z</time>
      </trkpt>
      <trkpt lat="48.75577" lon="6.08565">
        <ele>211.2</ele>
        <time>2019-11-01T00:53:15.651Z</time>
      </trkpt>
      <trkpt lat="48.75593" lon="6.08599">
        <ele>210.7</ele>
        <time>2019-11-01T00:53:20.215Z</time>
      </trkpt>
      <trkpt lat="48.75608" lon="6.08633">
        <ele>211.1</ele>
        <time>2019-11-01T00:53:24.762Z</time>
      </trkpt>
      <trkpt lat="48.75625" lon="6.08664">
        <ele>211.1</ele>
        <time>2019-11-01T00:53:29.276Z</time>
      </trkpt>
      <trkpt lat="48.75641" lon="6.08693">
        <ele>212.1</ele>
        <time>2019-11-01T00:53:33.426Z</time>
      </trkpt>
      <trkpt lat="48.75656" lon="6.08723">
        <ele>211.6</ele>
        <time>2019-11-01T00:53:37.620Z</time>
      </trkpt>
      <trkpt lat="48.75673" lon="6.08753">
        <ele>212.1</ele>
        <time>2019-11-01T00:53:41.948Z</time>
      </trkpt>
      <trkpt lat="48.75687" lon="6.08785">
        <ele>212.8</ele>
        <time>2019-11-01T00:53:46.272Z</time>
      </trkpt>
      <trkpt lat="48.75701" lon="6.08815">
        <ele>212.8</ele>
        <time>2019-11-01T00:53:50.357Z</time>
      </trkpt>
      <trkpt lat="48.75716" lon="6.08845">
        <ele>212.4</ele>
        <time>2019-11-01T00:53:54.507Z</time>
      </trkpt>
      <trkpt lat="48.75734" lon="6.08878">
        <ele>212.7</ele>
        <time>2019-11-01T00:53:59.199Z</time>
      </trkpt>
      <trkpt lat="48.75752" lon="6.08908">
        <ele>212.7</ele>
        <time>2019-11-01T00:54:03.713Z</time>
      </trkpt>
      <trkpt lat="48.75772" lon="6.08941">
        <ele>213</ele>
        <time>2019-11-01T00:54:08.752Z</time>
      </trkpt>
      <trkpt lat="48.75793" lon="6.08973">
        <ele>213.1</ele>
        <time>2019-11-01T00:54:13.786Z</time>
      </trkpt>
      <trkpt lat="48.75811" lon="6.09008">
        <ele>212.5</ele>
        <time>2019-11-01T00:54:18.640Z</time>
      </trkpt>
      <trkpt lat="48.75829" lon="6.09042">
        <ele>213.3</ele>
        <time>2019-11-01T00:54:23.474Z</time>
      </trkpt>
      <trkpt lat="48.75845" lon="6.09075">
        <ele>213.7</ele>
        <time>2019-11-01T00:54:28.030Z</time>
      </trkpt>
      <trkpt lat="48.75862" lon="6.09104">
        <ele>214.5</ele>
        <time>2019-11-01T00:54:32.350Z</time>
      </trkpt>
      <trkpt lat="48.75878" lon="6.09133">
        <ele>215.2</ele>
        <time>2019-11-01T00:54:36.517Z</time>
      </trkpt>
      <trkpt lat="48.7589" lon="6.09162">
        <ele>215.6</ele>
        <time>2019-11-01T00:54:40.304Z</time>
      </trkpt>
      <trkpt lat="48.75903" lon="6.09193">
        <ele>216.7</ele>
        <time>2019-11-01T00:54:44.350Z</time>
      </trkpt>
      <trkpt lat="48.75915" lon="6.09226">
        <ele>216.7</ele>
        <time>2019-11-01T00:54:48.540Z</time>
      </trkpt>
      <trkpt lat="48.75926" lon="6.0926">
        <ele>217.7</ele>
        <time>2019-11-01T00:54:52.749Z</time>
      </trkpt>
      <trkpt lat="48.75933" lon="6.09296">
        <ele>218.2</ele>
        <time>2019-11-01T00:54:56.925Z</time>
      </trkpt>
      <trkpt lat="48.7594" lon="6.09337">
        <ele>218.5</ele>
        <time>2019-11-01T00:55:01.614Z</time>
      </trkpt>
      <trkpt lat="48.75946" lon="6.09376">
        <ele>218.8</ele>
        <time>2019-11-01T00:55:06.065Z</time>
      </trkpt>
      <trkpt lat="48.7595" lon="6.0942">
        <ele>217.8</ele>
        <time>2019-11-01T00:55:10.968Z</time>
      </trkpt>
      <trkpt lat="48.75955" lon="6.09465">
        <ele>217.2</ele>
        <time>2019-11-01T00:55:16.015Z</time>
      </trkpt>
      <trkpt lat="48.7596" lon="6.09509">
        <ele>217</ele>
        <time>2019-11-01T00:55:21.028Z</time>
      </trkpt>
      <trkpt lat="48.75967" lon="6.09553">
        <ele>217.7</ele>
        <time>2019-11-01T00:55:26.035Z</time>
      </trkpt>
      <trkpt lat="48.75975" lon="6.09597">
        <ele>216.8</ele>
        <time>2019-11-01T00:55:31.076Z</time>
      </trkpt>
      <trkpt lat="48.75982" lon="6.09637">
        <ele>216.6</ele>
        <time>2019-11-01T00:55:35.624Z</time>
      </trkpt>
      <trkpt lat="48.75986" lon="6.09675">
        <ele>217.5</ele>
        <time>2019-11-01T00:55:39.921Z</time>
      </trkpt>
      <trkpt lat="48.75988" lon="6.0972">
        <ele>215.4</ele>
        <time>2019-11-01T00:55:44.973Z</time>
      </trkpt>
      <trkpt lat="48.7599" lon="6.09765">
        <ele>214.7</ele>
        <time>2019-11-01T00:55:49.982Z</time>
      </trkpt>
      <trkpt lat="48.76003" lon="6.09808">
        <ele>214.5</ele>
        <time>2019-11-01T00:55:55.153Z</time>
      </trkpt>
      <trkpt lat="48.76019" lon="6.09848">
        <ele>214.5</ele>
        <time>2019-11-01T00:56:00.381Z</time>
      </trkpt>
      <trkpt lat="48.7603" lon="6.09883">
        <ele>214</ele>
        <time>2019-11-01T00:56:04.657Z</time>
      </trkpt>
      <trkpt lat="48.76039" lon="6.09919">
        <ele>214.6</ele>
        <time>2019-11-01T00:56:08.880Z</time>
      </trkpt>
      <trkpt lat="48.76047" lon="6.09949">
        <ele>215.2</ele>
        <time>2019-11-01T00:56:12.563Z</time>
      </trkpt>
      <trkpt lat="48.76055" lon="6.0998">
        <ele>216.3</ele>
        <time>2019-11-01T00:56:16.119Z</time>
      </trkpt>
      <trkpt lat="48.76064" lon="6.10009">
        <ele>217.8</ele>
        <time>2019-11-01T00:56:19.693Z</time>
      </trkpt>
      <trkpt lat="48.76065" lon="6.10038">
        <ele>218.9</ele>
        <time>2019-11-01T00:56:22.914Z</time>
      </trkpt>
      <trkpt lat="48.76071" lon="6.1007">
        <ele>219.1</ele>
        <time>2019-11-01T00:56:26.695Z</time>
      </trkpt>
      <trkpt lat="48.76075" lon="6.10106">
        <ele>219.3</ele>
        <time>2019-11-01T00:56:30.705Z</time>
      </trkpt>
      <trkpt lat="48.76086" lon="6.10143">
        <ele>219.3</ele>
        <time>2019-11-01T00:56:35.212Z</time>
      </trkpt>
      <trkpt lat="48.76102" lon="6.10177">
        <ele>220.5</ele>
        <time>2019-11-01T00:56:39.788Z</time>
      </trkpt>
      <trkpt lat="48.76117" lon="6.10204">
        <ele>221.8</ele>
        <time>2019-11-01T00:56:43.726Z</time>
      </trkpt>
      <trkpt lat="48.76126" lon="6.1023">
        <ele>223.4</ele>
        <time>2019-11-01T00:56:47.037Z</time>
      </trkpt>
      <trkpt lat="48.76138" lon="6.10248">
        <ele>224.2</ele>
        <time>2019-11-01T00:56:49.875Z</time>
      </trkpt>
      <trkpt lat="48.76148" lon="6.10266">
        <ele>225.5</ele>
        <time>2019-11-01T00:56:52.521Z</time>
      </trkpt>
      <trkpt lat="48.76156" lon="6.10284">
        <ele>226.3</ele>
        <time>2019-11-01T00:56:54.928Z</time>
      </trkpt>
      <trkpt lat="48.76168" lon="6.10309">
        <ele>226.7</ele>
        <time>2019-11-01T00:56:58.271Z</time>
      </trkpt>
      <trkpt lat="48.76179" lon="6.10335">
        <ele>226.9</ele>
        <time>2019-11-01T00:57:01.706Z</time>
      </trkpt>
      <trkpt lat="48.7619" lon="6.10367">
        <ele>226</ele>
        <time>2019-11-01T00:57:05.747Z</time>
      </trkpt>
      <trkpt lat="48.76201" lon="6.10398">
        <ele>226</ele>
        <time>2019-11-01T00:57:09.652Z</time>
      </trkpt>
      <trkpt lat="48.76213" lon="6.10435">
        <ele>226.4</ele>
        <time>2019-11-01T00:57:14.153Z</time>
      </trkpt>
      <trkpt lat="48.7622" lon="6.10472">
        <ele>225.4</ele>
        <time>2019-11-01T00:57:18.436Z</time>
      </trkpt>
      <trkpt lat="48.7622" lon="6.10509">
        <ele>225.6</ele>
        <time>2019-11-01T00:57:22.551Z</time>
      </trkpt>
      <trkpt lat="48.76221" lon="6.1056">
        <ele>224.2</ele>
        <time>2019-11-01T00:57:28.197Z</time>
      </trkpt>
      <trkpt lat="48.76216" lon="6.1063">
        <ele>220.6</ele>
        <time>2019-11-01T00:57:36.027Z</time>
      </trkpt>
      <trkpt lat="48.76214" lon="6.10693">
        <ele>219.4</ele>
        <time>2019-11-01T00:57:42.941Z</time>
      </trkpt>
      <trkpt lat="48.76212" lon="6.10745">
        <ele>219.1</ele>
        <time>2019-11-01T00:57:48.766Z</time>
      </trkpt>
      <trkpt lat="48.76215" lon="6.10789">
        <ele>220.3</ele>
        <time>2019-11-01T00:57:53.686Z</time>
      </trkpt>
      <trkpt lat="48.76223" lon="6.10838">
        <ele>219.4</ele>
        <time>2019-11-01T00:57:59.216Z</time>
      </trkpt>
      <trkpt lat="48.76233" lon="6.10891">
        <ele>218.3</ele>
        <time>2019-11-01T00:58:05.324Z</time>
      </trkpt>
      <trkpt lat="48.76241" lon="6.10947">
        <ele>216.9</ele>
        <time>2019-11-01T00:58:11.746Z</time>
      </trkpt>
      <trkpt lat="48.76248" lon="6.11006">
        <ele>215.8</ele>
        <time>2019-11-01T00:58:18.400Z</time>
      </trkpt>
      <trkpt lat="48.76251" lon="6.11062">
        <ele>214.4</ele>
        <time>2019-11-01T00:58:24.634Z</time>
      </trkpt>
      <trkpt lat="48.76254" lon="6.11106">
        <ele>215.6</ele>
        <time>2019-11-01T00:58:29.472Z</time>
      </trkpt>
      <trkpt lat="48.76258" lon="6.11144">
        <ele>216.7</ele>
        <time>2019-11-01T00:58:33.810Z</time>
      </trkpt>
      <trkpt lat="48.76261" lon="6.11181">
        <ele>217</ele>
        <time>2019-11-01T00:58:37.958Z</time>
      </trkpt>
      <trkpt lat="48.76265" lon="6.11219">
        <ele>216.6</ele>
        <time>2019-11-01T00:58:42.166Z</time>
      </trkpt>
      <trkpt lat="48.7627" lon="6.11257">
        <ele>216.6</ele>
        <time>2019-11-01T00:58:46.472Z</time>
      </trkpt>
      <trkpt lat="48.76272" lon="6.11298">
        <ele>215.5</ele>
        <time>2019-11-01T00:58:51.068Z</time>
      </trkpt>
      <trkpt lat="48.76274" lon="6.11344">
        <ele>214.3</ele>
        <time>2019-11-01T00:58:56.116Z</time>
      </trkpt>
      <trkpt lat="48.76278" lon="6.11392">
        <ele>213.5</ele>
        <time>2019-11-01T00:59:01.500Z</time>
      </trkpt>
      <trkpt lat="48.76281" lon="6.11441">
        <ele>213</ele>
        <time>2019-11-01T00:59:06.966Z</time>
      </trkpt>
      <trkpt lat="48.76263" lon="6.11472">
        <ele>212.5</ele>
        <time>2019-11-01T00:59:11.525Z</time>
      </trkpt>
      <trkpt lat="48.76242" lon="6.11492">
        <ele>211.6</ele>
        <time>2019-11-01T00:59:15.664Z</time>
      </trkpt>
      <trkpt lat="48.76237" lon="6.11536">
        <ele>210.7</ele>
        <time>2019-11-01T00:59:20.592Z</time>
      </trkpt>
      <trkpt lat="48.76244" lon="6.11587">
        <ele>209.2</ele>
        <time>2019-11-01T00:59:26.396Z</time>
      </trkpt>
      <trkpt lat="48.7625" lon="6.11642">
        <ele>207.9</ele>
        <time>2019-11-01T00:59:32.536Z</time>
      </trkpt>
      <trkpt lat="48.76256" lon="6.11694">
        <ele>207.6</ele>
        <time>2019-11-01T00:59:38.378Z</time>
      </trkpt>
      <trkpt lat="48.76259" lon="6.11739">
        <ele>208.1</ele>
        <time>2019-11-01T00:59:43.438Z</time>
      </trkpt>
      <trkpt lat="48.76268" lon="6.11784">
        <ele>208.1</ele>
        <time>2019-11-01T00:59:48.680Z</time>
      </trkpt>
      <trkpt lat="48.76277" lon="6.11824">
        <ele>207.5</ele>
        <time>2019-11-01T00:59:53.320Z</time>
      </trkpt>
      <trkpt lat="48.76292" lon="6.11865">
        <ele>207.7</ele>
        <time>2019-11-01T00:59:58.435Z</time>
      </trkpt>
      <trkpt lat="48.76297" lon="6.11907">
        <ele>207.3</ele>
        <time>2019-11-01T01:00:03.247Z</time>
      </trkpt>
      <trkpt lat="48.76307" lon="6.11948">
        <ele>207.2</ele>
        <time>2019-11-01T01:00:08.043Z</time>
      </trkpt>
      <trkpt lat="48.76319" lon="6.11985">
        <ele>208.1</ele>
        <time>2019-11-01T01:00:12.647Z</time>
      </trkpt>
      <trkpt lat="48.76332" lon="6.12017">
        <ele>208.1</ele>
        <time>2019-11-01T01:00:16.768Z</time>
      </trkpt>
      <trkpt lat="48.76351" lon="6.12048">
        <ele>208.9</ele>
        <time>2019-11-01T01:00:21.566Z</time>
      </trkpt>
      <trkpt lat="48.76366" lon="6.12084">
        <ele>208.9</ele>
        <time>2019-11-01T01:00:26.289Z</time>
      </trkpt>
      <trkpt lat="48.76381" lon="6.12121">
        <ele>208.3</ele>
        <time>2019-11-01T01:00:31.077Z</time>
      </trkpt>
      <trkpt lat="48.76395" lon="6.1216">
        <ele>208.8</ele>
        <time>2019-11-01T01:00:35.996Z</time>
      </trkpt>
      <trkpt lat="48.7641" lon="6.12195">
        <ele>208.9</ele>
        <time>2019-11-01T01:00:40.634Z</time>
      </trkpt>
      <trkpt lat="48.76423" lon="6.1223">
        <ele>208.6</ele>
        <time>2019-11-01T01:00:45.028Z</time>
      </trkpt>
      <trkpt lat="48.76432" lon="6.12266">
        <ele>208.3</ele>
        <time>2019-11-01T01:00:49.309Z</time>
      </trkpt>
      <trkpt lat="48.76447" lon="6.12303">
        <ele>208</ele>
        <time>2019-11-01T01:00:54.197Z</time>
      </trkpt>
      <trkpt lat="48.76466" lon="6.12338">
        <ele>207.3</ele>
        <time>2019-11-01T01:00:59.115Z</time>
      </trkpt>
      <trkpt lat="48.76478" lon="6.12371">
        <ele>207.3</ele>
        <time>2019-11-01T01:01:03.303Z</time>
      </trkpt>
      <trkpt lat="48.76492" lon="6.12404">
        <ele>207.1</ele>
        <time>2019-11-01T01:01:07.746Z</time>
      </trkpt>
      <trkpt lat="48.76511" lon="6.12445">
        <ele>207.8</ele>
        <time>2019-11-01T01:01:13.301Z</time>
      </trkpt>
      <trkpt lat="48.76523" lon="6.12482">
        <ele>207.7</ele>
        <time>2019-11-01T01:01:17.816Z</time>
      </trkpt>
      <trkpt lat="48.76537" lon="6.1252">
        <ele>208.3</ele>
        <time>2019-11-01T01:01:22.631Z</time>
      </trkpt>
      <trkpt lat="48.76554" lon="6.12558">
        <ele>208.3</ele>
        <time>2019-11-01T01:01:27.816Z</time>
      </trkpt>
      <trkpt lat="48.76569" lon="6.12596">
        <ele>208.6</ele>
        <time>2019-11-01T01:01:32.717Z</time>
      </trkpt>
      <trkpt lat="48.76585" lon="6.1263">
        <ele>209.1</ele>
        <time>2019-11-01T01:01:37.277Z</time>
      </trkpt>
      <trkpt lat="48.76602" lon="6.12661">
        <ele>208.5</ele>
        <time>2019-11-01T01:01:41.799Z</time>
      </trkpt>
      <trkpt lat="48.76615" lon="6.12695">
        <ele>209.4</ele>
        <time>2019-11-01T01:01:46.104Z</time>
      </trkpt>
      <trkpt lat="48.76624" lon="6.12723">
        <ele>210.1</ele>
        <time>2019-11-01T01:01:49.538Z</time>
      </trkpt>
      <trkpt lat="48.7663" lon="6.12749">
        <ele>210.5</ele>
        <time>2019-11-01T01:01:52.592Z</time>
      </trkpt>
      <trkpt lat="48.7664" lon="6.12771">
        <ele>210.3</ele>
        <time>2019-11-01T01:01:55.600Z</time>
      </trkpt>
      <trkpt lat="48.76646" lon="6.1279">
        <ele>211.5</ele>
        <time>2019-11-01T01:01:57.987Z</time>
      </trkpt>
      <trkpt lat="48.76641" lon="6.12805">
        <ele>212.3</ele>
        <time>2019-11-01T01:01:59.799Z</time>
      </trkpt>
      <trkpt lat="48.76625" lon="6.12816">
        <ele>213.1</ele>
        <time>2019-11-01T01:02:02.821Z</time>
      </trkpt>
      <trkpt lat="48.76605" lon="6.12831">
        <ele>213.3</ele>
        <time>2019-11-01T01:02:06.578Z</time>
      </trkpt>
      <trkpt lat="48.7658" lon="6.12848">
        <ele>213</ele>
        <time>2019-11-01T01:02:11.091Z</time>
      </trkpt>
      <trkpt lat="48.76559" lon="6.12863">
        <ele>213.6</ele>
        <time>2019-11-01T01:02:15.136Z</time>
      </trkpt>
      <trkpt lat="48.76536" lon="6.12882">
        <ele>213.1</ele>
        <time>2019-11-01T01:02:19.425Z</time>
      </trkpt>
      <trkpt lat="48.76513" lon="6.12896">
        <ele>212.7</ele>
        <time>2019-11-01T01:02:23.602Z</time>
      </trkpt>
      <trkpt lat="48.7649" lon="6.12911">
        <ele>213.8</ele>
        <time>2019-11-01T01:02:27.814Z</time>
      </trkpt>
      <trkpt lat="48.76468" lon="6.12927">
        <ele>213.9</ele>
        <time>2019-11-01T01:02:31.993Z</time>
      </trkpt>
      <trkpt lat="48.76448" lon="6.12947">
        <ele>213.4</ele>
        <time>2019-11-01T01:02:36.088Z</time>
      </trkpt>
      <trkpt lat="48.7643" lon="6.12965">
        <ele>213.3</ele>
        <time>2019-11-01T01:02:39.702Z</time>
      </trkpt>
      <trkpt lat="48.76411" lon="6.12981">
        <ele>214.1</ele>
        <time>2019-11-01T01:02:43.277Z</time>
      </trkpt>
      <trkpt lat="48.76392" lon="6.12997">
        <ele>214.1</ele>
        <time>2019-11-01T01:02:46.936Z</time>
      </trkpt>
      <trkpt lat="48.76376" lon="6.13008">
        <ele>215.1</ele>
        <time>2019-11-01T01:02:49.934Z</time>
      </trkpt>
      <trkpt lat="48.76357" lon="6.13019">
        <ele>216.4</ele>
        <time>2019-11-01T01:02:53.347Z</time>
      </trkpt>
      <trkpt lat="48.76338" lon="6.13037">
        <ele>216.6</ele>
        <time>2019-11-01T01:02:57.135Z</time>
      </trkpt>
      <trkpt lat="48.76322" lon="6.13053">
        <ele>218</ele>
        <time>2019-11-01T01:03:00.374Z</time>
      </trkpt>
      <trkpt lat="48.76301" lon="6.1307">
        <ele>218.8</ele>
        <time>2019-11-01T01:03:04.227Z</time>
      </trkpt>
      <trkpt lat="48.7628" lon="6.13086">
        <ele>218.8</ele>
        <time>2019-11-01T01:03:08.200Z</time>
      </trkpt>
      <trkpt lat="48.76259" lon="6.13104">
        <ele>219.3</ele>
        <time>2019-11-01T01:03:12.354Z</time>
      </trkpt>
      <trkpt lat="48.76241" lon="6.13121">
        <ele>219.5</ele>
        <time>2019-11-01T01:03:15.874Z</time>
      </trkpt>
      <trkpt lat="48.7622" lon="6.13139">
        <ele>219.5</ele>
        <time>2019-11-01T01:03:19.946Z</time>
      </trkpt>
      <trkpt lat="48.762" lon="6.13164">
        <ele>218.9</ele>
        <time>2019-11-01T01:03:24.255Z</time>
      </trkpt>
      <trkpt lat="48.76185" lon="6.13173">
        <ele>219.8</ele>
        <time>2019-11-01T01:03:27.106Z</time>
      </trkpt>
      <trkpt lat="48.76184" lon="6.13174">
        <ele>218.9</ele>
        <time>2019-11-01T01:03:27.166Z</time>
      </trkpt>
      <trkpt lat="48.76185" lon="6.13176">
        <ele>218.9</ele>
        <time>2019-11-01T01:03:27.463Z</time>
      </trkpt>
      <trkpt lat="48.76187" lon="6.13183">
        <ele>218.8</ele>
        <time>2019-11-01T01:03:28.280Z</time>
      </trkpt>
      <trkpt lat="48.76178" lon="6.13197">
        <ele>218.9</ele>
        <time>2019-11-01T01:03:30.441Z</time>
      </trkpt>
      <trkpt lat="48.76175" lon="6.1322">
        <ele>219.1</ele>
        <time>2019-11-01T01:03:33.120Z</time>
      </trkpt>
      <trkpt lat="48.76173" lon="6.13255">
        <ele>217.7</ele>
        <time>2019-11-01T01:03:37.019Z</time>
      </trkpt>
      <trkpt lat="48.76175" lon="6.13299">
        <ele>216.7</ele>
        <time>2019-11-01T01:03:41.840Z</time>
      </trkpt>
      <trkpt lat="48.76182" lon="6.13344">
        <ele>215.2</ele>
        <time>2019-11-01T01:03:47.016Z</time>
      </trkpt>
      <trkpt lat="48.7618" lon="6.13392">
        <ele>213.5</ele>
        <time>2019-11-01T01:03:52.324Z</time>
      </trkpt>
      <trkpt lat="48.76172" lon="6.13447">
        <ele>211.8</ele>
        <time>2019-11-01T01:03:58.496Z</time>
      </trkpt>
      <trkpt lat="48.76153" lon="6.13491">
        <ele>210.2</ele>
        <time>2019-11-01T01:04:04.421Z</time>
      </trkpt>
      <trkpt lat="48.76139" lon="6.13538">
        <ele>209.3</ele>
        <time>2019-11-01T01:04:10.160Z</time>
      </trkpt>
      <trkpt lat="48.76143" lon="6.13586">
        <ele>209.3</ele>
        <time>2019-11-01T01:04:15.516Z</time>
      </trkpt>
      <trkpt lat="48.76152" lon="6.1363">
        <ele>208.5</ele>
        <time>2019-11-01T01:04:20.561Z</time>
      </trkpt>
      <trkpt lat="48.76164" lon="6.13667">
        <ele>208.5</ele>
        <time>2019-11-01T01:04:25.164Z</time>
      </trkpt>
      <trkpt lat="48.76179" lon="6.13704">
        <ele>207.5</ele>
        <time>2019-11-01T01:04:29.971Z</time>
      </trkpt>
      <trkpt lat="48.76176" lon="6.13731">
        <ele>208.7</ele>
        <time>2019-11-01T01:04:32.996Z</time>
      </trkpt>
      <trkpt lat="48.76164" lon="6.13762">
        <ele>209.1</ele>
        <time>2019-11-01T01:04:37.001Z</time>
      </trkpt>
      <trkpt lat="48.76148" lon="6.13798">
        <ele>209.1</ele>
        <time>2019-11-01T01:04:41.769Z</time>
      </trkpt>
      <trkpt lat="48.76133" lon="6.13829">
        <ele>209.5</ele>
        <time>2019-11-01T01:04:46.059Z</time>
      </trkpt>
      <trkpt lat="48.76119" lon="6.1386">
        <ele>209.5</ele>
        <time>2019-11-01T01:04:50.295Z</time>
      </trkpt>
      <trkpt lat="48.76111" lon="6.13893">
        <ele>208.6</ele>
        <time>2019-11-01T01:04:54.175Z</time>
      </trkpt>
      <trkpt lat="48.76114" lon="6.13927">
        <ele>208.4</ele>
        <time>2019-11-01T01:04:57.979Z</time>
      </trkpt>
      <trkpt lat="48.76128" lon="6.13957">
        <ele>208.4</ele>
        <time>2019-11-01T01:05:02.103Z</time>
      </trkpt>
      <trkpt lat="48.7615" lon="6.13985">
        <ele>208.4</ele>
        <time>2019-11-01T01:05:06.842Z</time>
      </trkpt>
      <trkpt lat="48.76171" lon="6.14012">
        <ele>209.4</ele>
        <time>2019-11-01T01:05:11.474Z</time>
      </trkpt>
      <trkpt lat="48.76185" lon="6.14034">
        <ele>210.9</ele>
        <time>2019-11-01T01:05:14.825Z</time>
      </trkpt>
      <trkpt lat="48.762" lon="6.14053">
        <ele>212.1</ele>
        <time>2019-11-01T01:05:18.185Z</time>
      </trkpt>
      <trkpt lat="48.76216" lon="6.14076">
        <ele>212.6</ele>
        <time>2019-11-01T01:05:21.975Z</time>
      </trkpt>
      <trkpt lat="48.7621" lon="6.14111">
        <ele>212.5</ele>
        <time>2019-11-01T01:05:25.985Z</time>
      </trkpt>
      <trkpt lat="48.76191" lon="6.14134">
        <ele>212.5</ele>
        <time>2019-11-01T01:05:30.026Z</time>
      </trkpt>
      <trkpt lat="48.76173" lon="6.14158">
        <ele>212.4</ele>
        <time>2019-11-01T01:05:33.989Z</time>
      </trkpt>
      <trkpt lat="48.76157" lon="6.14184">
        <ele>212.4</ele>
        <time>2019-11-01T01:05:38.021Z</time>
      </trkpt>
      <trkpt lat="48.76142" lon="6.14211">
        <ele>212.7</ele>
        <time>2019-11-01T01:05:41.907Z</time>
      </trkpt>
      <trkpt lat="48.76125" lon="6.14237">
        <ele>212.2</ele>
        <time>2019-11-01T01:05:45.944Z</time>
      </trkpt>
      <trkpt lat="48.76107" lon="6.14269">
        <ele>212.5</ele>
        <time>2019-11-01T01:05:50.658Z</time>
      </trkpt>
      <trkpt lat="48.7609" lon="6.14295">
        <ele>212.9</ele>
        <time>2019-11-01T01:05:54.688Z</time>
      </trkpt>
      <trkpt lat="48.76071" lon="6.14327">
        <ele>212.5</ele>
        <time>2019-11-01T01:05:59.450Z</time>
      </trkpt>
      <trkpt lat="48.76052" lon="6.14357">
        <ele>212.8</ele>
        <time>2019-11-01T01:06:04.059Z</time>
      </trkpt>
      <trkpt lat="48.76034" lon="6.14383">
        <ele>212.8</ele>
        <time>2019-11-01T01:06:08.351Z</time>
      </trkpt>
      <trkpt lat="48.76014" lon="6.14407">
        <ele>212.8</ele>
        <time>2019-11-01T01:06:12.527Z</time>
      </trkpt>
      <trkpt lat="48.75992" lon="6.14432">
        <ele>213.4</ele>
        <time>2019-11-01T01:06:17.245Z</time>
      </trkpt>
      <trkpt lat="48.75971" lon="6.14452">
        <ele>213.4</ele>
        <time>2019-11-01T01:06:21.415Z</time>
      </trkpt>
      <trkpt lat="48.75949" lon="6.14474">
        <ele>212.2</ele>
        <time>2019-11-01T01:06:25.728Z</time>
      </trkpt>
      <trkpt lat="48.75928" lon="6.14494">
        <ele>213.3</ele>
        <time>2019-11-01T01:06:29.979Z</time>
      </trkpt>
      <trkpt lat="48.75907" lon="6.14515">
        <ele>212.7</ele>
        <time>2019-11-01T01:06:34.230Z</time>
      </trkpt>
      <trkpt lat="48.75885" lon="6.14537">
        <ele>213.4</ele>
        <time>2019-11-01T01:06:38.624Z</time>
      </trkpt>
      <trkpt lat="48.75863" lon="6.14556">
        <ele>213.4</ele>
        <time>2019-11-01T01:06:42.878Z</time>
      </trkpt>
      <trkpt lat="48.75843" lon="6.14574">
        <ele>213.4</ele>
        <time>2019-11-01T01:06:46.859Z</time>
      </trkpt>
      <trkpt lat="48.75821" lon="6.14598">
        <ele>213.7</ele>
        <time>2019-11-01T01:06:51.391Z</time>
      </trkpt>
      <trkpt lat="48.75801" lon="6.14615">
        <ele>213.1</ele>
        <time>2019-11-01T01:06:55.161Z</time>
      </trkpt>
      <trkpt lat="48.75778" lon="6.14635">
        <ele>213.5</ele>
        <time>2019-11-01T01:06:59.757Z</time>
      </trkpt>
      <trkpt lat="48.75756" lon="6.14656">
        <ele>212.7</ele>
        <time>2019-11-01T01:07:04.016Z</time>
      </trkpt>
      <trkpt lat="48.75735" lon="6.14676">
        <ele>212.4</ele>
        <time>2019-11-01T01:07:08.235Z</time>
      </trkpt>
      <trkpt lat="48.75715" lon="6.14696">
        <ele>213.1</ele>
        <time>2019-11-01T01:07:12.191Z</time>
      </trkpt>
      <trkpt lat="48.75694" lon="6.14714">
        <ele>212.6</ele>
        <time>2019-11-01T01:07:16.327Z</time>
      </trkpt>
      <trkpt lat="48.75673" lon="6.14734">
        <ele>213.3</ele>
        <time>2019-11-01T01:07:20.404Z</time>
      </trkpt>
      <trkpt lat="48.75653" lon="6.14754">
        <ele>213.2</ele>
        <time>2019-11-01T01:07:24.574Z</time>
      </trkpt>
      <trkpt lat="48.75632" lon="6.14774">
        <ele>213.2</ele>
        <time>2019-11-01T01:07:28.638Z</time>
      </trkpt>
      <trkpt lat="48.7561" lon="6.14792">
        <ele>212.7</ele>
        <time>2019-11-01T01:07:32.782Z</time>
      </trkpt>
      <trkpt lat="48.75588" lon="6.14812">
        <ele>212.4</ele>
        <time>2019-11-01T01:07:37.251Z</time>
      </trkpt>
      <trkpt lat="48.75565" lon="6.14832">
        <ele>212.4</ele>
        <time>2019-11-01T01:07:41.594Z</time>
      </trkpt>
      <trkpt lat="48.75543" lon="6.14855">
        <ele>212.9</ele>
        <time>2019-11-01T01:07:46.115Z</time>
      </trkpt>
      <trkpt lat="48.75524" lon="6.14875">
        <ele>213</ele>
        <time>2019-11-01T01:07:50.049Z</time>
      </trkpt>
      <trkpt lat="48.75503" lon="6.14898">
        <ele>212.6</ele>
        <time>2019-11-01T01:07:54.435Z</time>
      </trkpt>
      <trkpt lat="48.75481" lon="6.14921">
        <ele>213.2</ele>
        <time>2019-11-01T01:07:58.930Z</time>
      </trkpt>
      <trkpt lat="48.7546" lon="6.1494">
        <ele>212.9</ele>
        <time>2019-11-01T01:08:02.937Z</time>
      </trkpt>
      <trkpt lat="48.75438" lon="6.14963">
        <ele>213.4</ele>
        <time>2019-11-01T01:08:07.538Z</time>
      </trkpt>
      <trkpt lat="48.75414" lon="6.14982">
        <ele>212.3</ele>
        <time>2019-11-01T01:08:12.033Z</time>
      </trkpt>
      <trkpt lat="48.75394" lon="6.15002">
        <ele>212.7</ele>
        <time>2019-11-01T01:08:16.050Z</time>
      </trkpt>
      <trkpt lat="48.75372" lon="6.15023">
        <ele>211.6</ele>
        <time>2019-11-01T01:08:20.390Z</time>
      </trkpt>
      <trkpt lat="48.75351" lon="6.15042">
        <ele>213</ele>
        <time>2019-11-01T01:08:24.532Z</time>
      </trkpt>
      <trkpt lat="48.75329" lon="6.15059">
        <ele>212.2</ele>
        <time>2019-11-01T01:08:28.631Z</time>
      </trkpt>
      <trkpt lat="48.7531" lon="6.15077">
        <ele>213.3</ele>
        <time>2019-11-01T01:08:32.413Z</time>
      </trkpt>
      <trkpt lat="48.75288" lon="6.15097">
        <ele>212.2</ele>
        <time>2019-11-01T01:08:36.725Z</time>
      </trkpt>
      <trkpt lat="48.75265" lon="6.15119">
        <ele>212.5</ele>
        <time>2019-11-01T01:08:41.373Z</time>
      </trkpt>
      <trkpt lat="48.75243" lon="6.15139">
        <ele>212.8</ele>
        <time>2019-11-01T01:08:45.681Z</time>
      </trkpt>
      <trkpt lat="48.75224" lon="6.15156">
        <ele>212.8</ele>
        <time>2019-11-01T01:08:49.382Z</time>
      </trkpt>
      <trkpt lat="48.75203" lon="6.15176">
        <ele>213.6</ele>
        <time>2019-11-01T01:08:53.556Z</time>
      </trkpt>
      <trkpt lat="48.75182" lon="6.15195">
        <ele>213.6</ele>
        <time>2019-11-01T01:08:57.594Z</time>
      </trkpt>
      <trkpt lat="48.7516" lon="6.15218">
        <ele>212.2</ele>
        <time>2019-11-01T01:09:02.063Z</time>
      </trkpt>
      <trkpt lat="48.75137" lon="6.15233">
        <ele>212.1</ele>
        <time>2019-11-01T01:09:06.373Z</time>
      </trkpt>
      <trkpt lat="48.7511" lon="6.1524">
        <ele>213.4</ele>
        <time>2019-11-01T01:09:11.013Z</time>
      </trkpt>
      <trkpt lat="48.75085" lon="6.15245">
        <ele>212.6</ele>
        <time>2019-11-01T01:09:15.281Z</time>
      </trkpt>
      <trkpt lat="48.75061" lon="6.15249">
        <ele>212.6</ele>
        <time>2019-11-01T01:09:19.190Z</time>
      </trkpt>
      <trkpt lat="48.75039" lon="6.15253">
        <ele>212.6</ele>
        <time>2019-11-01T01:09:22.954Z</time>
      </trkpt>
      <trkpt lat="48.75019" lon="6.15262">
        <ele>212.6</ele>
        <time>2019-11-01T01:09:26.489Z</time>
      </trkpt>
      <trkpt lat="48.74996" lon="6.15269">
        <ele>213.2</ele>
        <time>2019-11-01T01:09:30.415Z</time>
      </trkpt>
      <trkpt lat="48.74974" lon="6.15274">
        <ele>212.4</ele>
        <time>2019-11-01T01:09:34.258Z</time>
      </trkpt>
      <trkpt lat="48.74952" lon="6.15282">
        <ele>212.9</ele>
        <time>2019-11-01T01:09:37.949Z</time>
      </trkpt>
      <trkpt lat="48.74929" lon="6.15288">
        <ele>212.6</ele>
        <time>2019-11-01T01:09:41.957Z</time>
      </trkpt>
      <trkpt lat="48.74903" lon="6.15293">
        <ele>212.6</ele>
        <time>2019-11-01T01:09:46.393Z</time>
      </trkpt>
      <trkpt lat="48.7488" lon="6.15298">
        <ele>212.3</ele>
        <time>2019-11-01T01:09:50.198Z</time>
      </trkpt>
      <trkpt lat="48.74859" lon="6.15306">
        <ele>212.2</ele>
        <time>2019-11-01T01:09:53.970Z</time>
      </trkpt>
      <trkpt lat="48.74835" lon="6.15303">
        <ele>211.3</ele>
        <time>2019-11-01T01:09:57.922Z</time>
      </trkpt>
      <trkpt lat="48.74812" lon="6.15303">
        <ele>211.2</ele>
        <time>2019-11-01T01:10:01.740Z</time>
      </trkpt>
      <trkpt lat="48.74793" lon="6.15324">
        <ele>211.6</ele>
        <time>2019-11-01T01:10:05.743Z</time>
      </trkpt>
      <trkpt lat="48.74773" lon="6.1535">
        <ele>211.9</ele>
        <time>2019-11-01T01:10:10.268Z</time>
      </trkpt>
      <trkpt lat="48.74753" lon="6.15378">
        <ele>211.9</ele>
        <time>2019-11-01T01:10:14.769Z</time>
      </trkpt>
      <trkpt lat="48.74732" lon="6.15402">
        <ele>211.3</ele>
        <time>2019-11-01T01:10:19.186Z</time>
      </trkpt>
      <trkpt lat="48.74711" lon="6.15424">
        <ele>211.2</ele>
        <time>2019-11-01T01:10:23.516Z</time>
      </trkpt>
      <trkpt lat="48.7469" lon="6.15447">
        <ele>211.2</ele>
        <time>2019-11-01T01:10:27.852Z</time>
      </trkpt>
      <trkpt lat="48.74668" lon="6.15473">
        <ele>211.4</ele>
        <time>2019-11-01T01:10:32.476Z</time>
      </trkpt>
      <trkpt lat="48.74652" lon="6.15497">
        <ele>210.8</ele>
        <time>2019-11-01T01:10:36.317Z</time>
      </trkpt>
      <trkpt lat="48.74632" lon="6.15523">
        <ele>210.3</ele>
        <time>2019-11-01T01:10:40.795Z</time>
      </trkpt>
      <trkpt lat="48.74613" lon="6.1555">
        <ele>210.2</ele>
        <time>2019-11-01T01:10:45.187Z</time>
      </trkpt>
      <trkpt lat="48.74592" lon="6.15584">
        <ele>211.4</ele>
        <time>2019-11-01T01:10:50.241Z</time>
      </trkpt>
      <trkpt lat="48.74571" lon="6.15616">
        <ele>211.4</ele>
        <time>2019-11-01T01:10:55.308Z</time>
      </trkpt>
      <trkpt lat="48.74552" lon="6.1564">
        <ele>211.2</ele>
        <time>2019-11-01T01:10:59.367Z</time>
      </trkpt>
      <trkpt lat="48.74536" lon="6.15668">
        <ele>211.2</ele>
        <time>2019-11-01T01:11:03.571Z</time>
      </trkpt>
      <trkpt lat="48.74519" lon="6.15694">
        <ele>211.5</ele>
        <time>2019-11-01T01:11:07.522Z</time>
      </trkpt>
      <trkpt lat="48.74501" lon="6.15719">
        <ele>211.1</ele>
        <time>2019-11-01T01:11:11.665Z</time>
      </trkpt>
      <trkpt lat="48.74484" lon="6.15751">
        <ele>211.1</ele>
        <time>2019-11-01T01:11:16.342Z</time>
      </trkpt>
      <trkpt lat="48.74472" lon="6.15784">
        <ele>211.3</ele>
        <time>2019-11-01T01:11:20.395Z</time>
      </trkpt>
      <trkpt lat="48.74461" lon="6.15817">
        <ele>211.1</ele>
        <time>2019-11-01T01:11:24.551Z</time>
      </trkpt>
      <trkpt lat="48.74449" lon="6.15854">
        <ele>210.8</ele>
        <time>2019-11-01T01:11:29.161Z</time>
      </trkpt>
      <trkpt lat="48.74437" lon="6.15892">
        <ele>210.3</ele>
        <time>2019-11-01T01:11:33.849Z</time>
      </trkpt>
      <trkpt lat="48.74426" lon="6.15934">
        <ele>210.3</ele>
        <time>2019-11-01T01:11:38.777Z</time>
      </trkpt>
      <trkpt lat="48.74417" lon="6.15975">
        <ele>210.9</ele>
        <time>2019-11-01T01:11:43.628Z</time>
      </trkpt>
      <trkpt lat="48.74409" lon="6.16012">
        <ele>210.9</ele>
        <time>2019-11-01T01:11:47.952Z</time>
      </trkpt>
      <trkpt lat="48.744" lon="6.16044">
        <ele>210.9</ele>
        <time>2019-11-01T01:11:51.756Z</time>
      </trkpt>
      <trkpt lat="48.74394" lon="6.16077">
        <ele>211.7</ele>
        <time>2019-11-01T01:11:55.523Z</time>
      </trkpt>
      <trkpt lat="48.7439" lon="6.16104">
        <ele>211.4</ele>
        <time>2019-11-01T01:11:58.578Z</time>
      </trkpt>
      <trkpt lat="48.74384" lon="6.16136">
        <ele>211.3</ele>
        <time>2019-11-01T01:12:02.328Z</time>
      </trkpt>
      <trkpt lat="48.74377" lon="6.16172">
        <ele>210.7</ele>
        <time>2019-11-01T01:12:06.532Z</time>
      </trkpt>
      <trkpt lat="48.74369" lon="6.16207">
        <ele>210.7</ele>
        <time>2019-11-01T01:12:10.556Z</time>
      </trkpt>
      <trkpt lat="48.74361" lon="6.16243">
        <ele>210.7</ele>
        <time>2019-11-01T01:12:14.785Z</time>
      </trkpt>
      <trkpt lat="48.74356" lon="6.1628">
        <ele>210</ele>
        <time>2019-11-01T01:12:18.996Z</time>
      </trkpt>
      <trkpt lat="48.74358" lon="6.16318">
        <ele>210.1</ele>
        <time>2019-11-01T01:12:23.186Z</time>
      </trkpt>
      <trkpt lat="48.74365" lon="6.16352">
        <ele>210.3</ele>
        <time>2019-11-01T01:12:27.170Z</time>
      </trkpt>
      <trkpt lat="48.74369" lon="6.16389">
        <ele>209.8</ele>
        <time>2019-11-01T01:12:31.294Z</time>
      </trkpt>
      <trkpt lat="48.74376" lon="6.16424">
        <ele>210</ele>
        <time>2019-11-01T01:12:35.366Z</time>
      </trkpt>
      <trkpt lat="48.74384" lon="6.1646">
        <ele>209.7</ele>
        <time>2019-11-01T01:12:39.585Z</time>
      </trkpt>
      <trkpt lat="48.7439" lon="6.16493">
        <ele>210.3</ele>
        <time>2019-11-01T01:12:43.371Z</time>
      </trkpt>
      <trkpt lat="48.744" lon="6.16527">
        <ele>209.6</ele>
        <time>2019-11-01T01:12:47.559Z</time>
      </trkpt>
      <trkpt lat="48.74408" lon="6.16565">
        <ele>210</ele>
        <time>2019-11-01T01:12:51.878Z</time>
      </trkpt>
      <trkpt lat="48.74414" lon="6.16601">
        <ele>210.1</ele>
        <time>2019-11-01T01:12:56.050Z</time>
      </trkpt>
      <trkpt lat="48.74409" lon="6.16635">
        <ele>210.5</ele>
        <time>2019-11-01T01:12:59.932Z</time>
      </trkpt>
      <trkpt lat="48.74391" lon="6.1666">
        <ele>210.5</ele>
        <time>2019-11-01T01:13:04.107Z</time>
      </trkpt>
      <trkpt lat="48.74366" lon="6.16681">
        <ele>211.1</ele>
        <time>2019-11-01T01:13:08.857Z</time>
      </trkpt>
      <trkpt lat="48.74343" lon="6.16703">
        <ele>210.7</ele>
        <time>2019-11-01T01:13:13.425Z</time>
      </trkpt>
      <trkpt lat="48.74321" lon="6.16724">
        <ele>210.6</ele>
        <time>2019-11-01T01:13:17.739Z</time>
      </trkpt>
      <trkpt lat="48.743" lon="6.16736">
        <ele>210.6</ele>
        <time>2019-11-01T01:13:21.596Z</time>
      </trkpt>
      <trkpt lat="48.74277" lon="6.16753">
        <ele>210.5</ele>
        <time>2019-11-01T01:13:25.840Z</time>
      </trkpt>
      <trkpt lat="48.74254" lon="6.16764">
        <ele>210.5</ele>
        <time>2019-11-01T01:13:30.029Z</time>
      </trkpt>
      <trkpt lat="48.7423" lon="6.16772">
        <ele>210.3</ele>
        <time>2019-11-01T01:13:34.106Z</time>
      </trkpt>
      <trkpt lat="48.74206" lon="6.16776">
        <ele>210.9</ele>
        <time>2019-11-01T01:13:38.217Z</time>
      </trkpt>
      <trkpt lat="48.74183" lon="6.1678">
        <ele>211.7</ele>
        <time>2019-11-01T01:13:42.047Z</time>
      </trkpt>
      <trkpt lat="48.74159" lon="6.16784">
        <ele>212</ele>
        <time>2019-11-01T01:13:46.067Z</time>
      </trkpt>
      <trkpt lat="48.74132" lon="6.16786">
        <ele>211.5</ele>
        <time>2019-11-01T01:13:50.649Z</time>
      </trkpt>
      <trkpt lat="48.74102" lon="6.16791">
        <ele>210.6</ele>
        <time>2019-11-01T01:13:55.750Z</time>
      </trkpt>
      <trkpt lat="48.74075" lon="6.16796">
        <ele>210.3</ele>
        <time>2019-11-01T01:14:00.258Z</time>
      </trkpt>
      <trkpt lat="48.74049" lon="6.16798">
        <ele>210.1</ele>
        <time>2019-11-01T01:14:04.717Z</time>
      </trkpt>
      <trkpt lat="48.74024" lon="6.16804">
        <ele>210.1</ele>
        <time>2019-11-01T01:14:08.965Z</time>
      </trkpt>
      <trkpt lat="48.74" lon="6.16807">
        <ele>210.1</ele>
        <time>2019-11-01T01:14:12.915Z</time>
      </trkpt>
      <trkpt lat="48.73978" lon="6.16809">
        <ele>211.2</ele>
        <time>2019-11-01T01:14:16.705Z</time>
      </trkpt>
      <trkpt lat="48.73959" lon="6.16811">
        <ele>212</ele>
        <time>2019-11-01T01:14:19.924Z</time>
      </trkpt>
      <trkpt lat="48.73942" lon="6.16817">
        <ele>213</ele>
        <time>2019-11-01T01:14:22.841Z</time>
      </trkpt>
      <trkpt lat="48.73925" lon="6.16815">
        <ele>213.9</ele>
        <time>2019-11-01T01:14:25.739Z</time>
      </trkpt>
      <trkpt lat="48.73906" lon="6.16817">
        <ele>214.3</ele>
        <time>2019-11-01T01:14:28.960Z</time>
      </trkpt>
      <trkpt lat="48.73886" lon="6.16822">
        <ele>214.3</ele>
        <time>2019-11-01T01:14:32.233Z</time>
      </trkpt>
      <trkpt lat="48.73864" lon="6.16826">
        <ele>214.3</ele>
        <time>2019-11-01T01:14:35.957Z</time>
      </trkpt>
      <trkpt lat="48.73839" lon="6.1683">
        <ele>214.9</ele>
        <time>2019-11-01T01:14:40.233Z</time>
      </trkpt>
      <trkpt lat="48.73816" lon="6.16831">
        <ele>215.4</ele>
        <time>2019-11-01T01:14:44.056Z</time>
      </trkpt>
      <trkpt lat="48.73794" lon="6.16833">
        <ele>215.5</ele>
        <time>2019-11-01T01:14:47.842Z</time>
      </trkpt>
      <trkpt lat="48.73771" lon="6.16835">
        <ele>215.5</ele>
        <time>2019-11-01T01:14:51.722Z</time>
      </trkpt>
      <trkpt lat="48.7375" lon="6.16839">
        <ele>214.8</ele>
        <time>2019-11-01T01:14:55.241Z</time>
      </trkpt>
      <trkpt lat="48.7373" lon="6.16844">
        <ele>215</ele>
        <time>2019-11-01T01:14:58.617Z</time>
      </trkpt>
      <trkpt lat="48.73713" lon="6.1685">
        <ele>215.1</ele>
        <time>2019-11-01T01:15:01.552Z</time>
      </trkpt>
      <trkpt lat="48.73698" lon="6.16852">
        <ele>214.4</ele>
        <time>2019-11-01T01:15:04.233Z</time>
      </trkpt>
      <trkpt lat="48.73684" lon="6.16855">
        <ele>213.8</ele>
        <time>2019-11-01T01:15:06.557Z</time>
      </trkpt>
      <trkpt lat="48.73679" lon="6.16856">
        <ele>213.2</ele>
        <time>2019-11-01T01:15:07.423Z</time>
      </trkpt>
      <trkpt lat="48.73679" lon="6.16856">
        <ele>213</ele>
        <time>2019-11-01T01:15:07.445Z</time>
      </trkpt>
      <trkpt lat="48.73665" lon="6.16864">
        <ele>213</ele>
        <time>2019-11-01T01:15:09.899Z</time>
      </trkpt>
      <trkpt lat="48.73647" lon="6.16859">
        <ele>213</ele>
        <time>2019-11-01T01:15:12.950Z</time>
      </trkpt>
      <trkpt lat="48.73625" lon="6.16853">
        <ele>212.1</ele>
        <time>2019-11-01T01:15:16.859Z</time>
      </trkpt>
      <trkpt lat="48.736" lon="6.16848">
        <ele>212.1</ele>
        <time>2019-11-01T01:15:21.028Z</time>
      </trkpt>
      <trkpt lat="48.7357" lon="6.16847">
        <ele>212.3</ele>
        <time>2019-11-01T01:15:26.109Z</time>
      </trkpt>
      <trkpt lat="48.7355" lon="6.16854">
        <ele>212.5</ele>
        <time>2019-11-01T01:15:29.578Z</time>
      </trkpt>
      <trkpt lat="48.73528" lon="6.16871">
        <ele>213.8</ele>
        <time>2019-11-01T01:15:33.721Z</time>
      </trkpt>
      <trkpt lat="48.73506" lon="6.16878">
        <ele>214.9</ele>
        <time>2019-11-01T01:15:37.455Z</time>
      </trkpt>
      <trkpt lat="48.73486" lon="6.16893">
        <ele>216</ele>
        <time>2019-11-01T01:15:41.264Z</time>
      </trkpt>
      <trkpt lat="48.7347" lon="6.16908">
        <ele>217.3</ele>
        <time>2019-11-01T01:15:44.402Z</time>
      </trkpt>
      <trkpt lat="48.73456" lon="6.1693">
        <ele>218.1</ele>
        <time>2019-11-01T01:15:47.731Z</time>
      </trkpt>
      <trkpt lat="48.73444" lon="6.16934">
        <ele>219</ele>
        <time>2019-11-01T01:15:49.899Z</time>
      </trkpt>
      <trkpt lat="48.73434" lon="6.16915">
        <ele>219.6</ele>
        <time>2019-11-01T01:15:52.552Z</time>
      </trkpt>
      <trkpt lat="48.7344" lon="6.16887">
        <ele>219.6</ele>
        <time>2019-11-01T01:15:55.776Z</time>
      </trkpt>
      <trkpt lat="48.73454" lon="6.16855">
        <ele>218</ele>
        <time>2019-11-01T01:15:59.944Z</time>
      </trkpt>
      <trkpt lat="48.73454" lon="6.16821">
        <ele>217.1</ele>
        <time>2019-11-01T01:16:03.705Z</time>
      </trkpt>
      <trkpt lat="48.73438" lon="6.16834">
        <ele>216.3</ele>
        <time>2019-11-01T01:16:06.637Z</time>
      </trkpt>
      <trkpt lat="48.73429" lon="6.16862">
        <ele>215.9</ele>
        <time>2019-11-01T01:16:10.154Z</time>
      </trkpt>
      <trkpt lat="48.73406" lon="6.16885">
        <ele>215.7</ele>
        <time>2019-11-01T01:16:14.686Z</time>
      </trkpt>
      <trkpt lat="48.73383" lon="6.16897">
        <ele>216.5</ele>
        <time>2019-11-01T01:16:18.853Z</time>
      </trkpt>
      <trkpt lat="48.73361" lon="6.169">
        <ele>215.4</ele>
        <time>2019-11-01T01:16:22.535Z</time>
      </trkpt>
      <trkpt lat="48.73335" lon="6.16909">
        <ele>215.1</ele>
        <time>2019-11-01T01:16:27.044Z</time>
      </trkpt>
      <trkpt lat="48.73314" lon="6.16912">
        <ele>214.8</ele>
        <time>2019-11-01T01:16:30.552Z</time>
      </trkpt>
      <trkpt lat="48.73302" lon="6.16917">
        <ele>214.8</ele>
        <time>2019-11-01T01:16:32.677Z</time>
      </trkpt>
      <trkpt lat="48.73292" lon="6.16919">
        <ele>213.8</ele>
        <time>2019-11-01T01:16:34.392Z</time>
      </trkpt>
      <trkpt lat="48.73282" lon="6.16916">
        <ele>213.8</ele>
        <time>2019-11-01T01:16:36.125Z</time>
      </trkpt>
      <trkpt lat="48.73263" lon="6.16918">
        <ele>214.2</ele>
        <time>2019-11-01T01:16:39.345Z</time>
      </trkpt>
      <trkpt lat="48.73237" lon="6.16912">
        <ele>213.1</ele>
        <time>2019-11-01T01:16:43.702Z</time>
      </trkpt>
      <trkpt lat="48.73207" lon="6.16907">
        <ele>213.9</ele>
        <time>2019-11-01T01:16:48.764Z</time>
      </trkpt>
      <trkpt lat="48.73176" lon="6.169">
        <ele>214.6</ele>
        <time>2019-11-01T01:16:54.109Z</time>
      </trkpt>
      <trkpt lat="48.73149" lon="6.16897">
        <ele>213.9</ele>
        <time>2019-11-01T01:16:58.646Z</time>
      </trkpt>
      <trkpt lat="48.73123" lon="6.16905">
        <ele>213.6</ele>
        <time>2019-11-01T01:17:03.141Z</time>
      </trkpt>
      <trkpt lat="48.73099" lon="6.16916">
        <ele>214</ele>
        <time>2019-11-01T01:17:07.313Z</time>
      </trkpt>
      <trkpt lat="48.73077" lon="6.16927">
        <ele>213.8</ele>
        <time>2019-11-01T01:17:11.254Z</time>
      </trkpt>
      <trkpt lat="48.73053" lon="6.16941">
        <ele>214.3</ele>
        <time>2019-11-01T01:17:15.630Z</time>
      </trkpt>
      <trkpt lat="48.73033" lon="6.16956">
        <ele>214.4</ele>
        <time>2019-11-01T01:17:19.418Z</time>
      </trkpt>
      <trkpt lat="48.7301" lon="6.16972">
        <ele>214.4</ele>
        <time>2019-11-01T01:17:23.619Z</time>
      </trkpt>
      <trkpt lat="48.72986" lon="6.16985">
        <ele>215.2</ele>
        <time>2019-11-01T01:17:27.868Z</time>
      </trkpt>
      <trkpt lat="48.72966" lon="6.17001">
        <ele>214.7</ele>
        <time>2019-11-01T01:17:31.632Z</time>
      </trkpt>
      <trkpt lat="48.72945" lon="6.17015">
        <ele>215.4</ele>
        <time>2019-11-01T01:17:35.526Z</time>
      </trkpt>
      <trkpt lat="48.72925" lon="6.17029">
        <ele>215.5</ele>
        <time>2019-11-01T01:17:39.205Z</time>
      </trkpt>
      <trkpt lat="48.72901" lon="6.17043">
        <ele>214.9</ele>
        <time>2019-11-01T01:17:43.569Z</time>
      </trkpt>
      <trkpt lat="48.72878" lon="6.17059">
        <ele>216.3</ele>
        <time>2019-11-01T01:17:47.815Z</time>
      </trkpt>
      <trkpt lat="48.7286" lon="6.17073">
        <ele>217.2</ele>
        <time>2019-11-01T01:17:51.303Z</time>
      </trkpt>
      <trkpt lat="48.72842" lon="6.17084">
        <ele>217.5</ele>
        <time>2019-11-01T01:17:54.544Z</time>
      </trkpt>
      <trkpt lat="48.72824" lon="6.17099">
        <ele>218.1</ele>
        <time>2019-11-01T01:17:57.958Z</time>
      </trkpt>
      <trkpt lat="48.72806" lon="6.17111">
        <ele>219.1</ele>
        <time>2019-11-01T01:18:01.329Z</time>
      </trkpt>
      <trkpt lat="48.72786" lon="6.17123">
        <ele>220</ele>
        <time>2019-11-01T01:18:04.860Z</time>
      </trkpt>
      <trkpt lat="48.72765" lon="6.17133">
        <ele>220.6</ele>
        <time>2019-11-01T01:18:08.576Z</time>
      </trkpt>
      <trkpt lat="48.72744" lon="6.17141">
        <ele>221.3</ele>
        <time>2019-11-01T01:18:12.240Z</time>
      </trkpt>
      <trkpt lat="48.72723" lon="6.17145">
        <ele>221.4</ele>
        <time>2019-11-01T01:18:15.791Z</time>
      </trkpt>
      <trkpt lat="48.72703" lon="6.1715">
        <ele>222.4</ele>
        <time>2019-11-01T01:18:19.165Z</time>
      </trkpt>
      <trkpt lat="48.72682" lon="6.17153">
        <ele>223.6</ele>
        <time>2019-11-01T01:18:22.734Z</time>
      </trkpt>
      <trkpt lat="48.72664" lon="6.17156">
        <ele>223.9</ele>
        <time>2019-11-01T01:18:25.831Z</time>
      </trkpt>
      <trkpt lat="48.72644" lon="6.1716">
        <ele>224.7</ele>
        <time>2019-11-01T01:18:29.135Z</time>
      </trkpt>
      <trkpt lat="48.72623" lon="6.17166">
        <ele>225.9</ele>
        <time>2019-11-01T01:18:32.816Z</time>
      </trkpt>
      <trkpt lat="48.72601" lon="6.17168">
        <ele>226.2</ele>
        <time>2019-11-01T01:18:36.385Z</time>
      </trkpt>
      <trkpt lat="48.72581" lon="6.17162">
        <ele>226.2</ele>
        <time>2019-11-01T01:18:39.863Z</time>
      </trkpt>
      <trkpt lat="48.72564" lon="6.17159">
        <ele>226.7</ele>
        <time>2019-11-01T01:18:42.779Z</time>
      </trkpt>
      <trkpt lat="48.72547" lon="6.17154">
        <ele>227.2</ele>
        <time>2019-11-01T01:18:45.603Z</time>
      </trkpt>
      <trkpt lat="48.72525" lon="6.17153">
        <ele>227.8</ele>
        <time>2019-11-01T01:18:49.291Z</time>
      </trkpt>
      <trkpt lat="48.72504" lon="6.17157">
        <ele>228.3</ele>
        <time>2019-11-01T01:18:52.936Z</time>
      </trkpt>
      <trkpt lat="48.72483" lon="6.17153">
        <ele>228.3</ele>
        <time>2019-11-01T01:18:56.517Z</time>
      </trkpt>
      <trkpt lat="48.72465" lon="6.17155">
        <ele>229.4</ele>
        <time>2019-11-01T01:18:59.611Z</time>
      </trkpt>
      <trkpt lat="48.72438" lon="6.17161">
        <ele>229.4</ele>
        <time>2019-11-01T01:19:04.133Z</time>
      </trkpt>
      <trkpt lat="48.72416" lon="6.17167">
        <ele>229.4</ele>
        <time>2019-11-01T01:19:07.911Z</time>
      </trkpt>
      <trkpt lat="48.72393" lon="6.17176">
        <ele>230.4</ele>
        <time>2019-11-01T01:19:11.789Z</time>
      </trkpt>
      <trkpt lat="48.72372" lon="6.17184">
        <ele>230</ele>
        <time>2019-11-01T01:19:15.551Z</time>
      </trkpt>
      <trkpt lat="48.7235" lon="6.17194">
        <ele>230</ele>
        <time>2019-11-01T01:19:19.346Z</time>
      </trkpt>
      <trkpt lat="48.72325" lon="6.17203">
        <ele>229.3</ele>
        <time>2019-11-01T01:19:23.686Z</time>
      </trkpt>
      <trkpt lat="48.72299" lon="6.1721">
        <ele>229</ele>
        <time>2019-11-01T01:19:28.084Z</time>
      </trkpt>
      <trkpt lat="48.72273" lon="6.17213">
        <ele>228.3</ele>
        <time>2019-11-01T01:19:32.490Z</time>
      </trkpt>
      <trkpt lat="48.72248" lon="6.17214">
        <ele>227.7</ele>
        <time>2019-11-01T01:19:36.779Z</time>
      </trkpt>
      <trkpt lat="48.72221" lon="6.17218">
        <ele>227.7</ele>
        <time>2019-11-01T01:19:41.340Z</time>
      </trkpt>
      <trkpt lat="48.72196" lon="6.17217">
        <ele>227.7</ele>
        <time>2019-11-01T01:19:45.429Z</time>
      </trkpt>
      <trkpt lat="48.72175" lon="6.17211">
        <ele>228</ele>
        <time>2019-11-01T01:19:49.075Z</time>
      </trkpt>
      <trkpt lat="48.72152" lon="6.17204">
        <ele>227.3</ele>
        <time>2019-11-01T01:19:52.963Z</time>
      </trkpt>
      <trkpt lat="48.7213" lon="6.17196">
        <ele>227.3</ele>
        <time>2019-11-01T01:19:56.766Z</time>
      </trkpt>
      <trkpt lat="48.7211" lon="6.17187">
        <ele>227.8</ele>
        <time>2019-11-01T01:20:00.410Z</time>
      </trkpt>
      <trkpt lat="48.7209" lon="6.17174">
        <ele>227.2</ele>
        <time>2019-11-01T01:20:03.971Z</time>
      </trkpt>
      <trkpt lat="48.7207" lon="6.17168">
        <ele>227.1</ele>
        <time>2019-11-01T01:20:07.463Z</time>
      </trkpt>
      <trkpt lat="48.72051" lon="6.17162">
        <ele>227.9</ele>
        <time>2019-11-01T01:20:10.704Z</time>
      </trkpt>
      <trkpt lat="48.72033" lon="6.17156">
        <ele>228</ele>
        <time>2019-11-01T01:20:13.766Z</time>
      </trkpt>
      <trkpt lat="48.72016" lon="6.17146">
        <ele>228.8</ele>
        <time>2019-11-01T01:20:16.817Z</time>
      </trkpt>
      <trkpt lat="48.72" lon="6.17143">
        <ele>229.7</ele>
        <time>2019-11-01T01:20:19.550Z</time>
      </trkpt>
      <trkpt lat="48.71987" lon="6.17136">
        <ele>229.8</ele>
        <time>2019-11-01T01:20:21.844Z</time>
      </trkpt>
      <trkpt lat="48.71971" lon="6.17132">
        <ele>231.1</ele>
        <time>2019-11-01T01:20:24.553Z</time>
      </trkpt>
      <trkpt lat="48.71959" lon="6.17123">
        <ele>231.3</ele>
        <time>2019-11-01T01:20:26.906Z</time>
      </trkpt>
      <trkpt lat="48.71941" lon="6.17116">
        <ele>232.1</ele>
        <time>2019-11-01T01:20:29.918Z</time>
      </trkpt>
      <trkpt lat="48.71923" lon="6.17109">
        <ele>232.1</ele>
        <time>2019-11-01T01:20:33.036Z</time>
      </trkpt>
      <trkpt lat="48.71904" lon="6.17102">
        <ele>232.2</ele>
        <time>2019-11-01T01:20:36.423Z</time>
      </trkpt>
      <trkpt lat="48.71883" lon="6.17094">
        <ele>231.9</ele>
        <time>2019-11-01T01:20:39.983Z</time>
      </trkpt>
      <trkpt lat="48.71859" lon="6.17088">
        <ele>232.1</ele>
        <time>2019-11-01T01:20:44.128Z</time>
      </trkpt>
      <trkpt lat="48.71838" lon="6.1707">
        <ele>231.3</ele>
        <time>2019-11-01T01:20:48.105Z</time>
      </trkpt>
      <trkpt lat="48.71814" lon="6.17047">
        <ele>230.5</ele>
        <time>2019-11-01T01:20:52.927Z</time>
      </trkpt>
      <trkpt lat="48.71789" lon="6.17025">
        <ele>229</ele>
        <time>2019-11-01T01:20:57.777Z</time>
      </trkpt>
      <trkpt lat="48.71764" lon="6.17004">
        <ele>228.1</ele>
        <time>2019-11-01T01:21:02.717Z</time>
      </trkpt>
      <trkpt lat="48.71741" lon="6.16977">
        <ele>226.5</ele>
        <time>2019-11-01T01:21:07.597Z</time>
      </trkpt>
      <trkpt lat="48.71712" lon="6.16952">
        <ele>224.7</ele>
        <time>2019-11-01T01:21:13.230Z</time>
      </trkpt>
      <trkpt lat="48.71682" lon="6.16932">
        <ele>223.3</ele>
        <time>2019-11-01T01:21:18.733Z</time>
      </trkpt>
      <trkpt lat="48.71656" lon="6.16915">
        <ele>222.1</ele>
        <time>2019-11-01T01:21:23.471Z</time>
      </trkpt>
      <trkpt lat="48.71629" lon="6.16902">
        <ele>222.1</ele>
        <time>2019-11-01T01:21:28.197Z</time>
      </trkpt>
      <trkpt lat="48.716" lon="6.16884">
        <ele>222.1</ele>
        <time>2019-11-01T01:21:33.370Z</time>
      </trkpt>
      <trkpt lat="48.71575" lon="6.1687">
        <ele>222</ele>
        <time>2019-11-01T01:21:37.861Z</time>
      </trkpt>
      <trkpt lat="48.71551" lon="6.16858">
        <ele>222.8</ele>
        <time>2019-11-01T01:21:42.110Z</time>
      </trkpt>
      <trkpt lat="48.71525" lon="6.16851">
        <ele>222.8</ele>
        <time>2019-11-01T01:21:46.645Z</time>
      </trkpt>
      <trkpt lat="48.71497" lon="6.1685">
        <ele>223.5</ele>
        <time>2019-11-01T01:21:51.255Z</time>
      </trkpt>
      <trkpt lat="48.71475" lon="6.16845">
        <ele>223.1</ele>
        <time>2019-11-01T01:21:55.129Z</time>
      </trkpt>
      <trkpt lat="48.71452" lon="6.16837">
        <ele>222.8</ele>
        <time>2019-11-01T01:21:59.034Z</time>
      </trkpt>
      <trkpt lat="48.71427" lon="6.16831">
        <ele>222.5</ele>
        <time>2019-11-01T01:22:03.291Z</time>
      </trkpt>
      <trkpt lat="48.71402" lon="6.16829">
        <ele>222.5</ele>
        <time>2019-11-01T01:22:07.502Z</time>
      </trkpt>
      <trkpt lat="48.7138" lon="6.16826">
        <ele>223.1</ele>
        <time>2019-11-01T01:22:11.234Z</time>
      </trkpt>
      <trkpt lat="48.71359" lon="6.16822">
        <ele>222.7</ele>
        <time>2019-11-01T01:22:14.758Z</time>
      </trkpt>
      <trkpt lat="48.71342" lon="6.16816">
        <ele>222.6</ele>
        <time>2019-11-01T01:22:17.778Z</time>
      </trkpt>
      <trkpt lat="48.71326" lon="6.16812">
        <ele>222.6</ele>
        <time>2019-11-01T01:22:20.424Z</time>
      </trkpt>
      <trkpt lat="48.71313" lon="6.16808">
        <ele>221.7</ele>
        <time>2019-11-01T01:22:22.717Z</time>
      </trkpt>
      <trkpt lat="48.71305" lon="6.16807">
        <ele>221.6</ele>
        <time>2019-11-01T01:22:24.001Z</time>
      </trkpt>
      <trkpt lat="48.71303" lon="6.16811">
        <ele>221.3</ele>
        <time>2019-11-01T01:22:24.652Z</time>
      </trkpt>
      <trkpt lat="48.71299" lon="6.1681">
        <ele>221.1</ele>
        <time>2019-11-01T01:22:25.258Z</time>
      </trkpt>
      <trkpt lat="48.71283" lon="6.16805">
        <ele>221.2</ele>
        <time>2019-11-01T01:22:27.927Z</time>
      </trkpt>
      <trkpt lat="48.71263" lon="6.16804">
        <ele>221.3</ele>
        <time>2019-11-01T01:22:31.360Z</time>
      </trkpt>
      <trkpt lat="48.71238" lon="6.16798">
        <ele>221.5</ele>
        <time>2019-11-01T01:22:35.556Z</time>
      </trkpt>
      <trkpt lat="48.71212" lon="6.16794">
        <ele>221.5</ele>
        <time>2019-11-01T01:22:39.963Z</time>
      </trkpt>
      <trkpt lat="48.71184" lon="6.16783">
        <ele>221.3</ele>
        <time>2019-11-01T01:22:44.829Z</time>
      </trkpt>
      <trkpt lat="48.71153" lon="6.16773">
        <ele>220.4</ele>
        <time>2019-11-01T01:22:50.181Z</time>
      </trkpt>
      <trkpt lat="48.71123" lon="6.16765">
        <ele>220.3</ele>
        <time>2019-11-01T01:22:55.290Z</time>
      </trkpt>
      <trkpt lat="48.71096" lon="6.16756">
        <ele>219.2</ele>
        <time>2019-11-01T01:22:59.926Z</time>
      </trkpt>
      <trkpt lat="48.71071" lon="6.16747">
        <ele>218.4</ele>
        <time>2019-11-01T01:23:04.359Z</time>
      </trkpt>
      <trkpt lat="48.71045" lon="6.16742">
        <ele>218.4</ele>
        <time>2019-11-01T01:23:08.668Z</time>
      </trkpt>
      <trkpt lat="48.7102" lon="6.16735">
        <ele>217.4</ele>
        <time>2019-11-01T01:23:12.962Z</time>
      </trkpt>
      <trkpt lat="48.70991" lon="6.16724">
        <ele>218.3</ele>
        <time>2019-11-01T01:23:17.974Z</time>
      </trkpt>
      <trkpt lat="48.70965" lon="6.16719">
        <ele>218.5</ele>
        <time>2019-11-01T01:23:22.409Z</time>
      </trkpt>
      <trkpt lat="48.70941" lon="6.1671">
        <ele>217.9</ele>
        <time>2019-11-01T01:23:26.605Z</time>
      </trkpt>
      <trkpt lat="48.70916" lon="6.16699">
        <ele>218.6</ele>
        <time>2019-11-01T01:23:30.990Z</time>
      </trkpt>
      <trkpt lat="48.7089" lon="6.16692">
        <ele>219.3</ele>
        <time>2019-11-01T01:23:35.516Z</time>
      </trkpt>
      <trkpt lat="48.70866" lon="6.16684">
        <ele>220.2</ele>
        <time>2019-11-01T01:23:39.539Z</time>
      </trkpt>
      <trkpt lat="48.70846" lon="6.16679">
        <ele>220.8</ele>
        <time>2019-11-01T01:23:42.982Z</time>
      </trkpt>
      <trkpt lat="48.70829" lon="6.16671">
        <ele>220.8</ele>
        <time>2019-11-01T01:23:45.967Z</time>
      </trkpt>
      <trkpt lat="48.70814" lon="6.16668">
        <ele>220.4</ele>
        <time>2019-11-01T01:23:48.540Z</time>
      </trkpt>
      <trkpt lat="48.70802" lon="6.16669">
        <ele>220.4</ele>
        <time>2019-11-01T01:23:50.525Z</time>
      </trkpt>
      <trkpt lat="48.70791" lon="6.16673">
        <ele>220.8</ele>
        <time>2019-11-01T01:23:52.437Z</time>
      </trkpt>
      <trkpt lat="48.70781" lon="6.16668">
        <ele>220.3</ele>
        <time>2019-11-01T01:23:54.125Z</time>
      </trkpt>
      <trkpt lat="48.70765" lon="6.16668">
        <ele>220.1</ele>
        <time>2019-11-01T01:23:56.918Z</time>
      </trkpt>
      <trkpt lat="48.70735" lon="6.16676">
        <ele>220.2</ele>
        <time>2019-11-01T01:24:01.988Z</time>
      </trkpt>
      <trkpt lat="48.70705" lon="6.16693">
        <ele>219.8</ele>
        <time>2019-11-01T01:24:07.410Z</time>
      </trkpt>
      <trkpt lat="48.70681" lon="6.16712">
        <ele>219.8</ele>
        <time>2019-11-01T01:24:11.959Z</time>
      </trkpt>
      <trkpt lat="48.70656" lon="6.16737">
        <ele>219.4</ele>
        <time>2019-11-01T01:24:16.981Z</time>
      </trkpt>
      <trkpt lat="48.7063" lon="6.16771">
        <ele>219.4</ele>
        <time>2019-11-01T01:24:22.743Z</time>
      </trkpt>
      <trkpt lat="48.70606" lon="6.16792">
        <ele>219.1</ele>
        <time>2019-11-01T01:24:27.472Z</time>
      </trkpt>
      <trkpt lat="48.7058" lon="6.1682">
        <ele>219</ele>
        <time>2019-11-01T01:24:32.864Z</time>
      </trkpt>
      <trkpt lat="48.70554" lon="6.16853">
        <ele>219</ele>
        <time>2019-11-01T01:24:38.467Z</time>
      </trkpt>
      <trkpt lat="48.70531" lon="6.16885">
        <ele>218.7</ele>
        <time>2019-11-01T01:24:43.781Z</time>
      </trkpt>
      <trkpt lat="48.70509" lon="6.16907">
        <ele>218.8</ele>
        <time>2019-11-01T01:24:48.214Z</time>
      </trkpt>
      <trkpt lat="48.70484" lon="6.16932">
        <ele>219.3</ele>
        <time>2019-11-01T01:24:53.173Z</time>
      </trkpt>
      <trkpt lat="48.7046" lon="6.16951">
        <ele>219.3</ele>
        <time>2019-11-01T01:24:57.772Z</time>
      </trkpt>
      <trkpt lat="48.70439" lon="6.16964">
        <ele>219</ele>
        <time>2019-11-01T01:25:01.622Z</time>
      </trkpt>
      <trkpt lat="48.70412" lon="6.16988">
        <ele>219.3</ele>
        <time>2019-11-01T01:25:06.812Z</time>
      </trkpt>
      <trkpt lat="48.70388" lon="6.17012">
        <ele>219.3</ele>
        <time>2019-11-01T01:25:11.612Z</time>
      </trkpt>
      <trkpt lat="48.70372" lon="6.17021">
        <ele>218.7</ele>
        <time>2019-11-01T01:25:14.632Z</time>
      </trkpt>
      <trkpt lat="48.70346" lon="6.17037">
        <ele>219.9</ele>
        <time>2019-11-01T01:25:19.238Z</time>
      </trkpt>
      <trkpt lat="48.70321" lon="6.17051">
        <ele>220.5</ele>
        <time>2019-11-01T01:25:23.770Z</time>
      </trkpt>
      <trkpt lat="48.70298" lon="6.17069">
        <ele>220.6</ele>
        <time>2019-11-01T01:25:28.159Z</time>
      </trkpt>
      <trkpt lat="48.7028" lon="6.17081">
        <ele>220.8</ele>
        <time>2019-11-01T01:25:31.515Z</time>
      </trkpt>
      <trkpt lat="48.70263" lon="6.17098">
        <ele>221.1</ele>
        <time>2019-11-01T01:25:34.880Z</time>
      </trkpt>
      <trkpt lat="48.70247" lon="6.17111">
        <ele>221.2</ele>
        <time>2019-11-01T01:25:37.948Z</time>
      </trkpt>
      <trkpt lat="48.7023" lon="6.1712">
        <ele>221.1</ele>
        <time>2019-11-01T01:25:40.922Z</time>
      </trkpt>
      <trkpt lat="48.7021" lon="6.17134">
        <ele>221.8</ele>
        <time>2019-11-01T01:25:44.703Z</time>
      </trkpt>
      <trkpt lat="48.70197" lon="6.17145">
        <ele>221.6</ele>
        <time>2019-11-01T01:25:47.146Z</time>
      </trkpt>
      <trkpt lat="48.70186" lon="6.17152">
        <ele>221.3</ele>
        <time>2019-11-01T01:25:49.113Z</time>
      </trkpt>
      <trkpt lat="48.70179" lon="6.17153">
        <ele>221.3</ele>
        <time>2019-11-01T01:25:50.298Z</time>
      </trkpt>
      <trkpt lat="48.70176" lon="6.17155">
        <ele>221.3</ele>
        <time>2019-11-01T01:25:50.842Z</time>
      </trkpt>
      <trkpt lat="48.70165" lon="6.17152">
        <ele>221.1</ele>
        <time>2019-11-01T01:25:52.742Z</time>
      </trkpt>
      <trkpt lat="48.70147" lon="6.17167">
        <ele>221.3</ele>
        <time>2019-11-01T01:25:56.136Z</time>
      </trkpt>
      <trkpt lat="48.70129" lon="6.17183">
        <ele>221.6</ele>
        <time>2019-11-01T01:25:59.737Z</time>
      </trkpt>
      <trkpt lat="48.70111" lon="6.17195">
        <ele>221.7</ele>
        <time>2019-11-01T01:26:02.957Z</time>
      </trkpt>
      <trkpt lat="48.70085" lon="6.17218">
        <ele>221.6</ele>
        <time>2019-11-01T01:26:08.006Z</time>
      </trkpt>
      <trkpt lat="48.70068" lon="6.17236">
        <ele>221.8</ele>
        <time>2019-11-01T01:26:11.559Z</time>
      </trkpt>
      <trkpt lat="48.70052" lon="6.1725">
        <ele>221.4</ele>
        <time>2019-11-01T01:26:14.690Z</time>
      </trkpt>
      <trkpt lat="48.70035" lon="6.17268">
        <ele>221.8</ele>
        <time>2019-11-01T01:26:18.201Z</time>
      </trkpt>
      <trkpt lat="48.70009" lon="6.17285">
        <ele>222.3</ele>
        <time>2019-11-01T01:26:22.971Z</time>
      </trkpt>
      <trkpt lat="48.69984" lon="6.17301">
        <ele>222.3</ele>
        <time>2019-11-01T01:26:27.403Z</time>
      </trkpt>
      <trkpt lat="48.69954" lon="6.17317">
        <ele>223.3</ele>
        <time>2019-11-01T01:26:32.787Z</time>
      </trkpt>
      <trkpt lat="48.69926" lon="6.1734">
        <ele>224.3</ele>
        <time>2019-11-01T01:26:38.139Z</time>
      </trkpt>
      <trkpt lat="48.69901" lon="6.17357">
        <ele>225.2</ele>
        <time>2019-11-01T01:26:42.768Z</time>
      </trkpt>
      <trkpt lat="48.69878" lon="6.17372">
        <ele>225.8</ele>
        <time>2019-11-01T01:26:46.980Z</time>
      </trkpt>
      <trkpt lat="48.69854" lon="6.17389">
        <ele>226.4</ele>
        <time>2019-11-01T01:26:51.391Z</time>
      </trkpt>
      <trkpt lat="48.69826" lon="6.17395">
        <ele>226.4</ele>
        <time>2019-11-01T01:26:56.157Z</time>
      </trkpt>
      <trkpt lat="48.69797" lon="6.1741">
        <ele>227.6</ele>
        <time>2019-11-01T01:27:01.311Z</time>
      </trkpt>
      <trkpt lat="48.69774" lon="6.17427">
        <ele>227</ele>
        <time>2019-11-01T01:27:05.628Z</time>
      </trkpt>
      <trkpt lat="48.69752" lon="6.17422">
        <ele>226.7</ele>
        <time>2019-11-01T01:27:09.390Z</time>
      </trkpt>
      <trkpt lat="48.69741" lon="6.17393">
        <ele>226.8</ele>
        <time>2019-11-01T01:27:13.026Z</time>
      </trkpt>
      <trkpt lat="48.6972" lon="6.17389">
        <ele>226.4</ele>
        <time>2019-11-01T01:27:16.631Z</time>
      </trkpt>
      <trkpt lat="48.69697" lon="6.17403">
        <ele>227.3</ele>
        <time>2019-11-01T01:27:20.783Z</time>
      </trkpt>
      <trkpt lat="48.69673" lon="6.17423">
        <ele>227.1</ele>
        <time>2019-11-01T01:27:25.378Z</time>
      </trkpt>
      <trkpt lat="48.69645" lon="6.17444">
        <ele>227.1</ele>
        <time>2019-11-01T01:27:30.598Z</time>
      </trkpt>
      <trkpt lat="48.69621" lon="6.17467">
        <ele>226.6</ele>
        <time>2019-11-01T01:27:35.454Z</time>
      </trkpt>
      <trkpt lat="48.69596" lon="6.17486">
        <ele>227.2</ele>
        <time>2019-11-01T01:27:40.094Z</time>
      </trkpt>
      <trkpt lat="48.69569" lon="6.17514">
        <ele>227.3</ele>
        <time>2019-11-01T01:27:45.695Z</time>
      </trkpt>
      <trkpt lat="48.69544" lon="6.17543">
        <ele>227.3</ele>
        <time>2019-11-01T01:27:50.864Z</time>
      </trkpt>
      <trkpt lat="48.69518" lon="6.17571">
        <ele>226.9</ele>
        <time>2019-11-01T01:27:56.216Z</time>
      </trkpt>
      <trkpt lat="48.69493" lon="6.17591">
        <ele>227.5</ele>
        <time>2019-11-01T01:28:00.961Z</time>
      </trkpt>
      <trkpt lat="48.6947" lon="6.1761">
        <ele>227.1</ele>
        <time>2019-11-01T01:28:05.496Z</time>
      </trkpt>
      <trkpt lat="48.69446" lon="6.17633">
        <ele>227.3</ele>
        <time>2019-11-01T01:28:10.224Z</time>
      </trkpt>
      <trkpt lat="48.69417" lon="6.17647">
        <ele>227.3</ele>
        <time>2019-11-01T01:28:15.396Z</time>
      </trkpt>
      <trkpt lat="48.69388" lon="6.17663">
        <ele>228.1</ele>
        <time>2019-11-01T01:28:20.567Z</time>
      </trkpt>
      <trkpt lat="48.69369" lon="6.17662">
        <ele>228.7</ele>
        <time>2019-11-01T01:28:23.783Z</time>
      </trkpt>
      <trkpt lat="48.69345" lon="6.17675">
        <ele>228.7</ele>
        <time>2019-11-01T01:28:28.008Z</time>
      </trkpt>
      <trkpt lat="48.69319" lon="6.17698">
        <ele>229.7</ele>
        <time>2019-11-01T01:28:33.123Z</time>
      </trkpt>
      <trkpt lat="48.69298" lon="6.17704">
        <ele>229.7</ele>
        <time>2019-11-01T01:28:36.746Z</time>
      </trkpt>
      <trkpt lat="48.69273" lon="6.17725">
        <ele>229.5</ele>
        <time>2019-11-01T01:28:41.542Z</time>
      </trkpt>
      <trkpt lat="48.69247" lon="6.17726">
        <ele>230.3</ele>
        <time>2019-11-01T01:28:45.851Z</time>
      </trkpt>
      <trkpt lat="48.69223" lon="6.17748">
        <ele>230.2</ele>
        <time>2019-11-01T01:28:50.520Z</time>
      </trkpt>
      <trkpt lat="48.69203" lon="6.17772">
        <ele>231.5</ele>
        <time>2019-11-01T01:28:54.858Z</time>
      </trkpt>
      <trkpt lat="48.69185" lon="6.17764">
        <ele>232.8</ele>
        <time>2019-11-01T01:28:58.000Z</time>
      </trkpt>
      <trkpt lat="48.69173" lon="6.17727">
        <ele>232.8</ele>
        <time>2019-11-01T01:29:02.625Z</time>
      </trkpt>
      <trkpt lat="48.69162" lon="6.17688">
        <ele>233.4</ele>
        <time>2019-11-01T01:29:07.226Z</time>
      </trkpt>
      <trkpt lat="48.69143" lon="6.17653">
        <ele>234.5</ele>
        <time>2019-11-01T01:29:12.268Z</time>
      </trkpt>
      <trkpt lat="48.69132" lon="6.17619">
        <ele>234.7</ele>
        <time>2019-11-01T01:29:16.465Z</time>
      </trkpt>
      <trkpt lat="48.69125" lon="6.17589">
        <ele>234.1</ele>
        <time>2019-11-01T01:29:20.036Z</time>
      </trkpt>
      <trkpt lat="48.69118" lon="6.17567">
        <ele>234.1</ele>
        <time>2019-11-01T01:29:22.713Z</time>
      </trkpt>
      <trkpt lat="48.69116" lon="6.17552">
        <ele>235.2</ele>
        <time>2019-11-01T01:29:24.474Z</time>
      </trkpt>
      <trkpt lat="48.69115" lon="6.17538">
        <ele>235.4</ele>
        <time>2019-11-01T01:29:26.055Z</time>
      </trkpt>
      <trkpt lat="48.69118" lon="6.1753">
        <ele>234.7</ele>
        <time>2019-11-01T01:29:27.043Z</time>
      </trkpt>
      <trkpt lat="48.69114" lon="6.17506">
        <ele>234.7</ele>
        <time>2019-11-01T01:29:29.718Z</time>
      </trkpt>
      <trkpt lat="48.69102" lon="6.1748">
        <ele>235</ele>
        <time>2019-11-01T01:29:33.346Z</time>
      </trkpt>
      <trkpt lat="48.6909" lon="6.17452">
        <ele>235.4</ele>
        <time>2019-11-01T01:29:36.979Z</time>
      </trkpt>
      <trkpt lat="48.69083" lon="6.17416">
        <ele>235.4</ele>
        <time>2019-11-01T01:29:41.155Z</time>
      </trkpt>
      <trkpt lat="48.69074" lon="6.1739">
        <ele>235.3</ele>
        <time>2019-11-01T01:29:44.415Z</time>
      </trkpt>
      <trkpt lat="48.69067" lon="6.17362">
        <ele>236.7</ele>
        <time>2019-11-01T01:29:47.744Z</time>
      </trkpt>
      <trkpt lat="48.69057" lon="6.17329">
        <ele>236.8</ele>
        <time>2019-11-01T01:29:51.821Z</time>
      </trkpt>
      <trkpt lat="48.69045" lon="6.17299">
        <ele>236.8</ele>
        <time>2019-11-01T01:29:55.631Z</time>
      </trkpt>
      <trkpt lat="48.69038" lon="6.17271">
        <ele>238</ele>
        <time>2019-11-01T01:29:59.016Z</time>
      </trkpt>
      <trkpt lat="48.6903" lon="6.17243">
        <ele>238.3</ele>
        <time>2019-11-01T01:30:02.329Z</time>
      </trkpt>
      <trkpt lat="48.6902" lon="6.17216">
        <ele>237.6</ele>
        <time>2019-11-01T01:30:05.815Z</time>
      </trkpt>
      <trkpt lat="48.6901" lon="6.17182">
        <ele>237.6</ele>
        <time>2019-11-01T01:30:09.914Z</time>
      </trkpt>
      <trkpt lat="48.69004" lon="6.1715">
        <ele>238.7</ele>
        <time>2019-11-01T01:30:13.682Z</time>
      </trkpt>
      <trkpt lat="48.68996" lon="6.17115">
        <ele>238.7</ele>
        <time>2019-11-01T01:30:17.795Z</time>
      </trkpt>
      <trkpt lat="48.6898" lon="6.17081">
        <ele>238.5</ele>
        <time>2019-11-01T01:30:22.479Z</time>
      </trkpt>
      <trkpt lat="48.68966" lon="6.17046">
        <ele>239</ele>
        <time>2019-11-01T01:30:26.965Z</time>
      </trkpt>
      <trkpt lat="48.6895" lon="6.17009">
        <ele>239.6</ele>
        <time>2019-11-01T01:30:31.850Z</time>
      </trkpt>
      <trkpt lat="48.68938" lon="6.16965">
        <ele>239.6</ele>
        <time>2019-11-01T01:30:37.146Z</time>
      </trkpt>
      <trkpt lat="48.68924" lon="6.16925">
        <ele>240.6</ele>
        <time>2019-11-01T01:30:42.151Z</time>
      </trkpt>
      <trkpt lat="48.68909" lon="6.16888">
        <ele>241</ele>
        <time>2019-11-01T01:30:46.979Z</time>
      </trkpt>
      <trkpt lat="48.68898" lon="6.16852">
        <ele>241.2</ele>
        <time>2019-11-01T01:30:51.444Z</time>
      </trkpt>
      <trkpt lat="48.68888" lon="6.16813">
        <ele>241.9</ele>
        <time>2019-11-01T01:30:56.087Z</time>
      </trkpt>
      <trkpt lat="48.68878" lon="6.16775">
        <ele>241.2</ele>
        <time>2019-11-01T01:31:00.574Z</time>
      </trkpt>
      <trkpt lat="48.68873" lon="6.16731">
        <ele>241</ele>
        <time>2019-11-01T01:31:05.567Z</time>
      </trkpt>
      <trkpt lat="48.68858" lon="6.16694">
        <ele>241</ele>
        <time>2019-11-01T01:31:10.383Z</time>
      </trkpt>
      <trkpt lat="48.68844" lon="6.16655">
        <ele>240.9</ele>
        <time>2019-11-01T01:31:15.320Z</time>
      </trkpt>
      <trkpt lat="48.68832" lon="6.16616">
        <ele>241.8</ele>
        <time>2019-11-01T01:31:20.115Z</time>
      </trkpt>
      <trkpt lat="48.68819" lon="6.16571">
        <ele>241.4</ele>
        <time>2019-11-01T01:31:25.467Z</time>
      </trkpt>
      <trkpt lat="48.68808" lon="6.16528">
        <ele>241.7</ele>
        <time>2019-11-01T01:31:30.614Z</time>
      </trkpt>
      <trkpt lat="48.68794" lon="6.16488">
        <ele>241.2</ele>
        <time>2019-11-01T01:31:35.612Z</time>
      </trkpt>
      <trkpt lat="48.68782" lon="6.16451">
        <ele>240.9</ele>
        <time>2019-11-01T01:31:40.220Z</time>
      </trkpt>
      <trkpt lat="48.68773" lon="6.16417">
        <ele>241.9</ele>
        <time>2019-11-01T01:31:44.321Z</time>
      </trkpt>
      <trkpt lat="48.68767" lon="6.16384">
        <ele>242.1</ele>
        <time>2019-11-01T01:31:48.123Z</time>
      </trkpt>
      <trkpt lat="48.68757" lon="6.16353">
        <ele>241.7</ele>
        <time>2019-11-01T01:31:51.907Z</time>
      </trkpt>
      <trkpt lat="48.68745" lon="6.16321">
        <ele>242.1</ele>
        <time>2019-11-01T01:31:55.971Z</time>
      </trkpt>
      <trkpt lat="48.68737" lon="6.16282">
        <ele>242.1</ele>
        <time>2019-11-01T01:32:00.527Z</time>
      </trkpt>
      <trkpt lat="48.68725" lon="6.16245">
        <ele>242.8</ele>
        <time>2019-11-01T01:32:05.129Z</time>
      </trkpt>
      <trkpt lat="48.68712" lon="6.16212">
        <ele>242.8</ele>
        <time>2019-11-01T01:32:09.442Z</time>
      </trkpt>
      <trkpt lat="48.68698" lon="6.16177">
        <ele>244</ele>
        <time>2019-11-01T01:32:13.951Z</time>
      </trkpt>
      <trkpt lat="48.68686" lon="6.16138">
        <ele>244.6</ele>
        <time>2019-11-01T01:32:18.697Z</time>
      </trkpt>
      <trkpt lat="48.68671" lon="6.16098">
        <ele>244.6</ele>
        <time>2019-11-01T01:32:23.764Z</time>
      </trkpt>
      <trkpt lat="48.68663" lon="6.16065">
        <ele>245</ele>
        <time>2019-11-01T01:32:27.759Z</time>
      </trkpt>
      <trkpt lat="48.68649" lon="6.16054">
        <ele>245.2</ele>
        <time>2019-11-01T01:32:30.306Z</time>
      </trkpt>
      <trkpt lat="48.68626" lon="6.16069">
        <ele>244.7</ele>
        <time>2019-11-01T01:32:34.536Z</time>
      </trkpt>
      <trkpt lat="48.68604" lon="6.16085">
        <ele>244.9</ele>
        <time>2019-11-01T01:32:38.626Z</time>
      </trkpt>
      <trkpt lat="48.68576" lon="6.16101">
        <ele>243.5</ele>
        <time>2019-11-01T01:32:43.597Z</time>
      </trkpt>
      <trkpt lat="48.68548" lon="6.16116">
        <ele>242.9</ele>
        <time>2019-11-01T01:32:48.576Z</time>
      </trkpt>
      <trkpt lat="48.68524" lon="6.16124">
        <ele>241.8</ele>
        <time>2019-11-01T01:32:52.862Z</time>
      </trkpt>
      <trkpt lat="48.68497" lon="6.1614">
        <ele>241.3</ele>
        <time>2019-11-01T01:32:57.699Z</time>
      </trkpt>
      <trkpt lat="48.68467" lon="6.16157">
        <ele>240.7</ele>
        <time>2019-11-01T01:33:02.996Z</time>
      </trkpt>
      <trkpt lat="48.68437" lon="6.16165">
        <ele>240.7</ele>
        <time>2019-11-01T01:33:08.191Z</time>
      </trkpt>
      <trkpt lat="48.68408" lon="6.16175">
        <ele>239.6</ele>
        <time>2019-11-01T01:33:13.182Z</time>
      </trkpt>
      <trkpt lat="48.68384" lon="6.16182">
        <ele>238.3</ele>
        <time>2019-11-01T01:33:17.211Z</time>
      </trkpt>
      <trkpt lat="48.68356" lon="6.16193">
        <ele>237.8</ele>
        <time>2019-11-01T01:33:22.142Z</time>
      </trkpt>
      <trkpt lat="48.68336" lon="6.16198">
        <ele>237.8</ele>
        <time>2019-11-01T01:33:25.506Z</time>
      </trkpt>
      <trkpt lat="48.68331" lon="6.16221">
        <ele>237.3</ele>
        <time>2019-11-01T01:33:28.232Z</time>
      </trkpt>
      <trkpt lat="48.68336" lon="6.16246">
        <ele>237.4</ele>
        <time>2019-11-01T01:33:31.211Z</time>
      </trkpt>
      <trkpt lat="48.6834" lon="6.16274">
        <ele>237.2</ele>
        <time>2019-11-01T01:33:34.310Z</time>
      </trkpt>
      <trkpt lat="48.68336" lon="6.16301">
        <ele>237.2</ele>
        <time>2019-11-01T01:33:37.372Z</time>
      </trkpt>
      <trkpt lat="48.68351" lon="6.16316">
        <ele>237.2</ele>
        <time>2019-11-01T01:33:40.415Z</time>
      </trkpt>
      <trkpt lat="48.68371" lon="6.1632">
        <ele>236.6</ele>
        <time>2019-11-01T01:33:43.790Z</time>
      </trkpt>
      <trkpt lat="48.68387" lon="6.16317">
        <ele>236.8</ele>
        <time>2019-11-01T01:33:46.482Z</time>
      </trkpt>
      <trkpt lat="48.68404" lon="6.16312">
        <ele>236.5</ele>
        <time>2019-11-01T01:33:49.411Z</time>
      </trkpt>
      <trkpt lat="48.68427" lon="6.16311">
        <ele>236.5</ele>
        <time>2019-11-01T01:33:53.297Z</time>
      </trkpt>
      <trkpt lat="48.68445" lon="6.16305">
        <ele>237.3</ele>
        <time>2019-11-01T01:33:56.376Z</time>
      </trkpt>
      <trkpt lat="48.68464" lon="6.16294">
        <ele>237</ele>
        <time>2019-11-01T01:33:59.908Z</time>
      </trkpt>
      <trkpt lat="48.68474" lon="6.16288">
        <ele>237</ele>
        <time>2019-11-01T01:34:01.674Z</time>
      </trkpt>
      <trkpt lat="48.68481" lon="6.16273">
        <ele>237.5</ele>
        <time>2019-11-01T01:34:03.732Z</time>
      </trkpt>
      <trkpt lat="48.68487" lon="6.1626">
        <ele>237.5</ele>
        <time>2019-11-01T01:34:05.512Z</time>
      </trkpt>
      <trkpt lat="48.68484" lon="6.16255">
        <ele>236.8</ele>
        <time>2019-11-01T01:34:06.237Z</time>
      </trkpt>
      <trkpt lat="48.68482" lon="6.16252">
        <ele>236.8</ele>
        <time>2019-11-01T01:34:06.780Z</time>
      </trkpt>
      <trkpt lat="48.6848" lon="6.16252">
        <ele>236.8</ele>
        <time>2019-11-01T01:34:07.034Z</time>
      </trkpt>
      <trkpt lat="48.68479" lon="6.16252">
        <ele>237.1</ele>
        <time>2019-11-01T01:34:07.270Z</time>
      </trkpt>
      <trkpt lat="48.68478" lon="6.16251">
        <ele>237.1</ele>
        <time>2019-11-01T01:34:07.432Z</time>
      </trkpt>
      <trkpt lat="48.68478" lon="6.16248">
        <ele>237.2</ele>
        <time>2019-11-01T01:34:07.745Z</time>
      </trkpt>
      <trkpt lat="48.68475" lon="6.16248">
        <ele>237.2</ele>
        <time>2019-11-01T01:34:08.200Z</time>
      </trkpt>
    </trkseg>
  </trk>
</gpx>